     2              OBSERVATION DATA    GPS                 RINEX VERSION / TYPE
teqc 2000Feb29 20021017 22:03:44UTC                         PGM / RUN BY / DATE
                                                            COMMENT
L2: 1 -> 1; 5 -> 5; 60 -> 9                                 COMMENT
L2: 1 -> 1; 5 -> 5; 60 -> 9                                 COMMENT
L2: 1 -> 1; 5 -> 5; 60 -> 9                                 COMMENT
L2: 1 -> 1; 5 -> 5; 60 -> 9                                 COMMENT
L2: 1 -> 1; 5 -> 5; 60 -> 9                                 COMMENT
Original Marker Name: 4042182                               COMMENT
Campaign Name: Yolo County Subsidence 2002                  COMMENT
4-Character Station Name: 0308                              COMMENT
6-Character Antenna Code: TRMCMP                            COMMENT
Vertical Measurement Point: BPA                             COMMENT
Vertical Offset to Rinex Ref. Point: 0.0000                 COMMENT
Radial Measurement Point: RRP                               COMMENT
Radial Offset to Rinex Ref. Point: 0.0000                   COMMENT
Antenna Height from Field Measurement: 2.0000 m             COMMENT
Additional Antenna Identification Info.:                    COMMENT
Model 22020.00+GP                                           COMMENT
Original XYZ: -2625985.3333 -4234935.6385 3967869.7303      COMMENT
New XYZ position is based on association with SCEC monument COMMENT
E1O4G9E3+0011. Position of that monument is believed to be  COMMENT
valid to within 1 m horizontally; vertical accuracy         COMMENT
should be no worse than 3-times this value.                 COMMENT
                                                            COMMENT
Revised Rinex header created by UCSD GPS archive for        COMMENT
GSAC on 27-Jun-2003 (2003:178) 16:36:21 GMT                 COMMENT
For assistance contact dagnew@ucsd.edu                      COMMENT
or anderson@python.ucsd.edu                                 COMMENT
                                                            COMMENT
HPGN CA 0308                                                MARKER NAME
4042                                                        MARKER NUMBER
-Unknown- YOLO_COUNTY                                       OBSERVER / AGENCY
220224042 TRIMBLE 4700 NP 1.30; SP 1.43                     REC # / TYPE / VERS
0220078884 TR GEOD L1/L2 GP                                 ANT # / TYPE
 -2625985.2850 -4234932.7815  3967867.9283                  APPROX POSITION XYZ
        2.0000        0.0000        0.0000                  ANTENNA: DELTA H/E/N
     1     1     0                                          WAVELENGTH FACT L1/2
     7    C1    L1    L2    P1    P2    S1    S2            # / TYPES OF OBSERV
     0                                                      INTERVAL
  2002     7     1    14    59   45.000000                  TIME OF FIRST OBS
  2002     7     1    20     1   30.000000                  TIME OF LAST OBS
                                                            END OF HEADER
 02  7  1 14 59 45.0000000  0  8G 5G 6G10G15G17G23G24G30
  23274246.8914     145195.64759     72537.89557                  23274247.0004
        42.5004         34.0004
  20767701.6334     -58134.98059    -34976.28258                  20767700.5164
        49.2504         43.7504
  21416517.0004      60431.20759     26261.90458                  21416515.7464
        48.0004         43.5004
  23279435.2974    -126311.82559    -71170.66357                  23279435.2424
        45.0004         32.5004
  22340303.2734     -99513.98459    -56796.34657                  22340303.6374
        46.7504         39.2504
  21260300.0314     -72977.48559    -44539.96258                  21260299.1914
        48.0004         44.0004
  24494835.6414     116413.50259     57939.12957                  24494837.3834
        41.2504         27.5004
  21270824.0164     105795.09459     48360.65558                  21270823.6294
        48.2504         43.7504
 02  7  1 15  0  0.0000000  0  8G 5G 6G10G15G17G23G24G30
  23283688.7114     194810.05149    111198.41047                  23283688.9614
        43.5004         34.5004
  20763846.4924     -78395.24749    -50763.52648                  20763845.2974
        49.5004         44.0004
  21420247.9224      80038.31849     41540.15148                  21420247.3324
        49.0004         43.5004
  23271079.1724    -170221.38949   -105385.88947                  23271079.5514
        46.5004         33.0004
  22333790.8674    -133740.37349    -83466.24548                  22333790.2114
        46.2504         39.5004
  21255438.7894     -98523.26949    -64445.77148                  21255437.8054
        48.0004         44.2504
  24502438.5784     156369.88149     89073.95047                  24502441.1604
        42.2504         28.2504
  21277277.2344     139705.80449     74784.54348                  21277276.7704
        48.0004         44.0004
 02  7  1 15  0 15.0000000  0  8G 5G 6G10G15G17G23G24G30
  23293082.8914     244178.22849    149667.09247                  23293083.5084
        43.0004         35.5004
  20759949.9304     -98870.34249    -66718.13948                  20759948.6454
        51.5004         44.0004
  21423951.4384      99500.33149     56705.34148                  21423950.7504
        48.0004         43.5004
  23262678.2664    -214367.45049   -139785.38047                  23262679.0664
        45.5004         33.7504
  22327234.1804    -168195.61049   -110314.46848                  22327233.6524
        48.2504         40.0004
  21250547.1174    -124229.74549    -84476.79048                  21250546.3754
        48.2504         44.2504
  24509987.1804     196035.34449    119982.03747                  24509988.3404
        42.7504         29.7504
  21283696.3524     173439.87449    101070.81348                  21283695.9024
        48.0004         44.0004
 02  7  1 15  0 30.0000000  0  8G 5G 6G10G15G17G23G24G30
  23302431.3594     293303.22349    187946.26247                  23302431.2504
        44.5004         35.7504
  20756013.5164    -119556.75849    -82837.43648                  20756012.1604
        50.7504         44.5004
  21427628.2274     118820.37549     71759.89448                  21427626.9104
        49.0004         43.5004
  23254233.1024    -258746.56349   -174366.49147                  23254234.0164
        46.0004         33.2504
  22320634.4224    -202876.40049   -137338.45747                  22320633.6134
        47.5004         39.0004
  21245625.7274    -150093.44549   -104630.32848                  21245624.2774
        48.5004         45.0004
  24517480.9844     235413.08849    150665.96447                  24517482.4224
        42.7504         29.7504
  21290082.6644     207000.35949    127221.81048                  21290081.8594
        48.7504         44.0004
 02  7  1 15  0 45.0000000  0  8G 5G 6G10G15G17G23G24G30
  23311735.2584     342196.47649    226044.84747                  23311735.4224
        43.5004         36.0004
  20752039.1414    -140442.42449    -99111.99548                  20752038.2234
        50.7504         44.0004
  21431279.7974     138010.15949     86712.96348                  21431278.6954
        48.0004         43.7504
  23245745.9144    -303346.72349   -209119.83647                  23245747.1374
        45.5004         32.0004
  22313994.5314    -237770.72349   -164528.82848                  22313993.9884
        48.0004         39.7504
  21240675.8984    -176102.31749   -124896.97448                  21240675.0984
        48.0004         44.2504
  24524921.5554     274514.95549    181134.88747                  24524923.1884
        42.0004         29.5004
  21296437.9844     240398.78149    153246.52948                  21296437.9024
        48.0004         44.2504
 02  7  1 15  1  0.0000000  0  8G 5G 6G10G15G17G23G24G30
  23320997.0634     390868.83849    263971.31747                  23320997.5474
        42.5004         34.2504
  20748028.8444    -161516.10249   -115533.05948                  20748027.5984
        51.0004         44.5004
  21434908.9694     157080.49249    101572.94348                  21434907.4264
        48.7504         44.0004
  23237218.6254    -348156.87949   -244036.83047                  23237219.2034
        46.5004         32.2504
  22307315.5164    -272867.65549   -191877.07048                  22307315.3404
        48.0004         39.7504
  21235701.0784    -202245.15049   -145268.01848                  21235700.1054
        48.5004         44.2504
  24532311.8914     313351.94249    211397.46047                  24532313.6094
        43.2504         29.2504
  21302765.2734     273646.07349    179153.47648                  21302764.4694
        48.5004         43.7504
 02  7  1 15  1 15.0000000  0  8G 5G 6G10G15G17G23G24G30
  23330218.0784     439325.15649    301729.43647                  23330218.5314
        42.7504         34.5004
  20743984.0084    -182772.27849   -132096.30248                  20743982.9494
        51.0004         43.7504
  21438515.9844     176036.31349    116343.70648                  21438514.6254
        48.5004         43.5004
  23228652.6954    -393171.66849   -279113.26847                  23228653.8484
        46.0004         33.0004
  22300599.4144    -308161.90449   -219379.07448                  22300599.3054
        47.0004         40.5004
  21230702.1644    -228516.54049   -165739.22348                  21230701.1684
        48.7504         44.5004
  24539653.1334     351929.16949    241457.57047                  24539654.9304
        42.2504         28.2504
  21309064.2274     306746.93849    204946.33648                  21309063.4884
        49.2504         44.5004
 02  7  1 15  1 30.0000000  0  8G 5G 6G10G15G17G23G24G30
  23339401.3984     487581.57849    339331.79947                  23339401.3874
        43.7504         34.7504
  20739907.7274    -204194.38849   -148788.86748                  20739906.7624
        50.5004         44.0004
  21442104.9454     194893.74049    131037.78548                  21442104.0234
        49.2504         43.7504
  23220050.9224    -438374.63749   -314336.35447                  23220051.1134
        46.2504         33.5004
  22293848.6564    -343636.91449   -247021.92648                  22293848.2274
        46.5004         40.0004
  21225681.1334    -254899.93349   -186297.71948                  21225680.1564
        48.5004         44.0004
  24546947.4144     390262.95649    271328.01247                  24546949.8164
        43.0004         28.0004
  21315338.3834     339717.70349    230637.80648                  21315337.9694
        49.0004         44.0004
 02  7  1 15  1 45.0000000  0  8G 5G 6G10G15G17G23G24G30
  23348548.7194     535648.74649    376786.68647                  23348548.4264
        43.2504         35.5004
  20735801.5314    -225771.23749   -165601.99648                  20735800.6174
        51.2504         44.0004
  21445676.3754     213663.66149    145663.68148                  21445675.2194
        49.2504         44.0004
  23211415.4924    -483754.65249   -349697.37147                  23211416.2304
        46.7504         33.2504
  22287065.7344    -379281.72449   -274797.09948                  22287065.1524
        48.5004         40.0004
  21220641.4774    -281384.13749   -206934.76048                  21220640.6374
        48.0004         44.2504
  24554198.6724     428364.07549    301017.18047                  24554200.4734
        42.7504         28.5004
  21321589.6954     372569.00949    256236.19548                  21321589.1844
        49.7504         44.0004
 02  7  1 15  2  0.0000000  0  9G 5G 6G10G15G17G23G24G30G29
  23357661.3834     583538.91449    414103.65047                  23357661.7974
        43.0004         35.0004
  20731668.8674    -247490.12549   -182525.80348                  20731667.6294
        51.5004         44.0004
  21449233.8914     232358.30549    160230.93348                  21449232.5664
        48.5004         43.7504
  23202748.2894    -529299.13749   -385186.53847                  23202749.1804
        46.5004         34.0004
  22280252.7974    -415083.77249   -302694.77948                  22280252.3444
        48.5004         40.0004
  21215585.1174    -307956.59949   -227640.56448                  21215584.0164
        48.5004         44.2504
  24561406.9454     466245.10249    330534.82247                  24561408.5984
        42.7504         29.5004
  21327820.5554     405313.02849    281750.99448                  21327820.1604
        48.5004         44.0004
  24712675.8284    -130020.10659    -92091.37056                  24712678.4884
        37.0004         24.5004
 02  7  1 15  2 15.0000000  0  9G 5G 6G10G15G17G23G24G30G29
  23366742.6094     631260.86449    451289.55247                  23366742.6254
        43.2504         35.0004
  20727510.5314    -269341.67549   -199552.99248                  20727509.4144
        51.0004         44.0004
  21452778.6954     250986.61649    174746.48748                  21452777.3714
        48.7504         43.2504
  23194052.1644    -574998.88149   -420796.72647                  23194052.7344
        46.5004         32.5004
  22273411.9384    -451033.95749   -330707.89348                  22273411.3834
        48.0004         40.2504
  21210513.2274    -334607.91349   -248407.81848                  21210512.5044
        48.0004         44.2504
  24568575.5234     503915.26049    359888.12047                  24568577.1844
        41.2504         29.0004
  21334033.0004     437958.66449    307189.12548                  21334032.3554
        48.0004         43.7504
  24704568.9304    -172620.38949   -125286.31747                  24704570.9884
        38.2504         26.0004
 02  7  1 15  2 30.0000000  0  9G 5G 6G10G15G17G23G24G30G29
  23375792.9614     678823.29449    488351.13447                  23375793.6134
        44.0004         34.2504
  20723328.5474    -291316.80149   -216676.46048                  20723327.8554
        51.7504         44.0004
  21456312.5084     269557.29749    189217.12948                  21456311.3914
        48.5004         43.0004
  23185327.8204    -620844.82749   -456520.80247                  23185328.3094
        46.2504         33.5004
  22266543.9844    -487123.16049   -358829.34148                  22266544.2544
        49.0004         40.2504
  21205428.3754    -361328.98549   -269229.43148                  21205427.6684
        48.0004         44.5004
  24575705.7584     541383.39449    389084.04247                  24575706.7234
        41.2504         28.7504
  21340228.0634     470514.61249    332557.36848                  21340227.1804
        48.0004         44.2504
  24696429.6334    -215393.22549   -158615.75547                  24696431.8404
        38.2504         26.2504
 02  7  1 15  2 45.0000000  0  9G 5G 6G10G15G17G23G24G30G29
  23384814.4774     726229.49049    525290.97747                  23384814.4344
        43.5004         34.2504
  20719124.2114    -313411.63149   -233893.21848                  20719123.0664
        50.2504         44.0004
  21459835.8984     288073.62349    203645.42448                  21459834.9804
        48.0004         43.5004
  23176576.3834    -666833.30849   -492355.95147                  23176576.9224
        47.0004         33.2504
  22259650.8364    -523347.78949   -387056.30848                  22259650.0514
        46.0004         40.5004
  21200331.1024    -388116.01949   -290102.44548                  21200329.7934
        48.2504         45.0004
  24582797.7424     578652.89449    418125.16047                  24582798.6914
        42.5004         27.5004
  21346407.0944     502984.20349    357858.33148                  21346406.4144
        49.0004         44.0004
  24688258.1174    -258334.51549   -192076.46547                  24688259.9414
        40.0004         27.0004
 02  7  1 15  3  0.0000000  0  9G 5G 6G10G15G17G23G24G30G29
  23393809.0634     773494.35749    562120.70347                  23393809.5904
        43.5004         34.2504
  20714899.9614    -335610.80849   -251191.27648                  20714898.6134
        51.2504         44.0004
  21463352.0164     306550.62249    218043.06848                  21463350.5594
        49.2504         44.0004
  23167801.0084    -712949.12249   -528290.30847                  23167801.6804
        46.5004         32.5004
  22252734.7734    -559692.66749   -415376.97848                  22252734.1024
        47.0004         40.2504
  21195224.1484    -414953.62349   -311014.86448                  21195223.0004
        48.0004         44.5004
  24589854.5004     615738.80249    447023.22147                  24589856.2974
        41.2504         26.7504
  21352572.5084     535382.35849    383103.62348                  21352571.5744
        48.0004         43.7504
  24680057.6024    -301428.79349   -225656.37846                  24680059.8324
        39.0004         25.2504
 02  7  1 15  3 15.0000000  0  9G 5G 6G10G15G17G23G24G30G29
  23402776.7114     820621.18949    598842.85847                  23402776.9494
        45.0004         34.2504
  20710656.2424    -357910.33149   -268567.53948                  20710655.1024
        52.0004         44.2504
  21466861.3524     324991.84149    232412.83848                  21466860.4734
        48.0004         43.5004
  23159001.9384    -759188.38649   -564320.87347                  23159002.7114
        46.5004         33.2504
  22245795.9924    -596154.00949   -443788.40548                  22245795.6094
        49.2504         40.5004
  21190108.1174    -441837.95349   -331963.67548                  21190107.0084
        48.0004         44.2504
  24596878.1804     652644.78849    475781.09647                  24596878.9184
        41.5004         26.5004
  21358724.1484     567712.36549    408295.81048                  21358723.9614
        48.7504         44.0004
  24671828.4844    -344671.91349   -259352.28747                  24671830.7734
        40.2504         25.7504
 02  7  1 15  3 30.0000000  0  9G 5G 6G10G15G17G23G24G30G29
  23411721.5004     867624.06349    635468.42847                  23411721.6484
        43.0004         33.5004
  20706396.4384    -380295.74649   -286010.71848                  20706395.5864
        51.0004         44.2504
  21470366.4614     343411.30549    246765.65548                  21470365.4024
        49.5004         43.7504
  23150182.2114    -805536.77749   -600436.46847                  23150182.6844
        46.5004         32.7504
  22238838.4774    -632717.44449   -472279.38648                  22238837.8794
        47.2504         40.5004
  21184986.2504    -468754.51849   -352937.62748                  21184985.4064
        48.7504         44.5004
  24603869.4064     689385.16949    504409.93247                  24603870.2664
        43.0004         27.7504
  21364866.0394     599988.29749    433445.85448                  21364865.3244
        49.2504         43.5004
  24663574.5864    -388049.18149   -293152.72747                  24663576.1414
        42.0004         26.7504
 02  7  1 15  3 45.0000000  0  9G 5G 6G10G15G17G23G24G30G29
  23420643.6644     914510.02749    672002.89447                  23420644.0704
        42.7504         33.7504
  20702121.7974    -402759.49049   -303514.93548                  20702120.4654
        52.0004         44.0004
  21473868.5314     361816.17649    261107.09148                  21473867.6094
        49.7504         43.2504
  23141342.8674    -851986.86149   -636631.31147                  23141343.4774
        47.2504         33.5004
  22231862.5234    -669375.69649   -500844.25148                  22231862.2584
        47.5004         40.5004
  21179859.2734    -495695.72449   -373930.76848                  21179858.1174
        49.0004         44.5004
  24610830.7814     725967.27949    532915.41847                  24610832.1214
        42.0004         27.0004
  21370999.3524     632217.23849    458559.29548                  21370998.1954
        49.5004         44.0004
  24655295.3444    -431552.81449   -327051.59247                  24655297.7814
        40.5004         27.0004
 02  7  1 15  4  0.0000000  0  9G 5G 6G10G15G17G23G24G30G29
  23429542.8444     961276.35549    708444.14947                  23429543.2304
        43.7504         33.2504
  20697831.9224    -425303.73349   -321081.88748                  20697830.5354
        50.7504         44.0004
  21477367.9064     380203.82949    275435.12348                  21477366.9574
        49.0004         43.5004
  23132483.9144    -898540.89249   -672907.14847                  23132484.8094
        46.5004         33.0004
  22224868.0784    -706130.99749   -529484.73048                  22224867.4534
        47.2504         40.7504
  21174727.7664    -522663.90749   -394944.92848                  21174726.6524
        48.7504         44.5004
  24617761.0474     762388.61349    561295.66047                  24617763.1054
        42.2504         26.5004
  21377122.8134     664396.63649    483634.12348                  21377121.7734
        50.5004         44.0004
  24646992.2664    -475184.83549   -361050.53446                  24646994.7854
        40.0004         24.5004
 02  7  1 15  4 15.0000000  0  9G 5G 6G10G15G17G23G24G30G29
  23438420.0944    1007929.79949    744797.43047                  23438420.8014
        43.2504         33.7504
  20693528.0164    -447921.24849   -338705.92948                  20693526.5864
        52.0004         44.0004
  21480865.0474     398581.12049    289755.07248                  21480864.3754
        49.7504         43.5004
  23123606.8984    -945191.79049   -709258.46847                  23123607.7384
        46.5004         34.0004
  22217856.7424    -742976.30049   -558195.33648                  22217856.2234
        48.2504         40.5004
  21169591.8444    -549651.84649   -415974.48748                  21169590.3524
        49.5004         44.7504
  24624663.0004     798656.07749    589555.92346                  24624665.1254
        42.2504         25.0004
  21383237.9454     696533.06949    508675.47848                  21383237.4024
        50.0004         44.2504
  24638667.0554    -518937.80949   -395143.68846                  24638668.8244
        40.2504         25.5004
 02  7  1 15  4 30.0000000  0  9G 5G 6G10G15G17G23G24G30G29
  23447278.9694    1054480.28849    781070.48747                  23447279.0664
        44.5004         33.0004
  20689212.2734    -470601.61849   -356378.93948                  20689210.6644
        50.5004         44.2504
  21484362.3754     416958.06249    304074.76048                  21484360.8204
        48.7504         43.2504
  23114713.0084    -991929.24149   -745677.22447                  23114713.2464
        47.2504         34.2504
  22210830.0864    -779901.39049   -586968.12548                  22210829.9384
        45.7504         40.5004
  21164454.4304    -576649.11549   -437011.30948                  21164453.1724
        48.7504         44.5004
  24631536.5784     834779.87849    617704.30946                  24631538.8054
        41.2504         24.5004
  21389347.3674     728636.58649    533691.18648                  21389346.6374
        50.5004         43.7504
  24630319.8134    -562801.17749   -429322.89546                  24630322.2464
        40.5004         23.2504
 02  7  1 15  4 45.0000000  0  9G 5G 6G10G15G17G23G24G30G29
  23456118.8524    1100933.98449    817268.15247                  23456119.1484
        43.7504         32.2504
  20684885.6334    -493338.08049   -374095.66448                  20684884.0704
        51.7504         44.0004
  21487859.9614     435340.87949    318399.03448                  21487858.6914
        50.0004         43.0004
  23105803.5314   -1038746.56249   -782158.22047                  23105804.2034
        47.0004         34.5004
  22203789.2504    -816899.62149   -615797.89248                  22203788.9144
        48.2504         40.7504
  21159316.7814    -603649.05249   -458050.21348                  21159315.6454
        50.2504         44.5004
  24638384.5164     870766.46549    645745.76646                  24638386.9574
        42.5004         24.5004
  21395451.4844     760713.36749    558686.06448                  21395450.7774
        49.7504         44.2504
  24621953.1414    -606768.04049   -463582.73546                  24621955.1724
        40.7504         24.2504
 02  7  1 15  5  0.0000000  0  9G 5G 6G10G15G17G23G24G30G29
  23464941.1644    1147295.07249    853393.62147                  23464941.1564
        43.5004         32.2504
  20680549.1024    -516126.08749   -391852.56548                  20680548.1054
        50.5004         44.2504
  21491360.3524     453733.64649    332731.03848                  21491359.3444
        50.0004         43.5004
  23096880.0704   -1085639.34649   -818698.03347                  23096880.7464
        47.5004         33.7504
  22196735.9384    -853966.67249   -644681.31048                  22196735.8754
        46.0004         40.5004
  21154178.9224    -630647.14549   -479087.69248                  21154177.6684
        49.5004         44.5004
  24645207.8134     906620.28849    673683.76646                  24645209.6254
        42.0004         25.2504
  21401551.3524     792767.53549    583663.30548                  21401550.5124
        50.0004         43.7504
  24613568.1414    -650833.47949   -497919.40446                  24613569.1684
        40.7504         23.5004
 02  7  1 15  5 15.0000000  0  9G 5G 6G10G15G17G23G24G30G29
  23473746.1174    1193566.56849    889449.28447                  23473746.0594
        43.5004         33.0004
  20676203.6174    -538962.13049   -409646.87448                  20676202.5394
        50.2504         44.5004
  21494862.7664     472139.45849    347073.21248                  21494861.6134
        49.5004         43.5004
  23087943.1094   -1132604.19749   -855293.98847                  23087943.9304
        47.5004         34.0004
  22189669.7664    -891099.04149   -673615.60148                  22189669.3794
        45.7504         41.0004
  21149042.7274    -657639.91649   -500121.01048                  21149041.7624
        48.5004         44.5004
  24652005.8444     942344.53249    701520.79746                  24652007.6294
        42.0004         24.7504
  21407647.1094     824802.14249    608625.31548                  21407646.1994
        49.5004         43.2504
  24605164.0394    -694993.89449   -532330.07146                  24605165.7814
        41.7504         24.5004
 02  7  1 15  5 30.0000000  0  9G 5G 6G10G15G17G23G24G30G29
  23482535.9694    1239754.16949    925439.57247                  23482535.6094
        44.2504         32.7504
  20671849.9384    -561839.85549   -427473.68048                  20671848.4224
        51.5004         44.5004
  21498368.9224     490564.16649    361430.11748                  21498367.7854
        48.7504         44.0004
  23078993.0864   -1179634.86949   -891941.24347                  23078993.8284
        46.7504         34.0004
  22182592.7814    -928290.84549   -702596.22848                  22182591.6254
        49.0004         40.5004
  21143908.1174    -684621.09749   -521145.29948                  21143906.7074
        48.0004         44.7504
  24658780.1254     977945.18349    729261.52346                  24658782.5514
        41.7504         24.5004
  21413740.1024     856822.88149    633576.51848                  21413739.3164
        50.0004         43.5004
  24596744.3674    -739242.78049   -566809.66746                  24596745.5744
        42.7504         23.2504
 02  7  1 15  5 45.0000000  0  9G 5G 6G10G15G17G23G24G30G29
  23491309.6954    1285861.99249    961367.70447                  23491309.6994
        45.0004         33.2504
  20667489.3754    -584754.73749   -445329.43048                  20667487.8054
        51.2504         44.2504
  21501879.2584     509011.90949    375804.97448                  21501878.1334
        48.5004         43.5004
  23070032.2034   -1226726.98049   -928636.35447                  23070032.3674
        47.0004         33.7504
  22175504.7504    -965537.53249   -731619.60248                  22175504.1024
        47.2504         40.7504
  21138776.4844    -711586.25449   -542157.09848                  21138775.3094
        48.2504         44.5004
  24665532.1564    1013426.45249    756909.24146                  24665534.1214
        42.0004         22.0004
  21419831.9844     888833.88249    658520.14048                  21419831.4384
        51.2504         43.7504
  24588307.5084    -783575.32149   -601354.48447                  24588310.0004
        42.0004         26.0004
 02  7  1 15  6  0.0000000  0  9G 5G 6G10G15G17G23G24G30G29
  23500068.7584    1331888.73949    997232.68147                  23500068.3524
        45.0004         32.7504
  20663121.5634    -607707.52549   -463214.71748                  20663120.1374
        50.5004         44.0004
  21505393.9384     527481.41649    390196.78948                  21505392.7734
        48.5004         43.2504
  23061058.8134   -1273881.36749   -965380.01047                  23061059.1564
        47.2504         34.0004
  22168406.3834   -1002840.01549   -760686.45448                  22168406.1564
        47.0004         40.5004
  21133648.1884    -738536.15849   -563157.01048                  21133647.1024
        48.2504         44.5004
  24672261.0004    1048787.37649    784463.12946                  24672262.8984
        41.2504         22.7504
  21425921.1484     920833.86249    683455.16848                  21425920.4774
        51.5004         44.2504
  24579855.9064    -827992.05249   -635964.87147                  24579857.3834
        42.5004         26.0004
 02  7  1 15  6 15.0000000  0  9G 5G 6G10G15G17G23G24G30G29
  23508810.9144    1377835.20349   1033035.05547                  23508811.6214
        44.2504         32.0004
  20658746.9924    -630696.85749   -481128.48848                  20658746.1174
        51.2504         44.0004
  21508912.8834     545973.72649    404606.36448                  21508912.0164
        49.2504         43.5004
  23052074.1564   -1321096.86149  -1002171.26747                  23052074.8164
        47.5004         33.5004
  22161297.6174   -1040197.18849   -789795.92848                  22161297.0164
        46.7504         41.0004
  21128523.1644    -765469.50649   -584144.04048                  21128522.6254
        50.0004         44.7504
  24678967.2974    1084029.08349    811924.11146                  24678968.8714
        42.0004         21.5004
  21432008.8284     952823.70349    708382.29948                  21432008.2154
        51.0004         43.7504
  24571387.3444    -872491.67349   -670639.88947                  24571389.4804
        43.0004         26.0004
 02  7  1 15  6 30.0000000  0  9G 5G 6G10G15G17G23G24G30G29
  23517541.2344    1423709.43849   1068781.17547                  23517541.2384
        45.0004         33.0004
  20654366.8984    -653714.24349   -499064.11248                  20654365.3754
        51.0004         44.0004
  21512437.7114     564496.75949    419039.88748                  21512436.7384
        48.7504         44.0004
  23043079.3594   -1368365.08649  -1039003.62247                  23043079.6844
        47.5004         33.5004
  22154179.6334   -1077600.71849   -818941.53048                  22154178.9654
        47.0004         40.7504
  21123402.6254    -792377.84749   -605111.57148                  21123401.5824
        49.0004         44.5004
  24685652.8054    1119159.89149    839298.73946                  24685654.4184
        41.5004         21.5004
  21438095.8754     984811.41649    733307.75248                  21438095.0044
        51.0004         43.2504
  24562905.0704    -917065.30949   -705372.56546                  24562906.9734
        41.7504         23.5004
 02  7  1 15  6 45.0000000  0  9G 5G 6G10G15G17G23G24G30G29
  23526258.6254    1469518.87449   1104476.79447                  23526258.4734
        43.7504         33.0004
  20649983.2034    -676751.73149   -517015.40448                  20649981.7974
        51.5004         44.2504
  21515970.0704     583058.12949    433503.27648                  21515968.6994
        48.7504         43.5004
  23034076.0084   -1415678.25349  -1075871.00747                  23034076.4804
        46.7504         34.0004
  22147054.6644   -1115042.78649   -848117.15248                  22147054.3714
        49.2504         41.0004
  21118288.2424    -819253.29849   -626053.47948                  21118287.3324
        49.2504         44.7504
  24692318.4774    1154187.33749    866592.80946                  24692319.5354
        42.7504         22.5004
  21444183.8834    1016804.47749    758237.39648                  21444182.9144
        51.0004         43.0004
  24554410.7194    -961704.89649   -740156.61046                  24554412.1214
        42.7504         24.5004
 02  7  1 15  7  0.0000000  0  9G 5G 6G10G15G17G23G24G30G29
  23534963.7974    1515264.05149   1140122.36247                  23534963.4144
        45.7504         33.5004
  20645595.4454    -699808.23249   -534981.51048                  20645594.4494
        51.0004         44.0004
  21519509.4224     601658.48049    447997.04548                  21519508.3874
        50.0004         43.5004
  23025063.8984   -1463035.42749  -1112772.66747                  23025064.4104
        46.5004         34.5004
  22139922.8984   -1152522.52449   -877322.13448                  22139922.2934
        47.2504         40.7504
  21113180.5004    -846094.84449   -646968.95648                  21113179.0434
        50.5004         44.5004
  24698964.4924    1189112.15449    893806.94246                  24698965.7194
        43.7504         22.7504
  21450273.3914    1048803.46949    783171.65348                  21450272.5984
        51.7504         43.0004
  24545904.3834   -1006409.03049   -774990.96746                  24545905.4804
        43.0004         24.5004
 02  7  1 15  7 15.0000000  0  9G 5G 6G10G15G17G23G24G30G29
  23543656.9224    1560946.59149   1175719.09847                  23543656.1484
        46.0004         32.7504
  20641204.9384    -722881.59749   -552960.75648                  20641203.4344
        50.5004         44.2504
  21523056.9384     620299.59449    462522.56748                  21523055.3524
        49.7504         43.5004
  23016044.7194   -1510434.62149  -1149707.06947                  23016044.5704
        47.2504         33.7504
  22132783.3984   -1190037.87949   -906554.87748                  22132782.8524
        46.2504         41.0004
  21108079.6484    -872900.39049   -667856.39448                  21108078.3324
        50.2504         44.7504
  24705591.1414    1223936.31849    920942.64946                  24705592.4064
        43.0004         22.7504
  21456363.5084    1080809.87349    808111.67948                  21456362.8634
        52.0004         43.5004
  24537385.1804   -1051175.48149   -809873.88046                  24537387.0664
        41.0004         24.5004
 02  7  1 15  7 30.0000000  0  9G 5G 6G10G15G17G23G24G30G29
  23552338.0314    1606566.98849   1211267.42047                  23552337.9264
        46.2504         33.0004
  20636811.0634    -745970.81349   -570952.35148                  20636809.7344
        51.5004         44.2504
  21526611.7114     638981.96549    477080.26148                  21526610.8914
        50.0004         43.5004
  23007016.5554   -1557874.89449  -1186673.49247                  23007016.7624
        47.0004         33.0004
  22125638.0864   -1227588.15349   -935814.80548                  22125637.8524
        47.5004         41.0004
  21102985.6174    -899668.97049   -688715.01148                  21102984.6374
        50.2504         44.5004
  24712199.2114    1258660.63449    948000.48046                  24712200.7624
        43.0004         22.5004
  21462456.0004    1112824.35549    833058.01248                  21462455.1914
        51.7504         43.5004
  24528853.9224   -1096003.11649   -844804.44246                  24528856.1454
        41.7504         24.2504
 02  7  1 15  7 45.0000000  0  9G 5G 6G10G15G17G23G24G30G29
  23561008.7114    1652131.93549   1246772.54247                  23561009.1094
        46.2504         33.0004
  20632415.5944    -769068.70849   -588950.71948                  20632414.6844
        51.5004         44.2504
  21530176.4064     657712.24149    491675.26248                  21530175.1604
        48.7504         43.0004
  22997982.6024   -1605349.07949  -1223666.31847                  22997982.6334
        47.0004         33.2504
  22118487.4614   -1265166.12149   -965096.33748                  22118486.9304
        46.5004         40.7504
  21097900.2894    -926393.42849   -709539.26448                  21097899.2114
        50.2504         44.7504
  24718789.5864    1293292.06149    974985.94546                  24718790.8794
        43.2504         22.0004
  21468551.2974    1144853.54449    858015.79348                  21468550.0944
        51.2504         43.0004
  24520313.0784   -1140884.38949   -879776.83346                  24520315.6844
        40.7504         22.7504
 02  7  1 15  8  0.0000000  0  9G 5G 6G10G15G17G23G24G30G29
  23569669.5004    1697642.90049   1282235.59347                  23569670.0204
        46.5004         33.0004
  20628019.1024    -792173.37349   -606954.34548                  20628017.4494
        50.5004         44.5004
  21533749.7114     676491.87749    506308.73248                  21533748.6414
        49.5004         43.5004
  22988942.3054   -1652855.38349  -1260684.18547                  22988942.9144
        47.2504         34.2504
  22111331.5784   -1302770.23349   -994398.23048                  22111331.0044
        47.7504         41.0004
  21092823.4064    -953071.96549   -730327.72648                  21092822.4184
        49.7504         45.0004
  24725362.0704    1327832.12149   1001900.30346                  24725363.3754
        43.2504         25.5004
  21474649.0234    1176898.93249    882986.20948                  21474647.8674
        52.2504         43.2504
  24511762.8364   -1185817.35549   -914789.51846                  24511764.5904
        40.7504         22.2504
 02  7  1 15  8 15.0000000  0  9G 5G 6G10G15G17G23G24G30G29
  23578318.6724    1743096.12449   1317653.64847                  23578319.0514
        46.2504         33.2504
  20623620.4534    -815288.00849   -624965.74648                  20623619.1764
        51.0004         44.0004
  21537332.0004     695317.24149    520977.83948                  21537330.9494
        49.0004         43.2504
  22979896.0634   -1700397.29649  -1297729.80347                  22979896.0514
        48.0004         34.0004
  22104170.1254   -1340403.80849  -1023723.08348                  22104169.2734
        47.2504         41.2504
  21087754.9384    -979707.82049   -751082.92648                  21087753.7854
        50.0004         44.5004
  24731916.8524    1362277.33649   1028740.69547                  24731918.6174
        41.5004         26.5004
  21480749.5474    1208956.71849    907966.28448                  21480748.5124
        51.5004         43.0004
  24503202.1254   -1230805.06549   -949844.78546                  24503203.4224
        39.7504         21.5004
 02  7  1 15  8 30.0000000  0  9G 5G 6G10G15G17G23G24G30G29
  23586957.4304    1788493.44649   1353028.14847                  23586958.1564
        46.2504         32.5004
  20619220.7664    -838410.32049   -642983.13148                  20619219.0744
        50.7504         44.5004
  21540923.4454     714190.21949    535684.04548                  21540922.7624
        49.0004         43.5004
  22970842.6804   -1747972.59949  -1334801.43047                  22970842.3204
        47.5004         33.7504
  22097003.3284   -1378064.67149  -1053069.19848                  22097002.7624
        47.2504         40.5004
  21082694.8984   -1006298.73849   -771803.10648                  21082693.4734
        50.5004         45.2504
  24738454.1884    1396629.70749   1055508.76547                  24738455.1454
        42.7504         26.7504
  21486852.5314    1241028.72849    932957.43748                  21486851.8594
        51.2504         43.0004
  24494631.5634   -1275844.88049   -984940.77746                  24494632.9224
        40.0004         21.7504
 02  7  1 15  8 45.0000000  0  9G 5G 6G10G15G17G23G24G30G29
  23595586.3594    1833836.68849   1388360.49847                  23595585.9774
        46.0004         33.2504
  20614819.1724    -861537.84949   -661004.59048                  20614818.3054
        52.7504         44.5004
  21544524.5554     733112.84749    550428.93348                  21544523.2734
        49.5004         43.5004
  22961782.5554   -1795578.97949  -1371897.29147                  22961783.2894
        46.5004         33.5004
  22089832.0864   -1415750.58349  -1082434.83648                  22089831.5784
        48.5004         40.5004
  21077643.5704   -1032842.32649   -792486.41848                  21077642.5474
        50.2504         44.5004
  24744973.6564    1430891.68149   1082206.36147                  24744975.3244
        42.5004         28.0004
  21492958.9304    1273116.88949    957961.18048                  21492957.5474
        52.0004         43.0004
  24486051.0234   -1320934.27249  -1020075.32946                  24486052.6334
        40.2504         22.2504
 02  7  1 15  9  0.0000000  0  9G 5G 6G10G15G17G23G24G30G29
  23604205.4694    1879131.21649   1423654.88947                  23604205.7894
        46.5004         33.2504
  20610418.5864    -884664.80649   -679025.60248                  20610417.4064
        51.5004         44.2504
  21548135.8134     752090.29849    565216.54548                  21548134.3754
        48.7504         43.0004
  22952718.7114   -1843210.80949  -1409012.97047                  22952719.3444
        47.0004         34.0004
  22082656.8524   -1453455.97849  -1111815.65748                  22082656.3324
        48.5004         41.0004
  21072602.7034   -1059332.90249   -813128.41248                  21072601.4734
        50.7504         44.5004
  24751477.5864    1465068.72049   1108837.77347                  24751479.3054
        42.0004         27.7504
  21499069.0394    1305226.57249    982981.68348                  21499068.2424
        51.5004         43.0004
  24477462.1564   -1366067.07149  -1055243.67446                  24477464.9384
        39.7504         22.7504
 02  7  1 15  9 15.0000000  0  9G 5G 6G10G15G17G23G24G30G29
  23612815.3284    1924374.90649   1458909.66847                  23612815.3484
        46.2504         32.7504
  20606017.5634    -907792.76149   -697047.37948                  20606016.2034
        51.0004         44.0004
  21551757.1334     771120.63949    580045.37948                  21551756.1764
        48.5004         43.5004
  22943649.8524   -1890869.75449  -1446149.78047                  22943650.0824
        47.2504         33.2504
  22075478.0704   -1491182.61149  -1141213.02348                  22075477.3164
        46.5004         41.2504
  21067571.4774   -1085772.10949   -833730.37948                  21067570.2704
        49.5004         44.7504
  24757964.2734    1499158.77749   1135401.42847                  24757966.5554
        42.5004         27.5004
  21505183.0164    1337355.59049   1008017.25848                  21505182.3404
        51.5004         42.7504
  24468864.9064   -1411244.91449  -1090447.14846                  24468867.4774
        39.5004         21.5004
 02  7  1 15  9 30.0000000  0  9G 5G 6G10G15G17G23G24G30G29
  23621415.6804    1969571.39349   1494127.68047                  23621416.2974
        46.0004         33.0004
  20601616.9694    -930917.64549   -715066.77248                  20601615.7854
        51.5004         44.2504
  21555388.9694     790207.48049    594918.22148                  21555388.3634
        47.7504         43.5004
  22934576.0474   -1938551.83449  -1483304.63047                  22934575.7934
        47.0004         33.5004
  22068295.3364   -1528926.44049  -1170623.78848                  22068294.7734
        47.5004         41.0004
  21062550.7424   -1112155.94949   -854289.21748                  21062549.4694
        48.2504         44.5004
  24764436.1334    1533165.80749   1161900.38547                  24764437.5004
        43.5004         29.7504
  21511301.4064    1369507.63349   1033070.76648                  21511300.7704
        51.7504         43.0004
  24460260.7584   -1456463.39849  -1125682.27146                  24460262.8554
        38.7504         22.0004
 02  7  1 15  9 45.0000000  0  9G 5G 6G10G15G17G23G24G30G29
  23630008.2814    2014726.06049   1529313.10147                  23630008.5904
        45.5004         33.5004
  20597217.8914    -954033.51249   -733079.13548                  20597216.9224
        51.2504         44.5004
  21559032.8204     809356.29649    609839.36448                  21559031.7274
        48.0004         43.0004
  22925499.2894   -1986251.22149  -1520472.93947                  22925499.2624
        47.2504         34.5004
  22061110.9064   -1566681.81849  -1200043.55048                  22061110.0164
        47.0004         41.0004
  21057541.8444   -1138478.54549   -874800.32048                  21057540.3164
        50.0004         44.7504
  24770892.8914    1567095.26649   1188338.89447                  24770894.2704
        42.5004         29.7504
  21517424.9064    1401687.93549   1058146.31148                  21517424.3794
        51.0004         43.2504
  24451649.6484   -1501716.49049  -1160944.41946                  24451650.4804
        39.5004         22.7504
 02  7  1 15 10  0.0000000  0  9G 5G 6G10G15G17G23G24G30G29
  23638591.9534    2059833.75149   1564461.88747                  23638592.6954
        45.0004         32.2504
  20592820.1334    -977144.93949   -751088.04248                  20592818.8754
        51.0004         44.2504
  21562687.9534     828562.00649    624804.82848                  21562686.5274
        49.0004         43.5004
  22916417.7814   -2033972.60449  -1557658.40147                  22916418.3164
        47.0004         34.2504
  22053922.9144   -1604453.48549  -1229476.01648                  22053922.1914
        46.0004         41.2504
  21052543.5084   -1164744.55049   -895267.33648                  21052542.3164
        50.0004         44.7504
  24777333.5864    1600942.44049   1214713.29647                  24777335.1604
        45.0004         31.0004
  21523553.4924    1433891.56449   1083240.01548                  21523552.4774
        51.0004         43.0004
  24443030.7114   -1547008.48749  -1196236.78446                  24443032.0904
        39.7504         22.7504
 02  7  1 15 10 15.0000000  0  8G 5G 6G10G15G17G23G30G29
  23647168.0314    2104900.06349   1599578.45147                  23647167.9264
        44.7504         32.0004
  20588424.1174   -1000245.90249   -769088.79048                  20588423.2304
        53.0004         44.0004
  21566354.4454     847830.13549    639818.94548                  21566353.0784
        48.2504         43.5004
  22907334.0084   -2081710.11649  -1594856.44647                  22907334.1054
        47.2504         34.7504
  22046733.5784   -1642235.55149  -1258916.57448                  22046732.8444
        49.0004         40.7504
  21047557.1174   -1190948.02749   -915685.62448                  21047555.5234
        49.2504         44.5004
  21529686.9064    1466124.01149   1108356.18748                  21529686.2584
        51.7504         43.5004
  24434405.6174   -1592333.12149  -1231554.59546                  24434406.9414
        38.5004         21.5004
 02  7  1 15 10 30.0000000  0  8G 5G 6G10G15G17G23G30G29
  23655736.5554    2149927.63349   1634664.83547                  23655736.6054
        44.7504         32.5004
  20584030.7424   -1023333.31649   -787078.98848                  20584029.3834
        52.0004         44.0004
  21570033.3204     867163.46549    654883.86948                  21570032.4924
        47.7504         43.7504
  22898247.5474   -2129460.80349  -1632064.73347                  22898247.5164
        47.5004         34.7504
  22039541.9534   -1680025.08849  -1288362.96048                  22039541.5904
        48.5004         41.0004
  21042583.2664   -1217085.91049   -936052.79948                  21042582.2344
        49.0004         44.5004
  21535826.5234    1498387.88549   1133496.84648                  21535825.8364
        51.2504         43.2504
  24425774.6334   -1637687.21649  -1266895.48146                  24425776.2544
        39.2504         22.2504
 02  7  1 15 10 45.0000000  0  9G 5G 6G10G15G17G23G18G30G29
  23664296.1804    2194911.80049   1669717.37647                  23664296.7584
        44.5004         32.2504
  20579639.4064   -1046411.25849   -805061.80248                  20579637.6524
        52.2504         44.2504
  21573723.9224     886557.37849    669995.99948                  21573723.1764
        48.7504         43.5004
  22889157.5634   -2177228.97049  -1669286.66147                  22889157.4614
        48.0004         34.5004
  22032348.6804   -1717826.42849  -1317818.53748                  22032348.3754
        48.5004         41.2504
  21037621.1954   -1243162.43049   -956372.15248                  21037619.5864
        49.7504         44.5004
  24632595.0784    -176993.48859   -126113.33456                  24632594.5824
        42.5004         25.0004
  21541971.3444    1530678.61049   1158658.43548                  21541970.7154
        51.5004         43.2504
  24417138.0864   -1683074.61849  -1302262.20846                  24417139.8984
        40.5004         22.5004
 02  7  1 15 11  0.0000000  0  9G 5G 6G10G15G17G23G18G30G29
  23672849.4384    2239860.62649   1704742.39947                  23672850.3794
        45.0004         32.2504
  20575250.9924   -1069471.18649   -823030.57148                  20575249.8674
        50.7504         44.2504
  21577427.7274     906019.95549    685161.62548                  21577426.5864
        48.7504         43.2504
  22880065.3754   -2225006.06649  -1706515.53847                  22880065.7034
        47.5004         34.5004
  22025154.5704   -1755631.15849  -1347276.76148                  22025154.2854
        47.5004         41.2504
  21032672.1644   -1269169.04549   -976637.03348                  21032670.7154
        49.7504         45.0004
  24620223.5164    -242006.84449   -176773.05946                  24620223.3794
        43.0004         25.0004
  21548122.3054    1563004.19549   1183847.17248                  21548121.7854
        51.5004         43.2504
  24408497.1094   -1728486.64649  -1337648.20546                  24408497.6954
        42.0004         22.0004
 02  7  1 15 11 15.0000000  0  9G 5G 6G10G15G17G23G18G30G29
  23681396.8674    2284772.33249   1739738.46647                  23681397.1844
        46.0004         32.0004
  20570866.0234   -1092514.30849   -840986.24848                  20570864.7384
        53.0004         44.0004
  21581144.1334     925549.49249    700379.43448                  21581142.9064
        48.5004         42.7504
  22870971.8754   -2272793.53849  -1743752.49947                  22870972.0124
        47.2504         35.2504
  22017960.2344   -1793440.71149  -1376738.73948                  22017959.0704
        48.5004         41.2504
  21027736.3914   -1295107.10449   -996848.50048                  21027735.2704
        50.0004         44.5004
  24607842.0944    -307069.71049   -227471.32446                  24607842.4024
        42.5004         25.0004
  21554280.5164    1595362.85149   1209061.68848                  21554279.4804
        51.5004         44.0004
  24399849.2894   -1773924.19249  -1373054.03646                  24399851.5314
        41.5004         23.0004
 02  7  1 15 11 30.0000000  0  9G 5G 6G10G15G17G23G18G30G29
  23689935.6174    2329642.36049   1774702.09047                  23689935.4964
        45.5004         31.7504
  20566483.4064   -1115544.63849   -858931.95548                  20566482.0004
        52.7504         44.0004
  21584872.2734     945141.54549    715645.96248                  21584871.0514
        49.2504         43.2504
  22861875.5314   -2320595.51449  -1781000.76847                  22861875.6914
        48.5004         35.0004
  22010762.9774   -1831259.28049  -1406207.73748                  22010763.1484
        49.5004         40.7504
  21022812.7344   -1320980.71149  -1017009.74648                  21022811.3164
        50.2504         44.5004
  24595449.8674    -372185.86949   -278211.13746                  24595451.2894
        42.0004         22.5004
  21560443.4924    1627750.07849   1234298.46248                  21560442.6684
        51.2504         43.5004
  24391197.7424   -1819391.23349  -1408482.85046                  24391198.9774
        41.5004         24.0004
 02  7  1 15 11 45.0000000  0  9G 5G 6G10G15G17G23G18G30G29
  23698465.6724    2374472.54349   1809634.66347                  23698466.6564
        45.5004         31.5004
  20562103.8914   -1138559.84549   -876865.89848                  20562102.6094
        51.0004         44.2504
  21588612.7894     964797.88149    730962.56548                  21588611.6414
        48.0004         43.7504
  22852776.5394   -2368409.80949  -1818258.64747                  22852776.5004
        48.0004         35.2504
  22003564.9534   -1869084.71649  -1435682.10148                  22003564.8984
        48.7504         41.2504
  21017901.7584   -1346787.61949  -1037119.02548                  21017900.6024
        49.5004         44.5004
  24583049.9454    -437352.88449   -328990.66146                  24583050.0354
        41.7504         22.2504
  21566612.3204    1660167.64249   1259558.87148                  21566611.5234
        51.7504         43.2504
  24382540.4694   -1864885.33549  -1443932.75047                  24382541.9384
        42.0004         25.7504
 02  7  1 15 12  0.0000000  0  9G 5G 6G10G15G17G23G18G30G29
  23706990.6414    2419269.42149   1844541.26547                  23706991.0234
        45.7504         31.2504
  20557728.5784   -1161552.95949   -894782.60148                  20557727.1524
        52.0004         44.0004
  21592366.6644     984525.03749    746334.36948                  21592365.7664
        49.7504         43.2504
  22843676.6414   -2416229.58849  -1855520.77247                  22843677.1294
        48.5004         35.2504
  21996367.2034   -1906910.13149  -1465156.43948                  21996366.5354
        48.7504         40.7504
  21013004.9774   -1372520.97849  -1057170.98548                  21013003.6054
        51.0004         44.5004
  24570640.8204    -502563.72849   -379804.20546                  24570641.0004
        42.2504         22.7504
  21572788.4304    1692622.11649   1284848.04948                  21572787.5634
        51.7504         43.2504
  24373879.8364   -1910399.22649  -1479398.08947                  24373881.5394
        42.7504         26.5004
 02  7  1 15 12 15.0000000  0  9G 5G 6G10G15G17G23G18G30G29
  23715508.6484    2464031.99249   1879421.14847                  23715509.5514
        45.7504         30.5004
  20553357.3674   -1184524.34049   -912682.38348                  20553355.9224
        51.5004         44.0004
  21596134.0234    1004322.11549    761760.64848                  21596133.3164
        48.2504         42.5004
  22834575.8524   -2464055.35249  -1892787.58047                  22834576.7774
        47.5004         35.0004
  21989168.7584   -1944736.30849  -1494631.37448                  21989168.5824
        48.2504         41.0004
  21008122.1094   -1398181.24949  -1077165.99648                  21008120.5744
        49.5004         44.5004
  24558223.2814    -567818.63849   -430652.19346                  24558223.0084
        42.2504         24.0004
  21578971.2034    1725112.46749   1310165.18348                  21578970.2034
        51.0004         43.2504
  24365214.4064   -1955933.05549  -1514878.96447                  24365216.3484
        42.5004         26.7504
 02  7  1 15 12 30.0000000  0  9G 5G 6G10G15G17G23G18G30G29
  23724021.2814    2508762.43749   1914275.99847                  23724021.4844
        46.7504         32.2504
  20548990.4774   -1207471.35149   -930563.15748                  20548988.8594
        52.2504         44.2504
  21599915.0944    1024191.42749    777243.22848                  21599914.1374
        49.0004         42.7504
  22825474.2974   -2511884.62749  -1930057.12747                  22825474.4064
        48.2504         35.7504
  21981970.9694   -1982560.56249  -1524104.80448                  21981971.0514
        48.0004         41.0004
  21003253.3204   -1423765.80049  -1097101.99748                  21003252.3094
        50.5004         44.5004
  24545797.7344    -633114.85049   -481532.27046                  24545798.3444
        42.0004         24.5004
  21585160.9454    1757640.96249   1335512.03748                  21585160.0634
        51.7504         42.7504
  24356546.3204   -2001484.13449  -1550373.26347                  24356548.0514
        42.0004         27.0004
 02  7  1 15 12 45.0000000  0  9G 5G 6G10G15G17G23G18G30G29
  23732525.8364    2553456.76049   1949102.68547                  23732526.3094
        46.2504         32.0004
  20544627.8284   -1230397.56049   -948427.73848                  20544626.1294
        50.5004         44.0004
  21603709.0164    1044128.98749    792778.96448                  21603708.0004
        48.7504         42.7504
  22816371.2974   -2559720.99749  -1967332.18947                  22816371.0904
        48.5004         36.0004
  21974773.3524   -2020386.61249  -1553579.64548                  21974772.8364
        47.2504         40.7504
  20998398.2424   -1449278.33749  -1116981.89148                  20998397.0474
        49.7504         44.5004
  24533363.9694    -698455.69049   -532447.18846                  24533364.0904
        42.0004         23.7504
  21591357.5394    1790203.42349   1360885.35848                  21591356.7664
        51.5004         43.0004
  24347874.8754   -2047055.61149  -1585883.44247                  24347876.3754
        42.7504         26.5004
 02  7  1 15 13  0.0000000  0  9G 5G 6G10G15G17G23G18G30G29
  23741025.4614    2598120.92349   1983905.90347                  23741025.7814
        46.0004         31.2504
  20540270.4224   -1253296.48949   -966271.06348                  20540268.8094
        52.0004         44.0004
  21607516.9144    1064140.62749    808372.44548                  21607515.6884
        48.5004         43.0004
  22807268.2344   -2607558.04749  -2004607.79047                  22807268.1414
        48.0004         36.0004
  21967576.3284   -2058208.24149  -1583051.02648                  21967575.8984
        48.7504         41.0004
  20993558.7424   -1474712.42749  -1136800.65448                  20993557.1954
        50.5004         44.5004
  24520922.5784    -763834.73149   -583391.85946                  24520922.7194
        42.2504         24.5004
  21597561.3984    1822805.88549   1386289.85048                  21597560.5904
        51.0004         43.2504
  24339199.6644   -2092640.86049  -1621404.37847                  24339201.5314
        42.5004         26.7504
 02  7  1 15 13 15.0000000  0  9G 5G 6G10G15G17G23G18G30G29
  23749519.1024    2642754.96849   2018685.62347                  23749519.5124
        46.2504         32.0004
  20535917.7974   -1276167.59749   -984092.70948                  20535916.3714
        49.7504         43.7504
  21611339.4144    1084226.51149    824023.76548                  21611337.8284
        49.2504         43.2504
  22798165.0474   -2655395.39349  -2041883.60947                  22798165.4454
        48.0004         35.5004
  21960379.8444   -2096025.16049  -1612518.74448                  21960379.0744
        48.2504         42.0004
  20988733.6414   -1500067.60449  -1156557.93948                  20988732.3014
        49.7504         44.5004
  24508473.9144    -829251.37049   -634365.83946                  24508473.8014
        41.5004         24.7504
  21603773.4144    1855448.36149   1411725.51848                  21603772.7034
        51.2504         43.0004
  24330523.3364   -2138239.16149  -1656935.51647                  24330524.4144
        43.7504         27.0004
 02  7  1 15 13 30.0000000  0  9G 5G 6G10G15G17G23G18G30G29
  23758006.7584    2687357.26549   2053440.62547                  23758006.6684
        46.5004         31.7504
  20531570.8134   -1299011.95449  -1001893.50048                  20531569.5274
        51.0004         44.0004
  21615175.3594    1104385.08849    839731.75748                  21615174.5784
        49.5004         43.5004
  22789061.6804   -2703234.23149  -2079160.58847                  22789061.4964
        47.0004         35.7504
  21953183.9694   -2133838.41049  -1641983.59648                  21953183.1524
        48.5004         41.5004
  20983923.4144   -1525344.99249  -1176254.58648                  20983922.0664
        50.5004         44.7504
  24496018.3364    -894706.49649   -685369.80747                  24496018.3554
        42.2504         26.0004
  21609992.0084    1888129.38449   1437191.23648                  21609991.4264
        51.2504         42.2504
  24321843.6884   -2183851.42349  -1692477.50847                  24321844.6804
        42.7504         27.2504
 02  7  1 15 13 45.0000000  0  9G 5G 6G10G15G17G23G18G30G29
  23766489.1644    2731933.02549   2088174.95547                  23766489.4694
        47.0004         31.5004
  20527229.8914   -1321823.85549  -1019669.00848                  20527228.5124
        52.0004         43.7504
  21619026.2274    1124621.54149    855500.40648                  21619025.2974
        48.7504         43.2504
  22779958.8054   -2751069.12049  -2116434.49947                  22779959.0474
        48.5004         35.7504
  21945990.2274   -2171642.55649  -1671441.37248                  21945990.1054
        48.5004         41.5004
  20979129.1644   -1550539.04849  -1195886.31048                  20979128.4304
        50.5004         44.5004
  24483556.0864    -960194.21849   -736399.13847                  24483556.0004
        42.7504         26.2504
  21616219.4304    1920854.00749   1462690.91848                  21616218.9344
        51.2504         43.0004
  24313161.9384   -2229471.77649  -1728025.80147                  24313163.2384
        44.5004         28.2504
 02  7  1 15 14  0.0000000  0  9G 5G 6G10G15G17G23G18G30G29
  23774965.7734    2776478.51349   2122885.68547                  23774965.9924
        47.2504         32.2504
  20522894.5084   -1344606.57049  -1037421.78148                  20522893.3954
        51.2504         43.7504
  21622891.1254    1144932.19849    871326.87548                  21622889.9844
        48.7504         43.2504
  22770856.2034   -2798903.38349  -2153707.93247                  22770856.5044
        48.5004         35.5004
  21938797.9144   -2209441.15749  -1700894.82048                  21938796.7304
        49.2504         41.7504
  20974350.3834   -1575653.15349  -1215455.74548                  20974348.8164
        49.7504         44.7504
  24471087.2894   -1025717.74149   -787456.38746                  24471087.1134
        43.0004         24.5004
  21622454.4694    1953618.41349   1488221.59248                  21622453.4844
        52.0004         43.0004
  24304479.1644   -2275103.34949  -1763582.82947                  24304480.1844
        43.7504         28.0004
 02  7  1 15 14 15.0000000  0  9G 5G 6G10G15G17G23G18G30G29
  23783437.4534    2820996.23949   2157574.76847                  23783437.8554
        46.2504         31.7504
  20518565.2194   -1367357.03849  -1055149.42248                  20518564.0594
        51.5004         43.5004
  21626770.6564    1165319.64949    887213.18948                  21626769.8794
        49.2504         43.0004
  22761754.6484   -2846734.08149  -2190978.56747                  22761754.4774
        48.0004         36.0004
  21931606.5784   -2247231.28749  -1730341.67048                  21931605.8244
        49.0004         41.0004
  20969586.6644   -1600684.32749  -1234960.54448                  20969585.7854
        49.7504         44.7504
  24458612.3594   -1091273.92349   -838539.11047                  24458611.8554
        43.0004         26.0004
  21628697.2584    1986425.23549   1513785.32848                  21628696.7854
        50.7504         42.5004
  24295793.6094   -2320742.76549  -1799145.94847                  24295795.1804
        43.7504         28.0004
 02  7  1 15 14 30.0000000  0  9G 5G 6G10G15G17G23G18G30G29
  23791902.6174    2865479.79649   2192237.24247                  23791902.4534
        47.0004         31.0004
  20514240.9694   -1390081.16049  -1072856.52948                  20514239.5394
        52.0004         43.7504
  21630663.7894    1185777.36049    903154.26048                  21630662.6954
        49.2504         43.0004
  22752651.8204   -2894567.21149  -2228251.11847                  22752651.6804
        48.0004         35.5004
  21924415.5554   -2285019.02249  -1759786.64548                  21924414.7584
        48.7504         41.5004
  20964838.0634   -1625638.56249  -1254405.39948                  20964836.8444
        50.2504         44.7504
  24446130.6564   -1156868.54649   -889651.80047                  24446130.1134
        42.5004         26.7504
  21634947.2274    2019268.01549   1539377.07748                  21634946.4844
        51.7504         42.7504
  24287106.3914   -2366395.91949  -1834719.77747                  24287106.9884
        44.0004         28.0004
 02  7  1 15 14 45.0000000  0  9G 5G 6G10G15G17G23G18G30G29
  23800361.2734    2909933.49949   2226876.46047                  23800361.3164
        46.5004         30.0004
  20509922.5394   -1412774.11849  -1090539.34848                  20509921.4104
        52.2504         43.7504
  21634570.9224    1206309.73849    919153.50348                  21634570.4414
        47.7504         42.7504
  22743550.1804   -2942398.12049  -2265521.91247                  22743549.8134
        47.7504         36.2504
  21917226.0314   -2322799.56749  -1789226.00848                  21917225.6994
        49.5004         41.7504
  20960105.1254   -1650511.13949  -1273786.61048                  20960103.8914
        48.7504         44.5004
  24433641.2274   -1222496.67049   -940790.53947                  24433641.4064
        42.5004         26.7504
  21641204.3834    2052151.01849   1565000.18048                  21641204.0864
        51.2504         43.0004
  24278416.7274   -2412057.66249  -1870300.33147                  24278418.1374
        43.7504         28.0004
 02  7  1 15 15  0.0000000  0  9G 5G 6G10G15G17G23G18G30G29
  23808814.9924    2954355.22849   2261490.76247                  23808814.9304
        46.2504         29.7504
  20505609.8754   -1435437.59749  -1108199.20248                  20505608.6604
        51.0004         43.7504
  21638492.1724    1226914.77249    935209.36148                  21638491.2464
        49.7504         43.2504
  22734448.1094   -2990228.60349  -2302792.40047                  22734448.2704
        48.0004         35.7504
  21910037.5554   -2360574.93449  -1818661.34948                  21910037.1414
        48.0004         41.5004
  20955387.1804   -1675303.74349  -1293105.52548                  20955385.9614
        49.7504         44.7504
  24421146.2734   -1288159.79649   -991956.59447                  24421146.1914
        43.7504         28.5004
  21647469.1024    2085072.13249   1590652.97148                  21647468.8794
        51.2504         43.2504
  24269725.7734   -2457729.40349  -1905888.65447                  24269727.5314
        43.7504         29.0004
 02  7  1 15 15 15.0000000  0  9G 5G 6G10G15G17G23G18G30G29
  23817261.3284    2998742.60949   2296078.29247                  23817261.7734
        46.2504         31.0004
  20501302.5704   -1458073.37049  -1125837.46848                  20501301.3874
        51.7504         43.7504
  21642426.1484    1247590.18949    951320.06948                  21642425.2154
        49.5004         43.0004
  22725346.0784   -3038060.55749  -2340064.01147                  22725346.5354
        47.7504         35.5004
  21902849.6564   -2398347.05449  -1848094.16648                  21902848.9694
        48.7504         41.2504
  20950684.1174   -1700018.27349  -1312363.58648                  20950683.0314
        50.2504         44.5004
  24408643.9224   -1353859.69549  -1043151.28647                  24408643.6374
        43.5004         27.5004
  21653741.0394    2118029.08549   1616333.69048                  21653740.0234
        51.2504         43.2504
  24261032.5084   -2503412.92249  -1941486.15047                  24261033.1524
        43.7504         29.5004
 02  7  1 15 15 30.0000000  0  9G 5G 6G10G15G17G23G18G30G29
  23825702.9844    3043102.75049   2330644.59247                  23825703.0554
        47.0004         31.2504
  20497001.8594   -1480673.83949  -1143448.21948                  20497000.6564
        50.5004         43.7504
  21646375.3674    1268343.04049    967491.10848                  21646374.5204
        49.0004         43.0004
  22716245.0704   -3085886.56849  -2377330.99947                  22716244.9344
        47.7504         35.5004
  21895664.0474   -2436108.42449  -1877518.58948                  21895663.7034
        47.2504         41.5004
  20945997.5004   -1724647.30449  -1331555.02948                  20945996.2894
        50.5004         44.7504
  24396136.3834   -1419588.63049  -1094368.62547                  24396136.0164
        44.5004         29.0004
  21660020.1174    2151028.85749   1642047.77348                  21660019.7154
        51.5004         42.5004
  24252338.2114   -2549100.24149  -1977086.63547                  24252339.4224
        43.7504         28.2504
 02  7  1 15 15 45.0000000  0  9G 5G 6G10G15G17G23G18G30G29
  23834138.4454    3087431.80549   2365186.67947                  23834139.0984
        46.0004         32.0004
  20492707.1094   -1503242.31349  -1161034.04748                  20492705.7624
        52.2504         44.0004
  21650338.8134    1289169.47649    983719.48648                  21650337.9304
        49.2504         43.0004
  22707144.6564   -3133710.14649  -2414596.10047                  22707144.5664
        47.5004         35.0004
  21888479.8594   -2473862.60849  -1906937.43748                  21888479.1254
        47.5004         41.2504
  20941326.2194   -1749194.21749  -1350682.49948                  20941325.0084
        50.0004         44.5004
  24383622.6644   -1485349.73449  -1145611.01347                  24383623.0274
        44.5004         29.2504
  21666307.4304    2184067.55849   1667792.18348                  21666306.8714
        50.7504         42.7504
  24243643.1254   -2594794.61249  -2012692.55947                  24243644.2734
        43.0004         28.0004
 02  7  1 15 16  0.0000000  0  9G 5G 6G10G15G17G23G18G30G29
  23842568.2274    3131731.94249   2399706.20947                  23842569.0944
        45.5004         30.7504
  20488419.0634   -1525776.16149  -1178592.88348                  20488417.9344
        51.0004         43.7504
  21654316.2974    1310071.77549   1000006.97048                  21654315.5164
        49.5004         43.0004
  22698045.0084   -3181528.67849  -2451857.29347                  22698044.2504
        47.2504         35.5004
  21881297.0084   -2511607.15449  -1936348.76048                  21881296.4494
        48.2504         41.5004
  20936671.1334   -1773656.51449  -1369744.02848                  20936669.8524
        51.0004         44.7504
  24371102.9064   -1551140.32749  -1196876.37047                  24371102.5434
        44.5004         29.0004
  21672602.4614    2217147.43649   1693568.68448                  21672601.4104
        51.0004         42.0004
  24234946.5554   -2640493.24249  -2048301.85447                  24234947.9884
        43.0004         27.0004
 02  7  1 15 16 15.0000000  0  9G 5G 6G10G15G17G23G18G30G29
  23850992.2194    3175998.01549   2434199.21247                  23850992.6254
        45.7504         30.7504
  20484136.7664   -1548280.05049  -1196128.38848                  20484135.4884
        51.7504         43.7504
  21658307.4844    1331044.65149   1016349.46848                  21658306.3484
        49.2504         43.0004
  22688945.3674   -3229347.00949  -2489118.28647                  22688945.3204
        48.2504         35.0004
  21874115.2194   -2549346.94449  -1965756.37648                  21874115.0314
        48.5004         41.7504
  20932031.1334   -1798038.93649  -1388743.29748                  20932030.2344
        49.5004         44.5004
  24358576.7424   -1616964.93249  -1248168.27547                  24358576.7504
        44.0004         28.5004
  21678904.1884    2250263.30549   1719373.23048                  21678903.1804
        51.5004         42.5004
  24226248.9534   -2686200.58949  -2083917.91147                  24226250.5084
        43.7504         27.0004
 02  7  1 15 16 30.0000000  0  9G 5G 6G10G15G17G23G18G30G29
  23859409.1954    3220230.93149   2468666.37247                  23859409.9414
        45.0004         30.2504
  20479860.4844   -1570752.54649  -1213639.41948                  20479858.7734
        51.7504         44.0004
  21662312.2424    1352089.12349   1032747.73748                  21662311.2854
        49.5004         43.0004
  22679846.0234   -3277163.86149  -2526378.13147                  22679846.4694
        48.0004         36.0004
  21866935.1724   -2587080.73949  -1995159.32048                  21866934.7734
        48.2504         41.0004
  20927406.9384   -1822340.24249  -1407679.37848                  20927405.5864
        50.5004         44.7504
  24346044.6644   -1682821.96449  -1299485.42547                  24346045.1024
        45.0004         28.5004
  21685212.8984    2283415.95649   1745206.44148                  21685212.3554
        51.2504         42.5004
  24217550.1884   -2731914.95149  -2119539.46247                  24217551.0314
        44.0004         27.2504
 02  7  1 15 16 45.0000000  0  9G 5G 6G10G15G17G23G18G30G29
  23867820.1724    3264430.29149   2503107.37847                  23867820.6724
        45.5004         29.7504
  20475590.0634   -1593193.51749  -1231125.89748                  20475588.7154
        50.0004         44.0004
  21666330.3054    1373204.70549   1049201.43348                  21666329.6484
        48.5004         43.0004
  22670747.0164   -3324979.28349  -2563636.87347                  22670747.1644
        48.5004         35.7504
  21859755.8444   -2624808.52849  -2024557.59348                  21859754.7424
        46.5004         41.2504
  20922798.1254   -1846560.41849  -1426552.24548                  20922796.7624
        50.5004         44.7504
  24333506.0704   -1748711.28549  -1350827.70647                  24333506.4104
        44.5004         28.7504
  21691528.5864    2316605.09349   1771068.07748                  21691528.0004
        51.5004         42.0004
  24208848.8134   -2777636.07049  -2155166.25447                  24208850.4344
        45.0004         27.7504
 02  7  1 15 17  0.0000000  0  9G 5G 6G10G15G17G23G18G30G29
  23876225.8754    3308603.57149   2537528.06847                  23876226.0664
        45.2504         30.0004
  20471327.4304   -1615595.01349  -1248581.60448                  20471325.8134
        50.5004         44.0004
  21670363.2114    1394398.99049   1065716.44448                  21670362.6454
        49.5004         43.2504
  22661649.9224   -3372785.46149  -2600888.41647                  22661649.6644
        48.0004         35.2504
  21852578.7274   -2662522.60849  -2053945.18248                  21852578.4344
        47.5004         41.5004
  20918206.0704   -1870691.56649  -1445355.72648                  20918204.4264
        50.5004         44.5004
  24320963.0784   -1814624.68449  -1402188.80447                  24320964.0984
        43.7504         29.0004
  21697852.6094    2349838.03049   1796963.84648                  21697852.1374
        51.2504         42.0004
  24200149.0004   -2823355.86849  -2190792.02347                  24200150.3984
        43.0004         27.7504
 02  7  1 15 17 15.0000000  0  9G 5G 6G10G15G17G23G18G30G29
  23884626.5004    3352749.40249   2571927.38247                  23884627.4804
        44.5004         31.0004
  20467071.5314   -1637957.92549  -1266007.24548                  20467070.3714
        52.0004         43.7504
  21674411.2734    1415670.64949   1082291.75748                  21674410.0514
        49.0004         43.0004
  22652554.2734   -3420583.38249  -2638133.51347                  22652554.4384
        48.2504         35.7504
  21845404.6564   -2700224.01349  -2083322.88248                  21845404.3674
        47.5004         42.0004
  20913630.5864   -1894734.61849  -1464090.56848                  20913630.0234
        50.0004         44.5004
  24308416.1804   -1880563.06149  -1453569.35047                  24308415.7504
        44.0004         27.7504
  21704184.6564    2383113.57249   1822892.81848                  21704184.5664
        51.0004         42.0004
  24191449.0394   -2869074.90949  -2226417.19547                  24191450.4414
        43.0004         26.2504
 02  7  1 15 17 30.0000000  0  9G 5G 6G10G15G17G23G18G30G29
  23893021.9224    3396867.61549   2606305.14847                  23893023.1764
        44.7504         30.0004
  20462823.2424   -1660281.94849  -1283402.60048                  20462822.0634
        51.0004         44.2504
  21678473.8674    1437019.52849   1098927.22748                  21678472.8404
        48.5004         43.2504
  22643460.5164   -3468372.79649  -2675371.99447                  22643460.2154
        48.5004         35.5004
  21838232.7974   -2737912.56849  -2112690.57748                  21838232.0554
        47.0004         42.0004
  20909072.3984   -1918689.41549  -1482756.64148                  20909071.2034
        50.5004         44.7504
  24295863.3754   -1946526.10649  -1504969.13847                  24295862.8674
        43.5004         28.0004
  21710524.8834    2416431.35049   1848854.68648                  21710524.6684
        51.0004         41.7504
  24182749.3284   -2914792.85049  -2262041.52247                  24182750.1214
        43.5004         27.0004
 02  7  1 15 17 45.0000000  0  9G 5G 6G10G15G17G23G18G30G29
  23901412.2894    3440954.12849   2640658.23947                  23901412.5434
        45.0004         30.5004
  20458581.9694   -1682570.53949  -1300770.33248                  20458580.6414
        51.2504         44.0004
  21682550.1254    1458441.68049   1115619.81148                  21682549.5434
        49.0004         42.7504
  22634367.2424   -3516157.31049  -2712606.65047                  22634367.0634
        48.2504         35.5004
  21831062.0704   -2775591.96349  -2142051.13648                  21831061.6724
        46.2504         42.0004
  20904529.8834   -1942559.57149  -1501356.75848                  20904528.6254
        51.0004         44.5004
  24283306.5004   -2012517.03549  -1556390.58847                  24283305.7194
        43.5004         27.5004
  21716872.4304    2449787.42449   1874846.41448                  21716871.4804
        51.0004         42.5004
  24174049.3054   -2960512.77749  -2297667.41647                  24174049.9774
        43.0004         27.2504
 02  7  1 15 18  0.0000000  0  9G 5G 6G10G15G17G23G18G30G29
  23909794.9694    3485008.39849   2674986.20847                  23909795.6334
        44.2504         30.5004
  20454347.4224   -1704823.74449  -1318110.48548                  20454346.1524
        51.0004         43.7504
  21686640.2274    1479936.54849   1132369.03948                  21686639.7664
        48.5004         43.2504
  22625274.8984   -3563937.23849  -2749837.73847                  22625274.8954
        49.0004         35.0004
  21823893.9144   -2813262.44049  -2171404.74248                  21823892.9224
        46.0004         42.0004
  20900003.6884   -1966345.28449  -1519891.06848                  20900002.3984
        50.2504         45.0004
  24270742.9774   -2078535.89549  -1607833.87847                  24270742.6214
        42.2504         28.7504
  21723226.9304    2483181.20449   1900867.51748                  21723226.6254
        51.0004         42.0004
  24165348.1254   -3006234.69849  -2333294.79547                  24165349.8444
        43.5004         28.5004
 02  7  1 15 18 15.0000000  0  9G 5G 6G10G15G17G23G18G30G29
  23918174.4844    3529043.79749   2709299.43247                  23918175.4534
        44.7504         30.0004
  20450122.2274   -1727027.75249  -1335412.31148                  20450121.3014
        50.7504         43.7504
  21690747.2114    1501517.36149   1149185.23548                  21690746.3524
        47.5004         42.7504
  22616186.0394   -3611698.78149  -2787054.49747                  22616186.0354
        48.0004         36.2504
  21816729.8204   -2850910.22249  -2200740.67348                  21816729.2114
        46.2504         41.7504
  20895496.2344   -1990032.70649  -1538348.80748                  20895494.6214
        50.2504         44.5004
  24258177.3364   -2144568.64449  -1659287.95547                  24258177.1724
        43.7504         26.2504
  21729591.4304    2516625.98949   1926928.35448                  21729590.8594
        51.0004         42.2504
  24156650.4534   -3051944.52049  -2368912.82947                  24156651.2704
        43.5004         27.7504
 02  7  1 15 18 30.0000000  0  9G 5G 6G10G15G17G23G18G30G29
  23926550.2504    3573060.94949   2743598.46647                  23926551.0274
        44.0004         30.0004
  20445906.7734   -1749181.40049  -1352674.90048                  20445904.9614
        50.7504         44.0004
  21694870.5234    1523184.83249   1166068.96148                  21694869.3954
        47.7504         42.7504
  22607101.1724   -3659440.91649  -2824256.13547                  22607101.0744
        48.0004         35.5004
  21809570.2274   -2888534.42249  -2230058.22348                  21809570.0044
        47.0004         42.0004
  20891007.6174   -2013620.83949  -1556729.17548                  20891006.0704
        50.0004         44.7504
  24245609.0314   -2210613.89849  -1710751.74947                  24245609.0394
        41.2504         28.5004
  21735965.8834    2550122.43249   1953029.45148                  21735965.2584
        51.0004         41.5004
  24147954.4224   -3097640.87449  -2404520.30146                  24147955.2624
        43.2504         25.2504
 02  7  1 15 18 45.0000000  0  9G 5G 6G10G15G17G23G18G30G29
  23934920.6564    3617046.40549   2777872.79147                  23934921.7704
        44.0004         29.5004
  20441697.9224   -1771297.63849  -1369908.32648                  20441696.6334
        50.2504         44.0004
  21699007.8914    1544925.61049   1183009.81648                  21699006.7384
        47.2504         42.7504
  22598017.2114   -3707176.64649  -2861452.78447                  22598016.9614
        48.5004         35.7504
  21802412.2114   -2926148.23549  -2259367.67648                  21802411.4414
        46.2504         41.7504
  20886535.3594   -2037122.74149  -1575042.33948                  20886534.0474
        50.7504         44.7504
  24233036.2894   -2276684.61149  -1762235.44247                  24233036.3594
        42.0004         27.0004
  21742347.2584    2583657.11749   1979160.34248                  21742346.2814
        50.7504         41.7504
  24139258.6484   -3143336.56449  -2440127.31547                  24139259.8714
        42.7504         26.2504
 02  7  1 15 19  0.0000000  0  9G 5G 6G10G15G17G23G18G30G29
  23943286.2344    3661003.59449   2812125.11447                  23943286.3834
        44.5004         31.0004
  20437497.2344   -1793372.56549  -1387109.57448                  20437495.5204
        50.0004         43.5004
  21703159.0474    1566743.04849   1200010.40248                  21703158.5204
        48.0004         43.0004
  22588935.0164   -3754902.40749  -2898641.65647                  22588935.2894
        48.5004         35.2504
  21795257.5004   -2963747.87649  -2288666.07448                  21795257.1884
        47.0004         41.7504
  20882080.1884   -2060534.70149  -1593285.41248                  20882078.9844
        50.2504         45.0004
  24220459.6644   -2342776.77249  -1813735.79047                  24220458.9884
        41.0004         27.0004
  21748736.3204    2617233.34149   2005323.61948                  21748735.2934
        51.0004         41.7504
  24130563.4924   -3189027.42349  -2475730.56047                  24130564.6724
        42.0004         25.7504
 02  7  1 15 19 15.0000000  0  9G 5G 6G10G15G17G23G18G30G29
  23951645.0634    3704928.72049   2846352.43847                  23951645.3364
        45.2504         32.5004
  20433303.5634   -1815409.57049  -1404281.26648                  20433302.0474
        51.5004         44.0004
  21707324.8054    1588633.33449   1217067.75448                  21707323.8874
        47.5004         42.5004
  22579854.5554   -3802621.67549  -2935825.48447                  22579854.4844
        48.2504         36.2504
  21788104.9144   -3001336.88949  -2317956.21148                  21788103.9574
        46.2504         42.2504
  20877641.3054   -2083860.19249  -1611461.10948                  20877640.1294
        48.7504         44.5004
  24207877.5394   -2408893.62549  -1865255.39646                  24207877.4964
        40.5004         25.5004
  21755132.9614    2650847.17449   2031516.18648                  21755132.5394
        51.0004         42.0004
  24121869.6484   -3234716.71449  -2511332.53646                  24121870.6914
        42.2504         25.2504
 02  7  1 15 19 30.0000000  0  9G 5G 6G10G15G17G23G18G30G29
  23959996.3284    3748820.12849   2880553.48647                  23959997.8484
        44.7504         31.0004
  20429117.1884   -1837409.66649  -1421424.19648                  20429115.4924
        50.5004         44.0004
  21711504.0554    1610594.85249   1234180.61148                  21711502.6334
        47.2504         43.0004
  22570774.6804   -3850335.57349  -2973005.10047                  22570774.9064
        48.5004         35.7504
  21780953.8364   -3038916.53349  -2347239.03648                  21780952.6684
        47.0004         41.5004
  20873218.7504   -2107100.35349  -1629570.33448                  20873217.4734
        50.7504         44.5004
  24195291.0864   -2475036.07949  -1916794.97347                  24195290.9804
        42.2504         26.2504
  21761536.2114    2684497.11249   2057736.89448                  21761535.6484
        51.0004         41.7504
  24113174.8914   -3280405.32049  -2546934.04347                  24113175.8754
        42.0004         26.0004
 02  7  1 15 19 45.0000000  0  9G 5G 6G10G15G17G23G18G30G29
  23968343.2894    3792683.40749   2914732.62447                  23968344.6094
        44.7504         31.0004
  20424938.7974   -1859366.76049  -1438533.62748                  20424937.1884
        51.0004         43.5004
  21715697.9304    1632633.20549   1251353.33848                  21715696.7544
        47.7504         42.5004
  22561697.4614   -3898038.14949  -3010175.91947                  22561697.7934
        48.0004         36.0004
  21773805.1094   -3076480.94149  -2376509.99448                  21773804.6914
        46.2504         41.5004
  20868813.8754   -2130249.31249  -1647608.47048                  20868812.4534
        49.5004         44.7504
  24182700.5474   -2541197.99849  -1968349.69446                  24182700.2424
        41.0004         24.5004
  21767947.8364    2718188.74449   2083990.07748                  21767947.3524
        51.0004         41.5004
  24104481.6644   -3326086.95649  -2582530.05246                  24104483.4144
        41.5004         25.5004
 02  7  1 15 20  0.0000000  0  9G 5G 6G10G15G17G23G18G30G29
  23976685.7034    3836521.21949   2948891.90747                  23976686.4184
        44.5004         30.2504
  20420769.5234   -1881277.78949  -1455607.16048                  20420768.1294
        49.0004         44.0004
  21719906.6334    1654751.00449   1268587.97148                  21719905.5044
        47.7504         42.7504
  22552622.5474   -3945726.45049  -3047335.61247                  22552622.6334
        48.7504         36.2504
  21766660.1644   -3114027.10249  -2405766.73048                  21766659.5044
        46.7504         41.7504
  20864426.7664   -2153304.07749  -1665573.23248                  20864425.6564
        51.5004         45.0004
  24170107.0314   -2607376.15549  -2019917.06746                  24170106.7504
        41.0004         25.0004
  21774367.3594    2751924.58249   2110277.70948                  21774367.0744
        51.0004         42.0004
  24095790.8284   -3371758.38949  -2618118.17346                  24095791.6294
        41.5004         25.0004
 02  7  1 15 20 15.0000000  0  9G 5G 6G10G15G17G23G18G30G29
  23985023.1174    3880336.61849   2983033.74047                  23985024.1254
        44.0004         30.5004
  20416609.5784   -1903139.18149  -1472642.00548                  20416607.8164
        51.0004         43.7504
  21724131.3984    1676951.33049   1285886.90848                  21724130.1604
        48.7504         42.5004
  22543550.8444   -3993397.03249  -3084481.48947                  22543550.9224
        48.0004         36.5004
  21759519.7114   -3151551.76249  -2435006.71448                  21759518.7544
        46.5004         41.7504
  20860058.1484   -2176261.17249  -1683461.85948                  20860056.8794
        51.5004         45.0004
  24157512.1334   -2673566.88049  -2071494.22547                  24157511.4924
        41.2504         25.7504
  21780796.3364    2785707.70249   2136602.20148                  21780795.4964
        52.0004         42.0004
  24087102.5944   -3417415.76249  -2653695.31146                  24087103.7154
        41.2504         25.5004
 02  7  1 15 20 30.0000000  0  9G 5G 6G10G15G17G23G18G30G29
  23993356.1564    3924123.23749   3017153.13447                  23993356.7344
        44.5004         29.5004
  20412457.3984   -1924956.77649  -1489642.73448                  20412456.2304
        50.5004         43.7504
  21728370.2504    1699227.89849   1303245.25948                  21728368.9844
        47.0004         42.5004
  22534481.6804   -4041055.88649  -3121618.24247                  22534481.4104
        48.5004         36.7504
  21752381.8674   -3189060.73549  -2464234.48348                  21752381.0664
        47.0004         42.0004
  20855707.1174   -2199126.48149  -1701278.99248                  20855705.7704
        51.0004         44.7504
  24144913.1094   -2739775.83049  -2123085.57847                  24144912.2304
        41.0004         25.7504
  21787232.6644    2819531.78749   2162958.59748                  21787232.1214
        51.0004         41.5004
  24078415.8284   -3463064.67749  -2689265.83447                  24078417.4654
        41.2504         26.7504
 02  7  1 15 20 45.0000000  0  9G 5G 6G10G15G17G23G18G30G29
  24001683.9844    3967886.03249   3051253.93847                  24001685.2304
        44.2504         29.7504
  20408315.3204   -1946725.09649  -1506605.06348                  20408313.5784
        50.0004         43.7504
  21732625.0704    1721585.69549   1320666.90148                  21732623.9694
        49.7504         42.5004
  22525415.7664   -4088697.65549  -3158741.68247                  22525415.7624
        49.5004         36.5004
  21745248.2114   -3226548.77149  -2493445.92548                  21745247.0634
        46.5004         41.7504
  20851374.2424   -2221894.72749  -1719020.48048                  20851372.7304
        51.0004         45.0004
  24132311.3984   -2805997.38149  -2174686.79246                  24132310.7624
        40.7504         25.5004
  21793678.0944    2853401.71249   2189350.72048                  21793677.5474
        51.0004         41.7504
  24069731.2344   -3508699.55249  -2724825.43146                  24069732.9264
        41.5004         25.5004
 02  7  1 15 21  0.0000000  0  9G 5G 6G10G15G17G23G18G30G29
  24010006.6564    4011622.87349   3085334.55847                  24010007.3834
        44.5004         29.0004
  20404181.9534   -1968445.78149  -1523530.27048                  20404180.3834
        50.5004         43.7504
  21736894.6484    1744022.62349   1338150.20448                  21736893.6294
        48.5004         42.5004
  22516352.9064   -4136324.04749  -3195853.12447                  22516353.0634
        48.0004         36.5004
  21738117.9384   -3264017.76049  -2522642.52048                  21738117.4964
        47.2504         42.2504
  20847059.5474   -2244567.65949  -1736687.68948                  20847058.0784
        51.0004         45.0004
  24119706.5234   -2872233.16649  -2226299.04846                  24119705.9534
        42.0004         25.2504
  21800131.5474    2887315.36449   2215776.91348                  21800131.1174
        50.7504         41.5004
  24061049.8134   -3554321.71349  -2760375.13746                  24061051.4144
        42.0004         24.5004
 02  7  1 15 21 15.0000000  0  9G 5G 6G10G15G17G23G18G30G29
  24018323.9304    4055327.91649   3119390.41347                  24018324.1564
        45.5004         29.7504
  20400056.4384   -1990124.15049  -1540422.51448                  20400054.8984
        49.0004         43.5004
  21741178.0634    1766532.84449   1355690.62248                  21741176.9774
        48.2504         42.2504
  22507291.8834   -4183940.52749  -3232956.85547                  22507291.7034
        48.5004         37.0004
  21730990.7814   -3301473.27749  -2551828.62548                  21730990.0634
        49.0004         42.0004
  20842762.3134   -2267150.71649  -1754284.88548                  20842760.8594
        51.5004         45.2504
  24107098.7344   -2938488.34549  -2277926.41846                  24107098.0274
        40.0004         24.7504
  21806592.4064    2921266.87549   2242232.60748                  21806592.2074
        50.7504         41.7504
  24052369.3364   -3599936.40949  -2795919.03346                  24052370.4534
        42.2504         25.0004
 02  7  1 15 21 30.0000000  0  9G 5G 6G10G15G17G23G18G30G29
  24026635.3204    4099004.82549   3153424.31547                  24026635.5274
        44.7504         29.2504
  20395940.1884   -2011756.06249  -1557278.55948                  20395938.4844
        48.0004         43.7504
  21745476.1414    1789120.07049   1373291.04248                  21745475.5944
        48.5004         42.7504
  22498233.3204   -4231543.14149  -3270049.78047                  22498233.0394
        48.5004         36.7504
  21723865.8674   -3338911.21449  -2581001.03448                  21723865.6484
        47.7504         42.2504
  20838483.0394   -2289639.89249  -1771808.90648                  20838481.1954
        48.2504         44.7504
  24094488.2424   -3004758.71549  -2329565.64647                  24094487.3554
        40.5004         26.5004
  21813060.9844    2955259.81649   2268720.58348                  21813060.6914
        50.7504         41.7504
  24043691.9844   -3645539.27849  -2831453.69446                  24043692.9304
        42.0004         25.0004
 02  7  1 15 21 45.0000000  0  9G 5G 6G10G15G17G23G18G30G29
  24034942.2504    4142659.16049   3187440.63847                  24034943.1054
        45.5004         29.2504
  20391833.9844   -2033335.45749  -1574093.66548                  20391832.0824
        48.0004         43.5004
  21749790.2194    1811789.65349   1390955.63448                  21749789.6254
        48.2504         42.7504
  22489178.4774   -4279125.96549  -3307127.28147                  22489179.0474
        48.2504         36.5004
  21716746.2344   -3376325.81249  -2610155.26848                  21716745.8834
        47.5004         42.2504
  20834222.6174   -2312029.31649  -1789255.21448                  20834221.1054
        48.0004         45.0004
  24081876.2734   -3071038.06549  -2381211.87847                  24081875.8554
        40.2504         28.5004
  21819538.2664    2989299.82049   2295245.23448                  21819537.9574
        50.0004         41.7504
  24035017.1564   -3691124.06949  -2866974.27646                  24035018.6684
        42.5004         24.2504
 02  7  1 15 22  0.0000000  0  9G 5G 6G10G15G17G23G18G30G29
  24043243.5164    4186283.27349   3221433.43247                  24043244.4184
        44.5004         30.5004
  20387735.8834   -2054869.50149  -1590873.44548                  20387734.5594
        49.2504         43.2504
  21754118.2894    1834533.96749   1408678.45348                  21754117.6884
        47.7504         42.5004
  22480126.4224   -4326696.26749  -3344195.02447                  22480126.1564
        48.7504         37.0004
  21709629.8134   -3413724.41449  -2639297.01048                  21709628.8364
        46.5004         43.0004
  20829979.2974   -2334326.23849  -1806629.43348                  20829977.9024
        51.0004         45.5004
  24069260.0634   -3137333.42549  -2432870.54747                  24069259.6994
        40.7504         29.5004
  21826023.7034    3023379.05249   2321800.45348                  21826023.5004
        51.0004         42.0004
  24026344.8754   -3736697.86949  -2902486.31846                  24026346.5004
        42.5004         25.2504
 02  7  1 15 22 15.0000000  0  9G 5G 6G10G15G17G23G18G30G29
  24051539.3914    4229879.53849   3255404.48347                  24051540.6414
        44.0004         30.0004
  20383647.4144   -2076355.32649  -1607615.64448                  20383645.8674
        51.0004         43.5004
  21758460.9384    1857355.55049   1426461.50348                  21758459.6994
        47.5004         42.5004
  22471077.1884   -4374251.45749  -3381250.98647                  22471076.6684
        48.2504         36.7504
  21702516.5004   -3451104.26149  -2668424.15348                  21702516.2704
        47.5004         43.0004
  20825754.5944   -2356527.99549  -1823929.49948                  20825753.4184
        51.5004         45.0004
  24056641.6024   -3203641.76449  -2484539.34147                  24056642.0594
        40.7504         28.5004
  21832516.6094    3057499.86449   2348388.07348                  21832516.3954
        50.2504         41.5004
  24017675.5704   -3782257.46049  -2937987.27547                  24017676.8754
        42.5004         26.2504
 02  7  1 15 22 30.0000000  0  9G 5G 6G10G15G17G23G18G30G29
  24059830.2814    4273448.58549   3289354.36547                  24059831.2814
        43.7504         28.5004
  20379568.1724   -2097791.84949  -1624319.42548                  20379566.6174
        49.5004         44.0004
  21762818.7034    1880254.88349   1444305.12248                  21762817.6684
        48.0004         42.5004
  22462030.2344   -4421790.54849  -3418294.41547                  22462030.3524
        47.7504         37.0004
  21695407.0784   -3488464.51349  -2697536.02948                  21695406.2504
        46.5004         42.2504
  20821547.8984   -2378633.55049  -1841154.59948                  20821546.2814
        50.7504         44.7504
  24044021.9304   -3269961.94849  -2536217.36147                  24044020.9774
        40.7504         29.0004
  21839017.5394    3091663.05349   2375008.71548                  21839017.3714
        51.0004         41.2504
  24009008.4224   -3827801.68449  -2973476.20947                  24009009.5434
        43.5004         26.7504
 02  7  1 15 22 45.0000000  0  9G 5G 6G10G15G17G23G18G30G29
  24068116.1024    4316987.01349   3323280.33547                  24068117.2974
        43.5004         29.2504
  20375497.9144   -2119181.90149  -1640987.00048                  20375496.7934
        50.0004         43.2504
  21767190.2974    1903228.72449   1462206.79948                  21767189.2074
        47.0004         42.2504
  22452986.8364   -4469316.47649  -3455327.56747                  22452986.7154
        47.5004         37.0004
  21688301.0634   -3525808.09149  -2726634.91348                  21688300.3054
        47.0004         42.5004
  20817359.2894   -2400645.91449  -1858307.08048                  20817357.9454
        51.5004         45.0004
  24031398.8594   -3336296.68349  -2587906.75047                  24031398.5434
        41.0004         29.0004
  21845526.0314    3125864.96449   2401659.52748                  21845525.6484
        50.2504         41.0004
  24000343.9774   -3873333.11249  -3008955.22447                  24000345.4064
        42.7504         27.0004
 02  7  1 15 23  0.0000000  0  9G 5G 6G10G15G17G23G18G30G29
  24076394.9454    4360492.64949   3357180.78147                  24076395.9304
        43.7504         28.0004
  20371435.8284   -2140527.18949  -1657619.69948                  20371434.2154
        50.5004         43.2504
  21771576.2894    1926274.82249   1480164.77848                  21771575.1484
        47.7504         42.5004
  22443944.9304   -4516831.00949  -3492351.86347                  22443944.6804
        48.5004         36.7504
  21681197.2664   -3563136.99549  -2755722.36348                  21681197.1644
        47.0004         43.0004
  20813187.4774   -2422566.88449  -1875388.36848                  20813186.4844
        50.7504         45.0004
  24018772.6724   -3402647.60749  -2639608.75647                  24018771.5164
        41.5004         28.0004
  21852041.5474    3160103.57149   2428338.92648                  21852041.1844
        51.2504         41.0004
  23991681.5394   -3918853.20149  -3044425.38247                  23991683.1644
        44.0004         28.0004
 02  7  1 15 23 15.0000000  0  9G 5G 6G10G15G17G23G18G30G29
  24084667.3134    4403965.87949   3391055.99647                  24084667.9804
        42.7504         26.5004
  20367382.8134   -2161826.81349  -1674216.80348                  20367380.9614
        50.0004         43.2504
  21775975.6724    1949393.55349   1498179.35848                  21775974.6294
        47.5004         42.2504
  22434905.8364   -4564333.36549  -3529366.66247                  22434904.8794
        48.0004         36.7504
  21674096.9454   -3600450.38749  -2784797.71048                  21674096.5904
        46.7504         43.0004
  20809033.8834   -2444395.75649  -1892397.88448                  20809032.7974
        50.7504         45.0004
  24006142.6414   -3469013.72149  -2691322.56847                  24006142.4734
        40.7504         28.7504
  21858563.8984    3194379.07049   2455047.08248                  21858563.5204
        50.5004         41.2504
  23983022.7504   -3964360.88549  -3079885.88847                  23983023.8834
        45.0004         29.5004
 02  7  1 15 23 30.0000000  0  9G 5G 6G10G15G17G23G18G30G29
  24092933.0554    4447402.74949   3424902.88947                  24092934.6454
        44.5004         27.7504
  20363337.2504   -2183084.18449  -1690780.98248                  20363335.8284
        50.2504         43.7504
  21780388.1254    1972580.99949   1516247.48348                  21780386.7274
        47.0004         42.5004
  22425867.2584   -4611827.16649  -3566374.79347                  22425867.4734
        48.0004         37.5004
  21666998.3914   -3637751.98849  -2813863.87848                  21666997.7974
        46.5004         42.7504
  20804896.6254   -2466136.13049  -1909338.41748                  20804895.3164
        50.5004         45.2504
  23993511.0084   -3535398.20449  -2743050.67747                  23993510.1844
        41.5004         31.2504
  21865092.6174    3228687.65249   2481781.02048                  21865092.3524
        50.0004         41.5004
  23974364.7194   -4009859.50149  -3115339.32247                  23974365.3794
        44.2504         27.7504
 02  7  1 15 23 45.0000000  0  9G 5G 6G10G15G17G23G18G30G29
  24101193.3984    4490812.80249   3458728.82547                  24101194.4454
        43.0004         27.5004
  20359302.5234   -2204289.36849  -1707304.51148                  20359301.2154
        49.7504         43.2504
  21784815.5394    1995846.63049   1534376.53548                  21784813.9884
        47.0004         42.0004
  22416832.9534   -4659302.59849  -3603368.61447                  22416833.3134
        48.5004         37.0004
  21659904.7584   -3675031.90749  -2842913.16448                  21659903.4304
        46.5004         42.2504
  20800778.3984   -2487778.05849  -1926202.27548                  20800777.0664
        48.5004         44.7504
  23980876.7974   -3601791.01149  -2794785.32447                  23980876.1724
        41.0004         29.5004
  21871629.4614    3263038.74349   2508548.06848                  21871628.7384
        50.2504         40.7504
  23965709.9454   -4055338.91049  -3150777.77947                  23965710.7074
        45.0004         29.2504
 02  7  1 15 24  0.0000000  0  9G 5G 6G10G15G17G23G18G30G29
  24109450.2894    4534200.55749   3492537.41747                  24109451.0204
        42.5004         27.7504
  20355278.1884   -2225437.25349  -1723783.38048                  20355276.4224
        50.0004         43.2504
  21789258.3444    2019195.00349   1552570.04948                  21789257.3954
        47.5004         42.0004
  22407803.5704   -4706754.66549  -3640344.22847                  22407803.2424
        48.5004         36.7504
  21652815.3914   -3712285.33149  -2871941.79348                  21652814.4924
        47.2504         42.2504
  20796679.6564   -2509316.66949  -1942985.59048                  20796678.4454
        50.2504         44.7504
  23968242.0164   -3668186.99549  -2846522.46647                  23968241.3954
        40.7504         28.7504
  21878175.5084    3297436.90249   2535351.79648                  21878175.0784
        50.5004         41.2504
  23957059.3984   -4100793.62449  -3186197.02747                  23957060.7424
        45.0004         27.5004
 02  7  1 15 24 15.0000000  0  9G 5G 6G10G15G17G23G18G30G29
  24117701.3984    4577557.35149   3526321.89847                  24117701.4534
        43.7504         28.2504
  20351262.9224   -2246536.02649  -1740223.98248                  20351261.6094
        50.0004         43.2504
  21793715.5784    2042617.48749   1570821.33148                  21793715.0594
        47.5004         42.0004
  22398776.1804   -4754191.72849  -3677308.13947                  22398776.6914
        48.7504         37.2504
  21645729.7584   -3749520.67649  -2900956.33448                  21645729.2894
        47.0004         42.2504
  20792599.1024   -2530760.33149  -1959694.93548                  20792597.5084
        50.7504         45.0004
  23955604.3364   -3734594.25349  -2898268.28147                  23955605.1884
        40.2504         30.5004
  21884728.6094    3331873.32349   2562185.35248                  21884727.8674
        50.0004         41.0004
  23948413.2894   -4146231.86449  -3221603.43547                  23948413.5234
        44.7504         28.7504
 02  7  1 15 24 30.0000000  0  9G 5G 6G10G15G17G23G18G30G29
  24125944.4064    4620876.53849   3560077.05547                  24125944.8134
        43.2504         28.2504
  20347256.1564   -2267591.93949  -1756631.18148                  20347254.5434
        50.7504         43.5004
  21798185.4534    2066107.38449   1589125.13548                  21798184.9224
        47.7504         42.5004
  22389750.7504   -4801620.11349  -3714265.28547                  22389750.5864
        47.7504         37.7504
  21638646.6024   -3786744.18949  -2929961.63948                  21638645.3834
        46.5004         42.0004
  20788535.4224   -2552115.37549  -1976335.22648                  20788534.3324
        50.7504         45.0004
  23942964.4844   -3801018.84849  -2950027.66547                  23942964.2664
        40.5004         31.7504
  21891287.3914    3366341.38349   2589043.55548                  21891287.1054
        50.2504         41.2504
  23939768.4694   -4191659.58349  -3257001.61647                  23939769.4304
        44.5004         27.0004
 02  7  1 15 24 45.0000000  0  9G 5G 6G10G15G17G23G18G30G29
  24134181.7734    4664165.16349   3593808.38647                  24134182.5744
        43.2504         26.7504
  20343259.1174   -2288597.49349  -1772999.15548                  20343257.1804
        49.7504         44.0004
  21802669.4774    2089671.63549   1607486.88148                  21802668.7854
        47.2504         42.5004
  22380728.5634   -4849032.47149  -3751209.96347                  22380728.5594
        48.2504         37.2504
  21631566.8834   -3823948.56549  -2958952.05448                  21631566.2384
        47.5004         42.2504
  20784489.9144   -2573374.40349  -1992900.69748                  20784488.2274
        51.5004         45.0004
  23930322.9694   -3867453.18849  -3001794.64247                  23930322.7304
        40.5004         29.7504
  21897854.1954    3400847.94149   2615931.75348                  21897853.2544
        51.0004         41.5004
  23931127.4454   -4237069.07749  -3292385.60247                  23931128.4884
        44.7504         29.5004
 02  7  1 15 25  0.0000000  0  9G 5G 6G10G15G17G23G18G30G29
  24142414.1884    4707428.17349   3627519.77447                  24142415.2974
        42.7504         27.5004
  20339272.4614   -2309547.15749  -1789323.56048                  20339270.5634
        50.7504         43.5004
  21807168.9224    2113315.29849   1625910.49548                  21807168.3954
        47.7504         42.0004
  22371710.7114   -4896423.48249  -3788137.99547                  22371710.6994
        48.7504         37.5004
  21624491.2734   -3861128.55449  -2987923.45648                  21624490.6804
        46.5004         42.0004
  20780463.9924   -2594532.08549  -2009387.19648                  20780462.4414
        50.7504         44.7504
  23917679.5554   -3933891.60549  -3053564.77147                  23917679.7274
        41.2504         30.5004
  21904428.5314    3435397.98749   2642853.83648                  21904428.0434
        51.0004         41.0004
  23922490.7034   -4282454.63749  -3327750.94947                  23922492.3714
        44.7504         29.5004
 02  7  1 15 25 15.0000000  0  9G 5G 6G10G15G17G23G18G30G29
  24150643.0554    4750666.28049   3661211.76647                  24150644.0474
        42.5004         27.7504
  20335296.9224   -2330439.68649  -1805603.45848                  20335294.8484
        50.0004         43.2504
  21811683.3914    2137039.13949   1644396.58048                  21811682.6334
        47.5004         42.0004
  22362696.5314   -4943792.11549  -3825048.60347                  22362696.3954
        48.0004         37.2504
  21617421.0634   -3898283.09549  -3016875.04148                  21617420.5124
        48.0004         41.7504
  20776457.2664   -2615587.32249  -2025793.88648                  20776455.6804
        51.2504         44.7504
  23905036.0084   -4000332.78149  -3105337.08647                  23905035.6844
        40.5004         29.7504
  21911011.7734    3469992.23449   2669810.34348                  21911010.8634
        50.7504         41.0004
  23913859.4694   -4327814.87449  -3363096.56247                  23913860.2154
        45.5004         30.0004
 02  7  1 15 25 30.0000000  0  9G 5G 6G10G15G17G23G18G30G29
  24158864.3754    4793874.44749   3694880.40347                  24158866.1174
        42.0004         27.2504
  20331330.9224   -2351279.72949  -1821842.45048                  20331329.6054
        50.5004         43.5004
  21816212.0004    2160838.08349   1662941.19548                  21816211.6374
        47.2504         41.7504
  22353685.8284   -4991142.93849  -3861945.30847                  22353686.2464
        48.7504         37.0004
  21610354.7034   -3935416.95249  -3045810.50748                  21610353.7384
        48.5004         42.2504
  20772468.8984   -2636544.76949  -2042124.35548                  20772467.4964
        52.0004         44.7504
  23892391.4454   -4066781.16849  -3157115.02647                  23892391.1604
        40.0004         30.0004
  21917602.3284    3504625.59949   2696797.35648                  21917601.4494
        50.5004         40.5004
  23905230.9924   -4373154.09649  -3398425.80947                  23905232.3754
        45.0004         29.5004
 02  7  1 15 25 45.0000000  0  9G 5G 6G10G15G17G23G18G30G29
  24167080.5394    4837050.22149   3728523.77847                  24167082.1134
        41.7504         27.5004
  20327374.9694   -2372069.16449  -1838042.00148                  20327373.5314
        52.0004         43.5004
  21820754.6484    2184709.60549   1681542.37748                  21820753.8484
        48.0004         41.5004
  22344678.2734   -5038478.05649  -3898829.79347                  22344678.5514
        48.5004         38.0004
  21603292.1884   -3972532.21649  -3074731.47048                  21603291.3094
        49.5004         42.2504
  20768499.0084   -2657406.60049  -2058380.32248                  20768497.8094
        51.0004         45.0004
  23879744.4144   -4133238.57749  -3208899.95047                  23879744.7034
        40.0004         30.0004
  21924199.6334    3539295.57449   2723812.88948                  21924199.2344
        51.0004         40.2504
  23896607.1174   -4418474.19149  -3433740.15347                  23896607.8874
        45.2504         29.5004
 02  7  1 15 26  0.0000000  0  9G 5G 6G10G15G17G23G18G30G29
  24175291.7344    4880197.53149   3762145.00047                  24175292.5434
        42.0004         27.0004
  20323429.0944   -2392803.61549  -1854198.72048                  20323427.7704
        50.7504         43.2504
  21825312.0944    2208657.60549   1700203.13248                  21825311.2584
        47.2504         42.0004
  22335674.7734   -5085793.23149  -3935698.72947                  22335674.8554
        49.0004         37.5004
  21596233.7734   -4009624.71149  -3103634.70448                  21596232.2424
        49.2504         42.0004
  20764548.3134   -2678168.65249  -2074558.55248                  20764547.1094
        52.2504         45.0004
  23867097.6174   -4199700.49549  -3260688.38847                  23867097.5354
        41.0004         30.5004
  21930804.9844    3574006.09849   2750860.01748                  21930804.3204
        50.7504         40.0004
  23887987.7974   -4463770.45949  -3469035.88347                  23887988.1914
        44.7504         29.0004
 02  7  1 15 26 15.0000000  0  9G 5G 6G10G15G17G23G18G30G29
  24183496.8524    4923315.05049   3795743.05047                  24183497.7274
        42.5004         27.7504
  20319493.8054   -2413483.86349  -1870313.19748                  20319492.0944
        50.7504         43.7504
  21829883.2194    2232680.82349   1718922.50548                  21829882.3594
        47.7504         41.7504
  22326674.4534   -5133089.42649  -3972552.88847                  22326674.4024
        48.7504         38.0004
  21589179.2504   -4046695.42549  -3132520.96048                  21589178.3524
        49.0004         42.2504
  20760615.9384   -2698831.85749  -2090659.72348                  20760614.6994
        51.0004         44.7504
  23854449.8594   -4266167.61649  -3312480.90247                  23854449.3594
        40.5004         30.5004
  21937417.8984    3608755.82749   2777937.70548                  21937417.2704
        50.0004         40.7504
  23879372.0784   -4509043.58349  -3504313.62547                  23879373.3954
        43.5004         30.2504
 02  7  1 15 26 30.0000000  0  9G 5G 6G10G15G17G23G18G30G29
  24191695.0314    4966397.35449   3829313.63947                  24191695.8164
        42.5004         27.7504
  20315567.8834   -2434114.88449  -1886389.32148                  20315566.4734
        50.7504         43.7504
  21834467.9924    2256773.81149   1737696.24748                  21834467.4304
        47.7504         42.2504
  22317677.1804   -5180371.69149  -4009396.17647                  22317676.8014
        49.0004         37.2504
  21582128.0864   -4083749.44649  -3161394.21048                  21582127.2504
        49.0004         42.5004
  20756701.7194   -2719401.29649  -2106687.86848                  20756700.5234
        50.5004         44.7504
  23841798.6954   -4332644.79049  -3364281.24647                  23841798.9304
        39.5004         29.2504
  21944036.8054    3643539.23649   2805041.64148                  21944036.0124
        50.7504         40.7504
  23870760.6484   -4554298.22849  -3539576.95747                  23870762.0594
        44.2504         29.2504
 02  7  1 15 26 45.0000000  0  9G 5G 6G10G15G17G23G18G30G29
  24199886.3134    5009444.14049   3862856.54547                  24199887.9304
        42.7504         28.5004
  20311651.4304   -2454696.41049  -1902426.87848                  20311649.4384
        50.2504         43.2504
  21839066.1644    2280936.27049   1756524.11948                  21839065.0984
        47.0004         42.5004
  22308682.2814   -5227639.89549  -4046228.51847                  22308682.0634
        48.7504         38.0004
  21575079.9844   -4120786.69149  -3190254.38748                  21575079.2384
        49.5004         42.5004
  20752805.4304   -2739876.85249  -2122642.84748                  20752804.1414
        51.7504         44.7504
  23829146.4144   -4399131.75949  -3416089.22047                  23829146.9654
        40.2504         29.0004
  21950661.9844    3678356.04249   2832171.58248                  21950661.4964
        50.5004         40.2504
  23862152.9844   -4599534.12149  -3574825.68147                  23862153.8554
        44.7504         30.0004
 02  7  1 15 27  0.0000000  0  9G 5G 6G10G15G17G23G18G30G29
  24208072.9454    5052457.25749   3896373.18547                  24208073.2544
        43.2504         28.5004
  20307745.1094   -2475226.10749  -1918424.04548                  20307743.5314
        51.5004         43.0004
  21843677.7664    2305170.06049   1775407.57648                  21843676.9384
        48.0004         42.0004
  22299690.6024   -5274891.88249  -4083048.22547                  22299690.2424
        47.7504         37.7504
  21568035.8914   -4157805.07849  -3219099.87448                  21568035.2234
        49.5004         42.0004
  20748927.6254   -2760256.41349  -2138523.02548                  20748926.1054
        52.0004         44.7504
  23816493.5634   -4465625.89649  -3467902.79247                  23816493.1054
        40.5004         29.2504
  21957294.2424    3713208.08749   2859328.99148                  21957293.6564
        50.5004         40.7504
  23853548.8594   -4644748.67449  -3610057.78747                  23853549.3954
        43.7504         30.2504
 02  7  1 15 27 15.0000000  0  9G 5G 6G10G15G17G23G18G30G29
  24216251.8364    5095445.61049   3929870.53847                  24216253.3364
        42.2504         28.7504
  20303849.9224   -2495694.61849  -1934373.53548                  20303848.8284
        51.5004         43.2504
  21848304.6414    2329483.99749   1794353.48348                  21848304.2154
        47.7504         42.5004
  22290703.3834   -5322118.43849  -4119848.09647                  22290703.6804
        48.5004         38.2504
  21560996.7424   -4194795.43649  -3247923.51948                  21560995.8364
        49.5004         42.0004
  20745069.3594   -2780530.77449  -2154321.22348                  20745068.3284
        51.5004         44.7504
  23803840.9454   -4532117.70549  -3519714.56447                  23803840.2074
        40.5004         29.2504
  21963934.6954    3748104.23249   2886520.77048                  21963934.4964
        50.2504         40.5004
  23844950.4384   -4689932.26849  -3645265.75647                  23844951.4774
        44.7504         29.7504
 02  7  1 15 27 30.0000000  0  9G 5G 6G10G15G17G23G18G30G29
  24224426.7584    5138402.90949   3963343.71447                  24224428.2504
        42.5004         27.7504
  20299965.2734   -2516107.83149  -1950279.92848                  20299963.7034
        51.5004         43.2504
  21852945.5394    2353871.74349   1813356.90948                  21852944.4614
        47.7504         42.0004
  22281719.8594   -5369325.55749  -4156632.84647                  22281719.8874
        48.5004         37.7504
  21553962.0864   -4231763.76249  -3276730.00148                  21553960.8714
        50.2504         42.5004
  20741230.2344   -2800705.91149  -2170042.11348                  20741229.0084
        51.7504         44.7504
  23791186.7664   -4598613.10749  -3571529.08547                  23791186.4844
        41.5004         30.0004
  21970582.8284    3783037.96549   2913741.83248                  21970582.4384
        51.0004         40.0004
  23836356.8594   -4735090.57649  -3680454.01247                  23836358.0704
        43.5004         30.0004
 02  7  1 15 27 45.0000000  0  9G 5G 6G10G15G17G23G18G30G29
  24232595.7584    5181333.58749   3996796.13647                  24232597.1844
        42.5004         29.0004
  20296092.3284   -2536460.79349  -1966139.38648                  20296090.7114
        51.0004         43.2504
  21857601.3054    2378337.79949   1832421.35248                  21857600.0004
        47.5004         42.0004
  22272741.0554   -5416508.50349  -4193398.75347                  22272741.6454
        49.0004         37.2504
  21546932.2194   -4268705.33049  -3305515.62048                  21546931.5394
        50.0004         42.2504
  20737410.7194   -2820777.06049  -2185681.95648                  20737409.6054
        51.5004         44.7504
  23778533.6254   -4665106.87649  -3623342.37547                  23778533.8404
        42.2504         30.0004
  21977238.2274    3818013.82649   2940995.72348                  21977237.6724
        50.0004         40.2504
  23827769.7034   -4780218.58149  -3715618.64947                  23827770.6954
        44.7504         30.0004
 02  7  1 15 28  0.0000000  0  9G 5G 6G10G15G17G23G18G30G29
  24240759.0554    5224227.58249   4030219.96547                  24240760.2704
        44.0004         28.7504
  20292228.8204   -2556763.00649  -1981959.30248                  20292227.3094
        51.7504         43.2504
  21862269.6644    2402872.18149   1851539.03948                  21862268.4964
        47.5004         41.7504
  22263765.5634   -5463676.82149  -4230153.25047                  22263765.6134
        49.0004         38.5004
  21539905.5864   -4305629.66249  -3334287.81848                  21539905.1294
        50.0004         42.5004
  20733609.1644   -2840753.82549  -2201248.27248                  20733608.1294
        50.7504         44.7504
  23765878.6954   -4731608.47349  -3675161.76347                  23765878.3954
        42.0004         29.7504
  21983900.0704    3853021.67749   2968274.53848                  21983899.7544
        50.0004         40.7504
  23819186.0554   -4825325.49949  -3750766.85647                  23819186.9804
        44.5004         30.2504
 02  7  1 15 28 15.0000000  0  8G 6G10G15G17G23G18G30G29
  20288374.8834   -2577015.28349  -1997740.28548                  20288373.3444
        51.0004         43.2504
  21866951.4224    2427473.45449   1870708.84748                  21866950.0904
        47.5004         42.0004
  22254792.5634   -5510831.39049  -4266897.03947                  22254792.5744
        48.7504         38.5004
  21532882.3134   -4342537.89449  -3363047.46148                  21532881.1884
        50.2504         42.5004
  20729825.7034   -2860637.14449  -2216741.76948                  20729823.6054
        52.0004         44.7504
  23753222.1724   -4798118.57949  -3726987.78147                  23753221.0124
        42.5004         29.2504
  21990567.4614    3888060.28849   2995577.31648                  21990567.3094
        50.2504         39.7504
  23810606.4064   -4870411.92249  -3785899.10847                  23810606.6174
        45.0004         30.0004
 02  7  1 15 28 30.0000000  0  8G 6G10G15G17G23G18G30G29
  20284531.1174   -2597215.42349  -2013480.66548                  20284529.7114
        51.5004         43.0004
  21871645.6884    2452143.40649   1889932.16048                  21871644.8164
        47.5004         41.2504
  22245822.1484   -5557970.19949  -4303628.55247                  22245821.9224
        48.5004         38.2504
  21525862.4774   -4379428.03049  -3391793.01548                  21525861.1564
        50.2504         42.5004
  20726060.2194   -2880424.98949  -2232160.86248                  20726058.4494
        51.7504         44.7504
  23740564.6564   -4864634.84749  -3778818.62247                  23740563.7154
        43.0004         29.7504
  21997241.6174    3923131.21849   3022905.28548                  21997240.8874
        50.0004         40.0004
  23802029.6564   -4915475.57349  -3821013.64147                  23802031.5594
        44.5004         28.7504
 02  7  1 15 28 45.0000000  0  8G 6G10G15G17G23G18G30G29
  20280697.5164   -2617360.33649  -2029177.99148                  20280695.7074
        51.7504         43.2504
  21876354.0474    2476884.63549   1909211.02648                  21876353.0904
        47.0004         41.2504
  22236855.6024   -5605090.28249  -4340345.47047                  22236855.2774
        48.5004         38.0004
  21518846.2344   -4416297.06349  -3420522.12148                  21518845.4344
        49.0004         43.0004
  20722313.2344   -2900114.45749  -2247503.30848                  20722311.7194
        51.5004         44.7504
  23727906.2194   -4931154.16649  -3830651.82647                  23727905.6684
        43.0004         30.7504
  22003921.8834    3958237.05149   3050260.44548                  22003921.2894
        50.0004         39.7504
  23793459.6094   -4960513.00349  -3856107.68947                  23793460.7934
        43.5004         29.2504
 02  7  1 15 29  0.0000000  0  8G 6G10G15G17G23G18G30G29
  20276875.0864   -2637448.07649  -2044830.78448                  20276873.6844
        52.2504         43.0004
  21881075.4844    2501698.54449   1928546.52048                  21881074.8094
        47.7504         41.7504
  22227892.7274   -5652189.85849  -4377046.40447                  22227892.3284
        49.0004         38.0004
  21511834.2034   -4453143.27049  -3449233.43648                  21511833.8014
        50.0004         42.5004
  20718585.6564   -2919703.79949  -2262767.72148                  20718584.0434
        51.7504         44.5004
  23715247.9144   -4997674.30749  -3882485.66047                  23715247.0084
        44.0004         30.0004
  22010609.1414    3993379.31849   3077644.00648                  22010608.7894
        50.5004         40.0004
  23784894.7734   -5005522.27949  -3891179.83247                  23784896.5474
        44.0004         29.7504
 02  7  1 15 29 15.0000000  0  8G 6G10G15G17G23G18G30G29
  20273062.6334   -2657481.35649  -2060441.13248                  20273061.1954
        51.2504         43.0004
  21885811.5314    2526581.92849   1947936.15048                  21885810.1214
        47.0004         41.7504
  22218933.1484   -5699271.80749  -4413733.63447                  22218933.1764
        49.0004         37.5004
  21504826.6724   -4489969.59249  -3477929.27048                  21504825.8204
        49.2504         43.0004
  20714876.2424   -2939195.84749  -2277956.33248                  20714875.0904
        52.5004         44.7504
  23702588.8834   -5064197.95049  -3934322.24047                  23702588.7074
        44.7504         30.2504
  22017303.0314    4028554.82849   3105053.46248                  22017302.4414
        50.2504         40.5004
  23776335.1564   -5050505.76149  -3926231.87647                  23776335.9614
        44.5004         28.5004
 02  7  1 15 29 30.0000000  0  8G 6G10G15G17G23G18G30G29
  20269261.5314   -2677457.53149  -2076006.99348                  20269260.0634
        51.2504         43.5004
  21890559.7504    2551537.07549   1967381.71048                  21890559.2854
        48.5004         41.5004
  22209977.8134   -5746333.49549  -4450405.03447                  22209977.4024
        48.7504         38.0004
  21497822.9924   -4526773.46849  -3506607.59648                  21497822.6254
        49.7504         42.7504
  20711186.2734   -2958588.12549  -2293067.18648                  20711184.8554
        52.5004         45.0004
  23689929.8754   -5130722.18049  -3986159.24147                  23689929.2154
        44.7504         30.7504
  22024002.9304    4063765.48549   3132490.31448                  22024002.3874
        51.0004         40.5004
  23767780.0004   -5095460.63549  -3961261.60147                  23767781.1764
        43.5004         28.5004
 02  7  1 15 29 45.0000000  0  8G 6G10G15G17G23G18G30G29
  20265470.1644   -2697380.45349  -2091531.33148                  20265468.5314
        52.2504         43.0004
  21895321.5554    2576559.54349   1986879.72448                  21895320.8284
        47.0004         41.5004
  22201024.8594   -5793378.94849  -4487063.80647                  22201024.8444
        48.7504         37.7504
  21490823.0234   -4563558.87849  -3535271.53748                  21490822.5044
        50.7504         43.2504
  20707514.3054   -2977884.68049  -2308103.46148                  20707512.7154
        52.5004         44.7504
  23677269.6094   -5197250.89549  -4037999.76547                  23677269.2774
        45.0004         30.5004
  22030709.5164    4099007.07449   3159951.25748                  22030709.6334
        50.5004         39.7504
  23759230.6094   -5140390.51449  -3996271.84647                  23759231.6884
        44.2504         27.7504
 02  7  1 15 30  0.0000000  0  8G 6G10G15G17G23G18G30G29
  20261689.7664   -2717246.24949  -2107011.18148                  20261688.1414
        51.5004         43.0004
  21900096.7424    2601652.61949   2006432.75048                  21900096.0704
        47.5004         41.7504
  22192076.6254   -5840404.49749  -4523707.06347                  22192076.4804
        49.0004         38.0004
  21483827.2344   -4600322.20449  -3563918.28248                  21483826.9844
        49.5004         43.2504
  20703861.2504   -2997081.80949  -2323062.25848                  20703859.8364
        51.7504         44.5004
  23664609.7814   -5263779.99249  -4089840.58047                  23664608.4804
        45.7504         29.2504
  22037422.6024    4134282.88049   3187438.87148                  22037422.1454
        50.5004         39.5004
  23750686.8594   -5185291.46149  -4031259.58647                  23750687.7034
        44.5004         28.7504
 02  7  1 15 30 15.0000000  0  8G 6G10G15G17G23G18G30G29
  20257920.1724   -2737056.31449  -2122447.60348                  20257918.6334
        50.0004         43.0004
  21904884.6724    2626814.41249   2026039.32148                  21904883.7344
        47.7504         41.5004
  22183131.6024   -5887411.64949  -4560335.98547                  22183131.2734
        49.5004         38.2504
  21476835.5634   -4637064.92849  -3592548.95448                  21476834.7344
        48.7504         42.5004
  20700226.6724   -3016181.03849  -2337944.76448                  20700225.6414
        51.0004         45.0004
  23651949.3364   -5330310.81249  -4141682.74747                  23651948.6994
        44.7504         30.5004
  22044141.5784    4169591.01549   3214951.68048                  22044141.1564
        50.2504         39.5004
  23742147.3134   -5230164.57849  -4066225.60947                  23742148.3484
        43.5004         28.7504
 02  7  1 15 30 30.0000000  0  8G 6G10G15G17G23G18G30G29
  20254161.7274   -2756806.66749  -2137837.49348                  20254160.4494
        48.0004         43.0004
  21909686.3594    2652048.49549   2045702.22448                  21909685.4024
        47.0004         41.7504
  22174190.5944   -5934396.48749  -4596947.53947                  22174190.1804
        47.5004         38.5004
  21469848.3054   -4673783.38649  -3621160.73848                  21469847.4614
        48.7504         43.0004
  20696611.5164   -3035178.48149  -2352747.98048                  20696609.9574
        48.5004         45.0004
  23639289.6094   -5396839.24749  -4193523.06447                  23639289.0084
        44.5004         31.0004
  22050866.5634    4204934.91849   3242492.35748                  22050866.4384
        50.0004         40.0004
  23733614.4224   -5275005.69049  -4101166.70347                  23733614.8324
        43.7504         29.2504
 02  7  1 15 30 45.0000000  0  8G 6G10G15G17G23G18G30G29
  20250413.9614   -2776503.02249  -2153185.30548                  20250411.9964
        48.0004         43.5004
  21914500.8594    2677348.47749   2065416.48248                  21914500.0474
        47.7504         41.7504
  22165252.4774   -5981365.01549  -4633546.35947                  22165252.4884
        48.5004         38.5004
  21462864.4694   -4710483.46449  -3649758.18148                  21462863.5704
        49.7504         42.7504
  20693014.5784   -3054080.24749  -2367476.61748                  20693013.1844
        48.5004         44.7504
  23626628.7894   -5463370.95149  -4245365.90347                  23626627.7464
        44.2504         31.0004
  22057598.3364    4240308.28849   3270055.98448                  22057597.7344
        50.0004         39.7504
  23725085.9064   -5319820.38049  -4136087.20947                  23725086.5084
        44.0004         29.0004
 02  7  1 15 31  0.0000000  0  8G 6G10G15G17G23G18G30G29
  20246675.6884   -2796148.00949  -2168493.09348                  20246673.7774
        50.5004         43.2504
  21919327.2344    2702711.35649   2085179.74148                  21919326.9184
        47.5004         41.2504
  22156317.2424   -6028319.86049  -4670134.53747                  22156317.1414
        48.5004         38.2504
  21455883.4844   -4747167.92349  -3678343.47848                  21455883.0084
        50.2504         43.5004
  20689435.4694   -3072889.02249  -2382132.81548                  20689433.9494
        52.2504         45.0004
  23613967.0084   -5529908.27249  -4297213.14147                  23613966.8754
        45.5004         31.5004
  22064334.8674    4275707.95249   3297640.10948                  22064334.4614
        50.5004         40.0004
  23716563.2974   -5364611.12549  -4170989.06047                  23716563.8634
        43.5004         29.2504
 02  7  1 15 31 15.0000000  0  8G 6G10G15G17G23G18G30G29
  20242946.9614   -2815740.12149  -2183759.66848                  20242945.1054
        51.5004         43.5004
  21924166.3444    2728138.14949   2104992.80748                  21924165.2304
        47.7504         41.0004
  22147385.0864   -6075259.75949  -4706711.04347                  22147384.8874
        48.5004         38.0004
  21448905.8054   -4783835.47549  -3706915.57448                  21448905.1134
        50.0004         42.5004
  20685873.8834   -3091603.47249  -2396715.48948                  20685872.3914
        52.2504         45.2504
  23601304.2584   -5596449.76649  -4349063.62547                  23601304.0744
        45.2504         31.2504
  22071076.8834    4311135.00749   3325245.56948                  22071076.1254
        50.7504         40.2504
  23708044.2584   -5409376.14549  -4205870.86147                  23708045.1994
        44.5004         28.7504
 02  7  1 15 31 30.0000000  0  8G 6G10G15G17G23G18G30G29
  20239230.7814   -2835270.85749  -2198978.43348                  20239228.8834
        51.0004         43.2504
  21929018.4534    2753636.73049   2124861.83248                  21929017.2384
        47.5004         41.0004
  22138456.4924   -6122176.25749  -4743269.33147                  22138457.0004
        48.2504         38.2504
  21441933.2194   -4820477.73549  -3735467.97848                  21441932.0394
        49.7504         42.5004
  20682332.3444   -3110215.31549  -2411218.23248                  20682330.9884
        53.2504         45.0004
  23588642.8984   -5662986.85649  -4400910.68247                  23588642.1134
        45.2504         31.5004
  22077824.4694    4346597.37149   3352878.56048                  22077824.1914
        50.2504         39.7504
  23699532.3054   -5454106.79649  -4240725.90247                  23699533.3794
        42.7504         28.7504
 02  7  1 15 31 45.0000000  0  8G 6G10G15G17G23G18G30G29
  20235524.3364   -2854746.40649  -2214154.17348                  20235522.9924
        52.0004         43.7504
  21933882.9304    2779200.48749   2144781.61548                  21933882.2424
        46.5004         41.2504
  22129532.2974   -6169075.79449  -4779814.39547                  22129531.9804
        48.2504         38.5004
  21434963.9224   -4857101.14249  -3764005.68348                  21434962.8874
        50.5004         42.5004
  20678809.1174   -3128730.90349  -2425645.94448                  20678807.3524
        52.0004         45.0004
  23575981.0704   -5729525.42449  -4452758.88047                  23575980.5554
        45.2504         31.0004
  22084578.2194    4382088.25249   3380533.76248                  22084577.9924
        49.7504         39.5004
  23691025.7424   -5498809.08949  -4275558.81547                  23691026.7304
        43.5004         28.5004
 02  7  1 15 32  0.0000000  0  8G 6G10G15G17G23G18G30G29
  20231829.4454   -2874164.20449  -2229284.92348                  20231827.2774
        52.5004         44.0004
  21938760.0164    2804831.53249   2164753.84448                  21938759.4694
        46.5004         41.0004
  22120611.4614   -6215955.86649  -4816344.30947                  22120611.1134
        48.2504         38.0004
  21427998.3984   -4893703.24249  -3792526.78848                  21427997.9184
        49.5004         43.0004
  20675304.4534   -3147147.72949  -2439996.72248                  20675302.9574
        51.7504         45.2504
  23563319.0864   -5796062.83349  -4504606.16647                  23563318.6764
        45.2504         30.7504
  22091338.0004    4417609.78149   3408212.84048                  22091337.8954
        50.2504         40.0004
  23682525.2034   -5543480.29249  -4310367.51947                  23682525.8794
        44.5004         28.0004
 02  7  1 15 32 15.0000000  0  8G 6G10G15G17G23G18G30G29
  20228145.6254   -2893521.65349  -2244368.65948                  20228143.8094
        52.5004         43.0004
  21943651.1414    2830532.06849   2184780.20348                  21943649.8834
        47.0004         41.2504
  22111694.6804   -6262813.94949  -4852857.07647                  22111694.0354
        49.5004         38.0004
  21421038.1334   -4930281.61849  -3821029.41148                  21421037.4924
        50.2504         43.2504
  20671818.9774   -3165463.41849  -2454268.68848                  20671817.7194
        52.0004         44.5004
  23550658.3834   -5862596.40449  -4556450.47447                  23550657.8914
        43.7504         31.7504
  22098103.7734    4453164.04349   3435917.43247                  22098102.8714
        50.5004         39.2504
  23674030.5704   -5588117.45349  -4345149.68647                  23674031.0234
        45.0004         29.5004
 02  7  1 15 32 30.0000000  0  8G 6G10G15G17G23G18G30G29
  20224473.2974   -2912820.80449  -2259406.95748                  20224471.3984
        51.7504         43.2504
  21948554.0394    2856299.35649   2204858.59348                  21948554.0634
        47.0004         41.0004
  22102781.2424   -6309652.26249  -4889354.44147                  22102781.1374
        48.2504         37.5004
  21414081.4064   -4966838.48049  -3849515.26848                  21414080.6604
        50.5004         43.5004
  20668352.5084   -3183680.23149  -2468463.60148                  20668350.9494
        52.5004         44.5004
  23537997.7274   -5929127.99649  -4608293.23647                  23537997.7774
        45.7504         31.5004
  22104875.0784    4488748.41849   3463645.49148                  22104874.7704
        49.7504         39.5004
  23665542.2894   -5632722.60349  -4379906.88447                  23665543.5664
        44.0004         29.0004
 02  7  1 15 32 45.0000000  0  8G 6G10G15G17G23G18G30G29
  20220811.6954   -2932063.12049  -2274400.96948                  20220809.8634
        52.5004         43.2504
  21953470.1724    2882131.42449   2224987.45948                  21953469.4184
        46.5004         41.2504
  22093871.4144   -6356472.42749  -4925837.66247                  22093871.6374
        47.2504         38.0004
  21407128.5394   -5003375.58449  -3877985.73048                  21407128.3094
        49.5004         43.5004
  20664904.6644   -3201799.77649  -2482582.72848                  20664903.0634
        52.0004         45.0004
  23525337.3674   -5995658.96049  -4660135.50947                  23525336.4614
        43.2504         31.0004
  22111651.8914    4524361.00549   3491395.51847                  22111651.8164
        50.0004         39.2504
  23657059.8914   -5677296.90949  -4414640.07947                  23657061.2664
        44.7504         28.7504
 02  7  1 15 33  0.0000000  0  8G 6G10G15G17G23G18G30G29
  20217161.2974   -2951246.39249  -2289348.97148                  20217159.6804
        51.7504         43.0004
  21958398.2034    2908030.01549   2245168.17748                  21958397.5354
        46.5004         41.0004
  22084965.9534   -6403272.36549  -4962305.11047                  22084965.7624
        47.0004         38.0004
  21400180.0864   -5039890.65349  -3906439.02148                  21400179.1024
        50.0004         43.0004
  20661475.2814   -3219820.01949  -2496624.47048                  20661473.8364
        52.0004         44.7504
  23512677.9064   -6062186.91749  -4711975.42047                  23512676.7894
        43.7504         31.5004
  22118434.9924    4560003.30449   3519168.70848                  22118434.1254
        50.0004         40.0004
  23648584.4384   -5721837.99749  -4449347.40347                  23648584.9454
        44.5004         27.2504
 02  7  1 15 33 15.0000000  0  8G 6G10G15G17G23G18G30G29
  20213521.8134   -2970371.32349  -2304251.50948                  20213520.0044
        50.2504         43.5004
  21963339.5554    2933993.92149   2265399.78148                  21963338.3404
        48.2504         41.0004
  22076064.2894   -6450052.91149  -4998757.46047                  22076064.0944
        47.0004         38.5004
  21393235.4384   -5076384.83249  -3934876.03248                  21393234.4024
        50.0004         42.5004
  20658064.7814   -3237741.86049  -2510589.54248                  20658062.9224
        51.2504         44.7504
  23500018.6334   -6128712.55249  -4763813.52847                  23500017.7384
        43.2504         31.7504
  22125222.5004    4595674.19549   3546964.18547                  22125222.3984
        49.5004         39.0004
  23640114.7194   -5766346.41749  -4484029.26247                  23640116.0044
        43.7504         28.0004
 02  7  1 15 33 30.0000000  0  8G 6G10G15G17G23G18G30G29
  20209893.5004   -2989438.41449  -2319108.98348                  20209891.8244
        50.2504         43.0004
  21968292.2974    2960022.26449   2285681.58848                  21968292.1254
        47.0004         41.0004
  22067165.3674   -6496814.63549  -5035195.14447                  22067165.4654
        47.5004         38.0004
  21386294.6724   -5112858.64149  -3963297.16548                  21386294.2934
        50.2504         43.0004
  20654673.0704   -3255566.02749  -2524478.49348                  20654671.5634
        52.5004         45.0004
  23487359.0474   -6195236.10249  -4815650.01647                  23487358.6094
        44.2504         31.0004
  22132015.8134    4631372.75749   3574781.20748                  22132015.7704
        50.0004         39.5004
  23631651.6414   -5810822.34149  -4518685.78247                  23631651.8954
        44.2504         29.0004
 02  7  1 15 33 45.0000000  0  8G 6G10G15G17G23G18G30G29
  20206277.3754   -3008440.85849  -2333916.08948                  20206276.2584
        52.2504         43.2504
  21973258.9774    2986121.32749   2306018.49148                  21973258.2234
        48.5004         41.2504
  22058271.9774   -6543550.91049  -5071612.99547                  22058271.6174
        46.5004         38.2504
  21379359.1094   -5149305.43849  -3991697.27648                  21379358.4224
        50.5004         43.0004
  20651301.0704   -3273285.88449  -2538286.17748                  20651299.9774
        52.5004         44.7504
  23474701.6954   -6261750.70749  -4867479.54847                  23474701.3954
        44.5004         31.7504
  22138815.3834    4667105.20949   3602624.64147                  22138814.7934
        49.7504         39.2504
  23623195.2814   -5855258.91049  -4553311.66947                  23623196.4534
        45.0004         28.7504
 02  7  1 15 34  0.0000000  0  8G 6G10G15G17G23G18G30G29
  20202672.6094   -3027384.14749  -2348677.08548                  20202670.7814
        50.2504         43.2504
  21978237.4144    3012285.05749   2326405.80848                  21978237.2734
        47.5004         41.0004
  22049382.1484   -6590267.31049  -5108015.35547                  22049381.7384
        46.2504         38.5004
  21372427.6254   -5185730.93149  -4020080.75548                  21372426.8364
        50.5004         43.2504
  20647948.0314   -3290907.13649  -2552017.00948                  20647946.7074
        51.5004         45.0004
  23462044.9304   -6328261.78149  -4919306.29547                  23462044.9454
        44.5004         32.0004
  22145620.1804    4702865.41749   3630489.70947                  22145620.1804
        49.5004         38.7504
  23614746.5314   -5899661.40449  -4587910.98547                  23614746.5514
        44.7504         29.5004
 02  7  1 15 34 15.0000000  0  8G 6G10G15G17G23G18G30G29
  20199079.1804   -3046268.23049  -2363391.95448                  20199077.5784
        51.0004         43.2504
  21983228.3204    3038513.01849   2346843.16448                  21983227.8204
        47.5004         40.7504
  22040495.6954   -6636963.95349  -5144402.32947                  22040495.6174
        46.2504         37.5004
  21365500.2194   -5222135.30249  -4048447.79048                  21365499.2664
        50.5004         42.5004
  20644613.4384   -3308429.84749  -2565671.06748                  20644612.2034
        52.2504         44.7504
  23449388.8754   -6394769.02649  -4971130.07647                  23449388.8164
        44.0004         31.5004
  22152430.8594    4738653.06249   3658376.16148                  22152430.5824
        50.0004         39.5004
  23606302.8524   -5944029.56149  -4622483.53847                  23606303.2704
        46.2504         30.0004
 02  7  1 15 34 30.0000000  0  8G 6G10G15G17G23G18G30G29
  20195497.8204   -3065088.59849  -2378057.17848                  20195496.4884
        51.5004         43.5004
  21988232.6414    3064809.06949   2367333.57348                  21988232.1374
        48.7504         41.0004
  22031614.4224   -6683636.50049  -5180770.51647                  22031614.0944
        45.2504         38.2504
  21358577.3674   -5258514.10349  -4076794.89448                  21358576.7504
        50.5004         42.7504
  20641298.8524   -3325849.76249  -2579245.02448                  20641297.1414
        52.2504         44.7504
  23436734.8204   -6461267.82549  -5022947.27847                  23436734.6684
        44.5004         32.0004
  22159246.7664    4774472.03849   3686287.02548                  22159246.2384
        49.7504         39.5004
  23597866.6724   -5988358.65149  -4657025.67647                  23597867.9414
        44.5004         29.2504
 02  7  1 15 34 45.0000000  0  8G 6G10G15G17G23G18G30G29
  20191928.5634   -3083845.36049  -2392672.83848                  20191927.0904
        52.0004         43.2504
  21993249.2894    3091172.70449   2387876.64748                  21993248.8914
        48.0004         40.7504
  22022737.3134   -6730285.08449  -5217120.03347                  22022737.2384
        46.0004         38.5004
  21351659.3364   -5294867.71449  -4105122.36348                  21351658.8794
        50.0004         43.2504
  20638003.1804   -3343167.16449  -2592739.10248                  20638001.7114
        52.7504         45.0004
  23424081.7114   -6527758.34949  -5074758.02847                  23424081.2774
        44.5004         32.7504
  22166068.8134    4810321.72449   3714221.81147                  22166068.5594
        48.7504         39.0004
  23589439.4534   -6032648.67849  -4691537.33547                  23589439.8714
        44.7504         29.7504
 02  7  1 15 35  0.0000000  0  8G 6G10G15G17G23G18G30G29
  20188371.2664   -3102538.57049  -2407238.97548                  20188369.8834
        52.0004         43.2504
  21998279.0474    3117603.35649   2408471.94248                  21998278.6374
        48.0004         40.5004
  22013865.4454   -6776910.01149  -5253451.12947                  22013864.5274
        45.7504         38.2504
  21344746.7814   -5331196.35249  -4133430.38548                  21344745.7194
        51.0004         43.0004
  20634727.1484   -3360382.33449  -2606153.51348                  20634725.6254
        52.0004         44.7504
  23411431.1024   -6594240.43949  -5126562.24047                  23411429.7854
        46.0004         32.5004
  22172896.5474    4846201.52049   3742180.05347                  22172896.3754
        49.7504         39.0004
  23581017.8754   -6076899.50549  -4726018.47847                  23581019.1644
        45.5004         29.0004
 02  7  1 15 35 15.0000000  0  8G 6G10G15G17G23G18G30G29
  20184826.4844   -3121166.47349  -2421754.22048                  20184824.9694
        51.5004         43.2504
  22003321.5004    3144102.37249   2429120.51248                  22003321.0784
        48.5004         40.5004
  22004997.6414   -6823509.60849  -5289762.48147                  22004997.2934
        46.7504         38.0004
  21337838.5234   -5367498.31149  -4161717.61748                  21337837.7704
        50.0004         43.2504
  20631471.0004   -3377493.62249  -2619486.98148                  20631469.5554
        52.2504         44.7504
  23398781.6484   -6660712.16849  -5178358.35147                  23398781.4734
        44.7504         32.5004
  22179730.3674    4882112.68049   3770162.75647                  22179729.6094
        49.7504         39.0004
  23572605.8984   -6121109.11349  -4760467.49447                  23572606.2154
        46.2504         29.0004
 02  7  1 15 35 30.0000000  0  8G 6G10G15G17G23G18G30G29
  20181293.1484   -3139732.43449  -2436221.20948                  20181291.9264
        51.2504         43.5004
  22008376.5784    3170665.83649   2449819.29248                  22008376.0274
        47.0004         41.0004
  21996133.9774   -6870087.36649  -5326056.81547                  21996133.5474
        45.0004         38.0004
  21330934.9064   -5403777.18249  -4189986.86348                  21330934.0864
        49.5004         43.5004
  20628234.1024   -3394504.61249  -2632742.29548                  20628232.7814
        51.7504         44.7504
  23386133.7424   -6727176.75649  -5230148.88647                  23386133.8444
        43.7504         32.7504
  22186568.9844    4918051.41049   3798166.93547                  22186568.7584
        49.2504         39.2504
  23564199.8834   -6165280.64849  -4794886.84047                  23564200.5004
        45.5004         30.0004
 02  7  1 15 35 45.0000000  0  8G 6G10G15G17G23G18G30G29
  20177772.7814   -3158234.66549  -2450638.53148                  20177771.1724
        52.0004         43.2504
  22013443.5944    3197295.04149   2470569.31248                  22013442.9924
        48.5004         41.0004
  21987275.1174   -6916641.64549  -5362332.84747                  21987274.5004
        47.2504         38.0004
  21324036.0474   -5440031.42949  -4218236.90948                  21324035.0274
        50.0004         43.2504
  20625016.3834   -3411413.72649  -2645918.22048                  20625014.7584
        53.5004         44.7504
  23373487.6174   -6793632.29049  -5281932.37247                  23373487.8244
        44.5004         31.7504
  22193413.2194    4954018.81449   3826193.44347                  22193413.5004
        49.0004         38.7504
  23555802.1484   -6209412.24649  -4829275.07247                  23555802.8554
        46.2504         31.0004
 02  7  1 15 36  0.0000000  0  8G 6G10G15G17G23G18G30G29
  20174263.6414   -3176674.45249  -2465007.19448                  20174262.0664
        52.5004         43.5004
  22018523.3594    3223988.06049   2491369.04248                  22018522.0594
        48.5004         40.5004
  21978420.3834   -6963173.87949  -5398591.72347                  21978420.1644
        46.5004         39.2504
  21317141.2114   -5476262.54349  -4246468.95948                  21317140.5354
        50.0004         43.0004
  20621817.4924   -3428222.43949  -2659015.92348                  20621816.2664
        52.5004         45.0004
  23360842.7974   -6860079.97249  -5333709.74747                  23360842.8284
        45.0004         31.7504
  22200262.9614    4990013.11349   3854240.90847                  22200261.8954
        49.2504         38.5004
  23547411.2344   -6253504.95249  -4863632.99547                  23547412.0634
        46.0004         30.0004
 02  7  1 15 36 15.0000000  0  8G 6G10G15G17G23G18G30G29
  20170767.5394   -3195047.41149  -2479323.79148                  20170766.1994
        52.0004         43.2504
  22023616.0634    3250748.84249   2512221.59448                  22023614.9804
        49.0004         40.5004
  21969570.6484   -7009679.78149  -5434830.06747                  21969569.7974
        47.7504         38.5004
  21310251.9304   -5512466.16649  -4274679.55948                  21310251.1914
        50.7504         42.7504
  20618639.0944   -3444926.50449  -2672032.07348                  20618637.6094
        53.2504         44.7504
  23348201.0164   -6926515.29249  -5385477.50447                  23348199.6524
        45.7504         32.5004
  22207118.4224    5026038.27849   3882312.44747                  22207118.0314
        49.0004         38.7504
  23539029.3674   -6297554.18749  -4897957.03347                  23539029.5664
        46.0004         30.5004
 02  7  1 15 36 30.0000000  0  8G 6G10G15G17G23G18G30G29
  20167283.6024   -3213354.67649  -2493589.18448                  20167282.0394
        51.5004         43.2504
  22028720.7974    3277575.87749   2533125.75348                  22028720.0824
        48.5004         40.5004
  21960725.5084   -7056160.60449  -5471048.86847                  21960724.8524
        47.7504         38.5004
  21303367.6724   -5548643.73849  -4302869.86948                  21303366.8594
        50.7504         43.0004
  20615479.7734   -3461527.34349  -2684967.78748                  20615478.2894
        53.0004         45.0004
  23335561.1484   -6992939.22749  -5437236.37447                  23335560.3794
        45.7504         32.7504
  22213979.3134    5062092.53649   3910406.63747                  22213978.8094
        49.2504         38.5004
  23530654.7274   -6341560.81049  -4932247.88747                  23530655.1294
        45.2504         29.7504
 02  7  1 15 36 45.0000000  0  8G 6G10G15G17G23G18G30G29
  20163811.9534   -3231598.08349  -2507804.81748                  20163810.2734
        51.2504         43.2504
  22033838.0164    3304466.74349   2554079.66448                  22033837.1804
        48.0004         40.2504
  21951884.8674   -7102618.38449  -5507249.71147                  21951884.8204
        48.5004         38.7504
  21296487.8524   -5584797.09449  -4331041.29248                  21296486.9654
        50.0004         43.0004
  20612340.0944   -3478026.97649  -2697824.63048                  20612338.4224
        53.5004         45.2504
  23322922.3444   -7059353.46549  -5488987.67947                  23322921.8284
        45.2504         32.5004
  22220845.1884    5098173.66249   3938521.77847                  22220845.3404
        49.5004         38.2504
  23522288.6724   -6385526.64549  -4966506.95147                  23522289.2034
        45.0004         29.2504
 02  7  1 15 37  0.0000000  0  8G 6G10G15G17G23G18G30G29
  20160351.8524   -3249780.80749  -2521973.16448                  20160350.1174
        51.0004         43.2504
  22038966.8754    3331417.79749   2575080.47248                  22038965.9964
        47.5004         40.5004
  21943047.8834   -7149056.36549  -5543435.14247                  21943047.4304
        48.0004         38.7504
  21289612.0784   -5620929.77649  -4359196.62048                  21289611.2074
        50.7504         42.7504
  20609218.7814   -3494428.69849  -2710605.19248                  20609217.7384
        53.2504         44.7504
  23310285.4144   -7125761.05849  -5540733.82747                  23310284.9264
        45.7504         32.0004
  22227715.3834    5134277.81349   3966654.84447                  22227715.6054
        49.5004         38.5004
  23513929.1804   -6429454.51149  -5000736.42947                  23513929.7894
        45.0004         30.7504
 02  7  1 15 37 15.0000000  0  8G 6G10G15G17G23G18G30G29
  20156904.5554   -3267896.70949  -2536089.45348                  20156902.7734
        51.7504         43.2504
  22044107.9694    3358434.69049   2596132.58348                  22044107.0044
        48.2504         40.5004
  21934215.6884   -7195468.51549  -5579600.42847                  21934215.5354
        47.0004         38.5004
  21282741.1884   -5657035.66749  -4387331.07948                  21282740.6604
        49.5004         43.0004
  20606117.5164   -3510726.58949  -2723304.84648                  20606116.2074
        52.5004         44.7504
  23297650.9774   -7192155.85849  -5592470.00547                  23297650.8594
        44.2504         33.0004
  22234591.5864    5170410.64249   3994810.25247                  22234591.3874
        48.7504         38.2504
  23505578.4064   -6473338.13949  -5034931.43947                  23505578.6484
        44.7504         30.2504
 02  7  1 15 37 30.0000000  0  8G 6G10G15G17G23G18G30G29
  20153470.2584   -3285944.80349  -2550152.90748                  20153468.1914
        51.5004         43.0004
  22049261.6644    3385517.80049   2617236.28248                  22049260.8164
        48.0004         40.5004
  21925389.1334   -7241854.06249  -5615744.99347                  21925388.9534
        47.5004         38.7504
  21275876.0004   -5693114.10549  -4415444.13548                  21275875.0594
        50.5004         43.5004
  20603036.1804   -3526919.89049  -2735922.99748                  20603034.8134
        52.2504         45.2504
  23285019.1334   -7258536.74149  -5644195.33347                  23285018.9574
        45.0004         32.2504
  22241472.8984    5206572.60649   4022988.38147                  22241472.2934
        48.7504         38.5004
  23497236.2734   -6517176.43649  -5069091.12247                  23497236.7424
        46.0004         30.0004
 02  7  1 15 37 44.9990000  0  8G 6G10G15G17G23G18G30G29
  20150048.4254   -3303925.12449  -2564163.53748                  20150046.5624
        51.0004         43.0004
  22054426.7764    3412663.70449   2638388.92648                  22054425.6594
        48.0004         40.5004
  21916567.8944   -7288211.11449  -5651867.35147                  21916567.0654
        47.5004         39.0004
  21269015.5344   -5729163.85549  -4443534.84148                  21269014.9094
        50.2504         43.7504
  20599974.5264   -3543008.86749  -2748459.85648                  20599972.9404
        52.0004         45.2504
  23272390.4874   -7324900.12849  -5695907.00347                  23272389.7104
        44.5004         31.5004
  22248359.1204    5242759.56149   4051185.97447                  22248359.0814
        49.0004         38.5004
  23488903.6444   -6560967.39949  -5103213.92947                  23488903.7694
        45.5004         31.0004
 02  7  1 15 37 59.9990000  0  8G 6G10G15G17G23G18G30G29
  20146638.7924   -3321844.44649  -2578126.65348                  20146637.1124
        51.5004         43.2504
  22059604.4254    3439871.19849   2659589.55048                  22059604.2304
        47.5004         40.0004
  21907749.7224   -7334550.40449  -5687975.87747                  21907748.9214
        47.0004         39.0004
  21262159.1834   -5765194.42049  -4471610.60548                  21262158.2694
        50.0004         43.2504
  20596931.5424   -3559000.30449  -2760920.71148                  20596930.0544
        52.0004         45.0004
  23259762.5584   -7391259.31549  -5747615.44047                  23259761.8624
        44.2504         32.2504
  22255250.2454    5278971.62849   4079403.13647                  22255249.9174
        48.7504         38.2504
  23480576.9174   -6604721.12049  -5137307.72047                  23480577.3274
        45.2504         30.0004
 02  7  1 15 38 14.9990000  0  8G 6G10G15G17G23G18G30G29
  20143240.5344   -3339702.52249  -2592042.03248                  20143239.1754
        52.0004         43.2504
  22064793.1754    3467136.87049   2680835.50248                  22064792.6834
        48.5004         40.5004
  21898935.3784   -7380870.02049  -5724069.06747                  21898934.4994
        47.5004         38.5004
  21255306.9014   -5801204.48449  -4499670.38748                  21255306.1364
        51.2504         43.2504
  20593906.8234   -3574894.28749  -2773305.62748                  20593905.7064
        52.7504         45.0004
  23247136.2304   -7457610.60549  -5799317.72547                  23247135.6944
        46.0004         32.2504
  22262145.0264    5315204.66449   4107636.63047                  22262145.2224
        48.7504         38.2504
  23472258.8784   -6648435.29849  -5171370.68347                  23472259.2764
        45.7504         31.0004
 02  7  1 15 38 29.9990000  0  8G 6G10G15G17G23G18G30G29
  20139851.4094   -3357510.31449  -2605918.22348                  20139849.9254
        51.5004         43.0004
  22069990.6054    3494449.35649   2702117.93048                  22069990.3784
        47.5004         40.2504
  21890122.8084   -7427181.03949  -5760155.55347                  21890121.7454
        47.0004         39.0004
  21248456.1054   -5837205.25449  -4527722.92848                  21248455.2024
        50.0004         43.0004
  20590898.5584   -3590701.97149  -2785623.30048                  20590897.0034
        53.0004         45.0004
  23234509.5424   -7523964.89249  -5851022.32447                  23234509.0424
        44.2504         32.2504
  22269041.5584    5351447.29949   4135877.60847                  22269041.8974
        48.7504         38.2504
  23463945.3864   -6692120.83049  -5205411.32347                  23463946.0034
        45.5004         30.0004
 02  7  1 15 38 44.9990000  0  8G 6G10G15G17G23G18G30G29
  20136475.2304   -3375254.18249  -2619744.61548                  20136473.4834
        51.2504         43.0004
  22075199.3864    3521821.69649   2723447.00848                  22075198.7884
        48.0004         39.7504
  21881314.0264   -7473469.87349  -5796224.75847                  21881313.0734
        46.2504         39.0004
  21241609.8154   -5873183.16849  -4555757.65848                  21241608.5974
        50.5004         43.2504
  20587909.8474   -3606409.86549  -2797863.21548                  20587908.3124
        52.5004         45.2504
  23221884.5114   -7590308.42349  -5902718.54547                  23221884.2884
        44.5004         32.2504
  22275943.1284    5387712.66049   4164136.29947                  22275942.5734
        48.7504         38.0004
  23455640.6984   -6735763.90749  -5239418.89647                  23455641.3004
        45.0004         31.2504
 02  7  1 15 38 59.9990000  0  8G 6G10G15G17G23G18G30G29
  20133111.5894   -3392928.70249  -2633516.97148                  20133110.2064
        52.5004         43.5004
  22080420.5424    3549258.78549   2744826.53148                  22080419.5654
        48.5004         40.0004
  21872510.7224   -7519731.30249  -5832272.60947                  21872510.1014
        48.0004         39.2504
  21234768.7374   -5909133.05349  -4583770.54748                  21234767.7924
        50.2504         43.5004
  20584940.6364   -3622012.81149  -2810021.34548                  20584939.2694
        52.7504         45.0004
  23209262.5654   -7656635.56449  -5954401.98547                  23209262.0424
        44.5004         32.2504
  22282849.1204    5424005.62649   4192416.49647                  22282848.8624
        49.0004         37.7504
  23447344.7764   -6779358.85049  -5273388.94247                  23447345.0894
        46.0004         31.2504
 02  7  1 15 39 14.9990000  0  8G 6G10G15G17G23G18G30G29
  20129760.8004   -3410538.24249  -2647238.68448                  20129759.0074
        52.0004         43.5004
  22085652.8864    3576755.84249   2766252.80348                  22085652.1944
        47.2504         40.7504
  21863712.1364   -7565969.80649  -5868302.58947                  21863711.3194
        47.0004         39.2504
  21227931.8154   -5945059.29849  -4611765.01848                  21227931.4444
        50.5004         43.7504
  20581990.7454   -3637515.34849  -2822101.24248                  20581989.4804
        52.0004         45.2504
  23196643.7224   -7722950.68849  -6006076.07347                  23196643.0934
        45.2504         32.0004
  22289760.2374    5460321.30649   4220714.39347                  22289760.5584
        48.7504         38.2504
  23439057.3394   -6822909.79549  -5307324.71247                  23439057.4874
        45.7504         31.5004
 02  7  1 15 39 29.9990000  0  8G 6G10G15G17G23G18G30G29
  20126422.5584   -3428081.56749  -2660908.80148                  20126420.7264
        51.7504         43.7504
  22090897.0654    3604313.61249   2787726.36748                  22090896.3624
        48.2504         40.5004
  21854917.8084   -7612184.29349  -5904313.86447                  21854917.1124
        45.7504         39.0004
  21221100.1984   -5980960.99249  -4639740.35048                  21221099.2534
        50.7504         43.7504
  20579059.8554   -3652916.51349  -2834102.13748                  20579058.2724
        53.2504         45.0004
  23184027.0344   -7789252.37849  -6057739.68247                  23184025.9914
        45.2504         32.2504
  22296674.9014    5496660.30349   4249030.45847                  22296675.3864
        49.0004         38.0004
  23430778.3234   -6866415.49349  -5341225.21347                  23430778.6794
        46.0004         30.2504
 02  7  1 15 39 44.9990000  0  8G 6G10G15G17G23G18G30G29
  20123097.9564   -3445552.32049  -2674522.37148                  20123096.2334
        50.5004         43.5004
  22096153.7694    3631937.95849   2809251.81948                  22096153.6904
        48.5004         40.5004
  21846129.0114   -7658368.53649  -5940301.55748                  21846128.5894
        45.7504         39.5004
  21214274.3004   -6016831.88649  -4667691.68148                  21214273.5264
        50.7504         43.0004
  20576149.4954   -3668210.09149  -2846019.20448                  20576148.0854
        51.2504         45.0004
  23171413.8394   -7855534.07649  -6109387.73547                  23171412.6714
        45.0004         32.2504
  22303595.9804    5533028.54249   4277369.30347                  22303595.7184
        49.0004         38.0004
  23422508.8624   -6909869.23649  -5375085.21447                  23422509.9334
        45.5004         30.5004
 02  7  1 15 39 59.9990000  0  8G 6G10G15G17G23G18G30G29
  20119786.7224   -3462953.78549  -2688081.96748                  20119784.6164
        52.0004         43.7504
  22101422.4724    3659625.02649   2830826.12948                  22101421.9684
        47.5004         40.5004
  21837345.1514   -7704525.90849  -5976268.32847                  21837344.2964
        46.7504         39.0004
  21207453.3154   -6052675.47749  -4695621.75448                  21207452.3274
        50.5004         43.5004
  20573259.1754   -3683399.59049  -2857855.17948                  20573257.8624
        53.0004         45.0004
  23158804.6124   -7921799.00749  -6161022.70647                  23158803.6674
        45.5004         33.0004
  22310521.3624    5569422.19849   4305727.96147                  22310521.1364
        48.7504         38.0004
  23414249.8864   -6953274.15749  -5408907.21547                  23414250.0034
        45.7504         31.0004
 02  7  1 15 40 14.9990000  0  8G 6G10G15G17G23G18G30G29
  20116488.4014   -3480285.04449  -2701586.83848                  20116486.8154
        51.0004         43.2504
  22106703.5114    3687375.41549   2852449.78948                  22106702.5734
        47.2504         40.2504
  21828567.2694   -7750655.59849  -6012213.52448                  21828566.7104
        48.0004         39.5004
  21200637.9404   -6088490.95849  -4723529.90848                  21200636.8704
        50.2504         43.2504
  20570388.7924   -3698484.28949  -2869609.48848                  20570386.9294
        52.0004         45.2504
  23146197.4254   -7988045.99649  -6212643.69947                  23146196.7724
        45.2504         32.7504
  22317451.5344    5605841.82249   4334106.84547                  22317451.9174
        48.5004         37.5004
  23405999.3154   -6996629.13949  -5442690.29147                  23405999.5584
        45.7504         31.0004
 02  7  1 15 40 29.9990000  0  8G 6G10G15G17G23G18G30G29
  20113204.8314   -3497540.91849  -2715032.97548                  20113203.2654
        52.5004         43.2504
  22111997.1204    3715193.63049   2874126.31248                  22111996.2764
        48.0004         40.2504
  21819795.1674   -7796752.62349  -6048133.25848                  21819794.8584
        47.0004         39.5004
  21193828.9014   -6124273.32949  -4751412.26948                  21193827.9604
        51.2504         43.2504
  20567539.0344   -3713459.27349  -2881278.30148                  20567537.4604
        53.0004         45.0004
  23133595.8474   -8054269.90349  -6264246.70047                  23133594.7924
        45.2504         33.0004
  22324388.0424    5642291.92849   4362509.48847                  22324387.9174
        48.5004         37.7504
  23397759.6054   -7039928.87849  -5476430.30547                  23397760.2264
        46.5004         31.2504
 02  7  1 15 40 44.9990000  0  8G 6G10G15G17G23G18G30G29
  20109934.5114   -3514725.84549  -2728423.82148                  20109932.5504
        52.5004         43.2504
  22117302.8864    3743074.68849   2895851.78548                  22117302.0344
        48.5004         39.7504
  21811028.1204   -7842821.46849  -6084031.03548                  21811028.0424
        47.5004         39.5004
  21187024.7694   -6160027.15449  -4779272.38248                  21187024.3314
        50.0004         42.7504
  20564709.2374   -3728329.09049  -2892865.16448                  20564707.4834
        53.5004         45.0004
  23120997.0584   -8120474.90749  -6315834.98647                  23120996.4214
        44.5004         33.5004
  22331329.1984    5678767.63049   4390932.08347                  22331329.0774
        48.7504         38.0004
  23389529.5424   -7083177.56649  -5510130.53747                  23389530.6164
        45.0004         31.0004
 02  7  1 15 40 59.9990000  0  8G 6G10G15G17G23G18G30G29
  20106678.3004   -3531837.62149  -2741757.66448                  20106676.8554
        50.7504         43.5004
  22122620.6674    3771020.48349   2917627.71448                  22122620.3584
        46.2504         40.0004
  21802267.6514   -7888860.19449  -6119905.35648                  21802267.0854
        45.2504         39.5004
  21180227.5114   -6195750.40349  -4807108.66148                  21180226.6794
        50.2504         43.5004
  20561900.1674   -3743091.80649  -2904368.57948                  20561898.7654
        53.0004         45.2504
  23108402.8474   -8186658.78749  -6367406.78247                  23108402.4604
        46.0004         33.5004
  22338274.9874    5715270.67549   4419375.98147                  22338275.7804
        49.0004         37.2504
  23381309.1594   -7126372.78449  -5543789.08647                  23381310.1554
        45.7504         31.0004
 02  7  1 15 41 14.9990000  0  8G 6G10G15G17G23G18G30G29
  20103436.9404   -3548870.54749  -2755030.07948                  20103435.3434
        52.5004         43.5004
  22127951.8624    3799036.24949   2939458.15448                  22127951.3664
        47.5004         39.5004
  21793513.8944   -7934863.06149  -6155751.73247                  21793512.7104
        47.0004         39.0004
  21173436.2304   -6231437.52449  -4834916.79948                  21173434.9374
        50.7504         43.5004
  20559112.1364   -3757741.91649  -2915784.24348                  20559110.7574
        54.0004         45.0004
  23095813.9644   -8252815.56949  -6418957.49547                  23095812.7494
        45.0004         33.5004
  22345228.4404    5751806.10649   4447845.10047                  22345228.0264
        48.5004         37.5004
  23373100.9954   -7169508.65649  -5577401.44147                  23373101.0304
        46.2504         31.2504
 02  7  1 15 41 29.9990000  0  8G 6G10G15G17G23G18G30G29
  20100210.1674   -3565826.70549  -2768242.67948                  20100208.4874
        51.0004         43.2504
  22133296.1834    3827119.25749   2961340.99148                  22133294.9524
        46.5004         40.2504
  21784765.9014   -7980832.34049  -6191571.93147                  21784764.9764
        46.5004         39.0004
  21166651.6904   -6267090.85449  -4862698.62148                  21166650.3864
        50.5004         43.5004
  20556345.5814   -3772281.67449  -2927113.92648                  20556343.5504
        53.2504         45.0004
  23083229.1514   -8318947.35449  -6470488.72047                  23083228.5544
        46.0004         33.5004
  22352186.0974    5788371.41949   4476337.51847                  22352186.2414
        49.0004         38.0004
  23364903.7304   -7212587.00049  -5610968.93247                  23364904.1514
        46.0004         31.0004
 02  7  1 15 41 44.9990000  0  8G 6G10G15G17G23G18G30G29
  20096998.0344   -3582708.20649  -2781397.08948                  20096996.3514
        51.7504         43.5004
  22138652.2534    3855266.96949   2983274.26348                  22138651.4764
        47.2504         40.0004
  21776024.1444   -8026770.26349  -6227367.69947                  21776023.5544
        47.0004         38.7504
  21159872.8554   -6302712.68649  -4890455.87648                  21159872.3554
        51.2504         43.2504
  20553599.2144   -3786713.39149  -2938359.41348                  20553597.2694
        52.5004         45.0004
  23070649.1754   -8385056.07149  -6522001.97147                  23070648.3314
        46.5004         33.7504
  22359149.7764    5824963.95149   4504851.14147                  22359149.5424
        49.0004         37.5004
  23356716.8624   -7255610.00449  -5644493.29847                  23356717.2264
        46.0004         30.7504
 02  7  1 15 41 59.9990000  0  8G 6G10G15G17G23G18G30G29
  20093799.6514   -3599516.87449  -2794494.74848                  20093797.7724
        50.7504         43.5004
  22144020.0654    3883477.09049   3005256.15048                  22144019.6404
        46.7504         40.0004
  21767288.0584   -8072678.72149  -6263140.50448                  21767287.6834
        45.7504         39.7504
  21153099.9484   -6338304.86549  -4918190.03048                  21153098.8474
        50.5004         44.0004
  20550873.0034   -3801039.07649  -2949522.28448                  20550871.0654
        53.0004         45.0004
  23058072.9644   -8451143.28449  -6573498.45847                  23058072.7534
        45.0004         33.5004
  22366117.5264    5861581.34949   4533384.13247                  22366117.1444
        49.0004         37.2504
  23348539.7764   -7298579.12849  -5677975.69747                  23348540.2064
        46.0004         31.5004
 02  7  1 15 42 14.9990000  0  8G 6G10G15G17G23G18G30G29
  20090614.8784   -3616252.02049  -2807535.11948                  20090613.1444
        52.0004         43.5004
  22149400.5114    3911749.87849   3027286.87848                  22149400.1674
        45.5004         40.0004
  21758557.9644   -8118557.17149  -6298889.91648                  21758557.1944
        46.2504         39.7504
  21146332.7614   -6373866.81749  -4945900.62948                  21146331.7374
        50.7504         43.2504
  20548167.4174   -3815258.29549  -2960602.17848                  20548165.6714
        53.7504         45.0004
  23045500.8944   -8517208.25249  -6624977.60547                  23045500.4014
        45.7504         33.7504
  22373090.2694    5898223.97249   4561936.80247                  22373090.1244
        49.2504         37.0004
  23340372.8624   -7341493.41949  -5711415.34847                  23340373.9054
        44.7504         30.5004
 02  7  1 15 42 29.9990000  0  8G 6G10G15G17G23G18G30G29
  20087445.8704   -3632905.66249  -2820511.98448                  20087443.8824
        52.2504         43.5004
  22154793.6834    3940092.87549   3049372.30848                  22154793.4174
        47.0004         40.5004
  21749834.5344   -8164397.78049  -6334609.86048                  21749833.8004
        47.0004         39.5004
  21139572.6204   -6409390.97849  -4973581.79248                  21139571.8664
        51.0004         44.0004
  20545483.1754   -3829363.26149  -2971593.06748                  20545481.5154
        53.0004         45.0004
  23032935.2454   -8583242.79349  -6676433.06147                  23032934.6364
        46.5004         34.5004
  22380069.6284    5934899.02349   4590514.71647                  22380069.4804
        48.7504         37.7504
  23332218.7304   -7384344.73249  -5744805.95547                  23332219.7104
        45.2504         30.7504
 02  7  1 15 42 44.9990000  0  8G 6G10G15G17G23G18G30G29
  20084292.2454   -3649477.60849  -2833425.18448                  20084290.5694
        51.7504         43.5004
  22160200.5344    3968505.57849   3071512.05048                  22160199.7534
        46.0004         40.0004
  21741118.7064   -8210200.50349  -6370300.28048                  21741118.3744
        46.2504         39.5004
  21132819.7144   -6444877.09549  -5001233.30448                  21132818.6444
        51.0004         43.5004
  20542820.8234   -3843353.98149  -2982494.91748                  20542818.6904
        53.2504         45.2504
  23020375.6364   -8649246.58849  -6727864.55247                  23020374.2614
        46.2504         33.7504
  22387054.3234    5971606.38649   4619117.82547                  22387054.5304
        48.7504         37.2504
  23324076.8314   -7427132.67449  -5778147.13647                  23324077.7414
        45.0004         31.2504
 02  7  1 15 42 59.9990000  0  8G 6G10G15G17G23G18G30G29
  20081154.1284   -3665969.42249  -2846275.93848                  20081152.6944
        52.2504         43.5004
  22165620.1444    3996985.89549   3093704.49348                  22165619.8354
        46.0004         39.5004
  21732409.8154   -8255966.93749  -6405962.42048                  21732408.9404
        46.2504         39.5004
  21126074.2534   -6480326.85949  -5028856.49048                  21126073.0464
        51.0004         43.0004
  20540179.8234   -3857232.30549  -2993309.18848                  20540178.2724
        52.5004         45.0004
  23007820.6204   -8715221.07549  -6779273.21247                  23007819.4054
        47.2504         34.7504
  22394045.6444    6008343.86849   4647744.39647                  22394045.7104
        49.5004         37.2504
  23315946.4954   -7469858.64649  -5811440.06647                  23315947.0114
        45.2504         31.2504
 02  7  1 15 43 14.9990000  0  8G 6G10G15G17G23G18G30G29
  20078030.5654   -3682382.71049  -2859065.51048                  20078028.7184
        52.0004         43.5004
  22171052.6904    4025531.70749   3115947.95648                  22171052.5224
        47.2504         39.5004
  21723707.1904   -8301698.84949  -6441597.65148                  21723706.2304
        46.2504         39.7504
  21119334.8474   -6515742.22749  -5056452.87248                  21119333.5584
        50.0004         43.2504
  20537560.0034   -3871000.07549  -3004037.32348                  20537558.1204
        53.2504         44.7504
  22995271.6124   -8781167.91349  -6830660.29947                  22995270.7334
        45.2504         34.7504
  22401042.2844    6045109.34649   4676392.77547                  22401041.6754
        49.2504         36.5004
  23307827.3704   -7512524.19649  -5844685.88447                  23307827.9334
        44.7504         31.2504
 02  7  1 15 43 29.9990000  0  8G 6G10G15G17G23G18G30G29
  20074923.0974   -3698712.02749  -2871789.65848                  20074921.5114
        52.7504         43.7504
  22176497.9804    4054148.06349   3138246.39448                  22176497.6284
        46.5004         39.7504
  21715012.2374   -8347390.97949  -6477201.89348                  21715011.1754
        45.7504         39.5004
  21112603.2224   -6551117.88349  -5084018.30948                  21112601.8234
        50.5004         43.7504
  20534962.1444   -3884652.09549  -3014675.25948                  20534960.3584
        53.0004         44.7504
  22982728.6514   -8847081.62649  -6882021.61147                  22982727.1674
        45.0004         34.2504
  22408044.3234    6081907.76549   4705066.83347                  22408044.2184
        49.0004         37.2504
  23299721.5974   -7555123.56849  -5877880.16747                  23299720.8474
        44.5004         30.0004
 02  7  1 15 43 44.9990000  0  8G 6G10G15G17G23G18G30G29
  20071831.5344   -3714958.43249  -2884449.18948                  20071830.1244
        51.5004         43.5004
  22181956.7304    4082833.34249   3160598.55448                  22181956.2654
        46.0004         39.5004
  21706324.5034   -8393044.45649  -6512776.01647                  21706324.1594
        46.7504         39.2504
  21105878.3234   -6586454.91949  -5111553.64648                  21105877.5854
        50.7504         43.0004
  20532385.7144   -3898189.62949  -3025223.96848                  20532384.0264
        53.5004         45.0004
  22970191.5034   -8912962.84849  -6933357.57947                  22970190.5814
        44.5004         34.7504
  22415053.1834    6118737.55949   4733765.35747                  22415053.2024
        48.5004         36.7504
  23291627.1364   -7597657.71349  -5911023.61647                  23291626.8434
        44.5004         31.0004
 02  7  1 15 43 59.9990000  0  8G 6G10G15G17G23G18G30G29
  20068756.4484   -3731119.26649  -2897042.05248                  20068754.8044
        52.5004         43.7504
  22187428.7614    4111589.77949   3183006.13948                  22187428.6244
        47.0004         40.2504
  21697645.2374   -8438656.82249  -6548318.10847                  21697644.0504
        46.5004         39.2504
  21099162.1444   -6621750.94549  -5139057.02948                  21099161.0424
        50.5004         43.5004
  20529832.0584   -3911610.22849  -3035681.58848                  20529830.3704
        53.5004         44.7504
  22957661.4014   -8978808.78649  -6984666.07647                  22957660.6594
        46.5004         34.7504
  22422067.6834    6155600.82749   4762489.93347                  22422067.7184
        48.7504         37.2504
  23283545.5654   -7640123.70049  -5944113.97147                  23283546.0154
        44.7504         30.5004
 02  7  1 15 44 14.9990000  0  8G 6G10G15G17G23G18G30G29
  20065697.0814   -3747195.72649  -2909569.15348                  20065695.6444
        51.2504         43.5004
  22192914.1284    4140415.67649   3205467.85948                  22192913.6364
        46.0004         40.0004
  21688972.5814   -8484229.36349  -6583829.15148                  21688971.9334
        46.5004         39.5004
  21092452.8394   -6657007.29749  -5166529.50448                  21092452.1474
        50.7504         44.0004
  20527300.1124   -3924915.26249  -3046049.12748                  20527298.7184
        53.0004         45.0004
  22945137.9564   -9044620.57549  -7035947.92647                  22945137.0694
        46.7504         35.0004
  22429088.7454    6192495.96449   4791239.36047                  22429089.1404
        48.5004         37.5004
  23275477.4954   -7682522.50349  -5977151.93947                  23275477.8554
        42.7504         31.5004
 02  7  1 15 44 29.9990000  0  8G 6G10G15G17G23G18G30G29
  20062655.1674   -3763182.08249  -2922026.04948                  20062652.9764
        52.0004         44.0004
  22198414.0344    4169316.31549   3227987.81748                  22198413.5304
        46.5004         39.5004
  21680309.1514   -8529756.40649  -6619304.75747                  21680308.3474
        47.2504         39.2504
  21085752.3554   -6692218.37849  -5193966.70148                  21085751.6554
        51.0004         43.5004
  20524791.5264   -3938099.19749  -3056322.33148                  20524789.6404
        53.7504         45.0004
  22932622.1364   -9110392.26749  -7087198.56347                  22932620.4294
        47.2504         34.7504
  22436116.5734    6229428.21049   4820017.69247                  22436116.9294
        48.5004         37.2504
  23267423.3474   -7724848.27549  -6010133.00647                  23267423.6124
        45.0004         30.5004
 02  7  1 15 44 44.9990000  0  8G 6G10G15G17G23G18G30G29
  20059628.2454   -3779087.20149  -2934419.63948                  20059626.3394
        52.0004         43.5004
  22203925.8234    4198282.36149   3250558.75947                  22203925.2304
        46.7504         38.7504
  21671652.3154   -8575246.90449  -6654751.87547                  21671651.7724
        46.2504         39.0004
  21079058.5344   -6727393.21149  -5221375.65548                  21079057.9914
        50.5004         43.0004
  20522303.5034   -3951171.14449  -3066508.23848                  20522302.1834
        53.2504         45.2504
  22920112.2224   -9176132.49049  -7138424.66047                  22920111.0854
        46.2504         34.5004
  22443149.8864    6266388.11949   4848817.59547                  22443150.1714
        48.5004         37.0004
  23259380.5034   -7767109.57349  -6043063.85447                  23259381.5814
        45.0004         31.0004
 02  7  1 15 44 59.9990000  0  8G 6G10G15G17G23G18G30G29
  20056617.7304   -3794908.92049  -2946748.26448                  20056615.6634
        51.7504         43.7504
  22209450.4724    4227315.46149   3273181.92747                  22209450.2334
        46.5004         39.0004
  21663003.3394   -8620698.71149  -6690168.85947                  21663002.8394
        46.5004         39.2504
  21072372.3554   -6762529.81249  -5248754.81848                  21072371.2614
        51.2504         43.5004
  20519838.1594   -3964129.14049  -3076605.38348                  20519836.7694
        53.7504         44.7504
  22907608.7224   -9241839.01749  -7189624.52547                  22907607.2024
        47.0004         34.5004
  22450188.8554    6303377.49149   4877640.44247                  22450188.8944
        49.0004         37.2504
  23251352.1284   -7809304.15149  -6075942.71547                  23251351.9174
        43.0004         30.5004
 02  7  1 15 45 14.9990000  0  8G 6G10G15G17G23G18G30G29
  20053622.3154   -3810650.38249  -2959014.32848                  20053620.3274
        52.0004         43.7504
  22214987.9874    4256411.96849   3295854.51247                  22214987.4484
        46.0004         39.0004
  21654360.8704   -8666115.16849  -6725558.29648                  21654359.8514
        47.2504         39.7504
  21065692.4724   -6797631.32549  -5276106.64248                  21065691.6444
        50.7504         43.2504
  20517393.2374   -3976976.50949  -3086616.31048                  20517391.7574
        53.5004         45.0004
  22895110.8394   -9307514.71649  -7240800.35347                  22895109.1634
        46.5004         35.0004
  22457232.8474    6340392.55449   4906483.30447                  22457232.8434
        48.7504         36.5004
  23243334.5974   -7851434.92249  -6108771.83547                  23243334.6284
        43.0004         31.5004
 02  7  1 15 45 29.9990000  0  8G 6G10G15G17G23G18G30G29
  20050642.9254   -3826305.88049  -2971213.41348                  20050641.0854
        51.5004         43.7504
  22220537.5654    4285577.05149   3318580.52047                  22220537.2064
        47.0004         38.5004
  21645725.9874   -8711490.82649  -6760915.94048                  21645725.3704
        48.0004         40.0004
  21059020.8314   -6832692.45349  -5303426.99248                  21059020.1984
        50.7504         43.7504
  20514970.5114   -3989707.87149  -3096536.85348                  20514969.0624
        52.5004         45.2504
  22882619.8474   -9373153.99049  -7291947.79747                  22882618.8194
        45.5004         33.7504
  22464282.4564    6377438.36349   4935350.13347                  22464282.3904
        48.7504         36.5004
  23235330.1984   -7893496.07249  -6141546.73547                  23235330.8624
        41.7504         31.7504
 02  7  1 15 45 44.9990000  0  8G 6G10G15G17G23G18G30G29
  20047681.9874   -3841865.68249  -2983337.94648                  20047680.4134
        51.5004         43.5004
  22226102.4954    4314820.00749   3341367.23547                  22226102.1714
        45.5004         39.2504
  21637101.0654   -8756815.95749  -6796234.20648                  21637100.4604
        48.5004         40.0004
  21052358.6754   -6867703.49349  -5330708.31148                  21052357.4094
        50.5004         43.5004
  20512571.6514   -4002313.67549  -3106359.54048                  20512570.1634
        53.2504         45.0004
  22870137.9404   -9438746.93849  -7343059.13947                  22870137.0194
        45.7504         34.7504
  22471339.6834    6414524.33449   4964248.26347                  22471339.8434
        48.7504         36.0004
  23227341.5894   -7935477.61949  -6174259.54947                  23227341.5584
        42.0004         31.5004
 02  7  1 15 45 59.9990000  0  8G 6G10G15G17G23G18G30G29
  20044736.8784   -3857342.90849  -2995398.12148                  20044735.4054
        51.7504         43.5004
  22231679.6284    4344127.17949   3364203.96648                  22231678.9994
        46.2504         39.5004
  21628483.2064   -8802103.87149  -6831523.47248                  21628482.2764
        47.2504         40.0004
  21045703.4564   -6902677.73849  -5357960.96748                  21045702.5114
        51.0004         43.2504
  20510194.4954   -4014807.24549  -3116094.79148                  20510192.5424
        53.5004         45.0004
  22857662.3314   -9504306.52049  -7394144.49947                  22857661.0584
        45.5004         34.7504
  22478401.5504    6451636.83149   4993167.04547                  22478401.9524
        48.2504         35.5004
  23219365.2224   -7977392.37149  -6206920.39347                  23219365.5264
        42.7504         31.5004
 02  7  1 15 46 14.9990000  0  8G 6G10G15G17G23G18G30G29
  20041807.8004   -3872734.78949  -3007391.79248                  20041805.9804
        52.5004         43.5004
  22237269.0194    4373500.86449   3387092.52747                  22237268.6714
        46.0004         39.0004
  21619872.1124   -8847351.92349  -6866781.68348                  21619871.8704
        48.0004         40.2504
  21039055.3084   -6937612.68149  -5385182.99248                  21039054.5154
        50.2504         43.2504
  20507838.5034   -4027186.10649  -3125740.64648                  20507836.9954
        53.0004         45.0004
  22845193.6594   -9569829.98649  -7445201.70547                  22845192.3744
        45.0004         34.5004
  22485469.8624    6488778.01349   5022108.19047                  22485469.6904
        48.0004         35.7504
  23211402.7144   -8019237.61149  -6239527.03847                  23211402.8274
        42.5004         31.7504
 02  7  1 15 46 29.9990000  0  8G 6G10G15G17G23G18G30G29
  20038895.3234   -3888038.33849  -3019316.64448                  20038893.6904
        52.2504         43.7504
  22242871.7844    4402943.61849   3410034.90947                  22242871.0894
        46.0004         39.0004
  21611270.0814   -8892557.17149  -6902006.54848                  21611269.6444
        46.7504         40.2504
  21032415.6204   -6972505.31849  -5412372.05348                  21032414.5344
        50.0004         43.2504
  20505505.3234   -4039447.43149  -3135294.91748                  20505503.4134
        53.7504         45.2504
  22832732.1834   -9635314.10949  -7496228.25647                  22832730.9174
        45.0004         34.2504
  22492543.1204    6525950.49349   5051073.71847                  22492543.9484
        47.7504         36.2504
  23203453.7694   -8061009.90349  -6272076.83447                  23203453.5974
        43.0004         31.5004
 02  7  1 15 46 44.9990000  0  8G 6G10G15G17G23G18G30G29
  20036000.8084   -3903251.44449  -3031171.00948                  20035999.1874
        52.0004         43.5004
  22248488.3704    4432457.06749   3433032.38647                  22248487.8044
        45.7504         38.5004
  21602676.2844   -8937717.64149  -6937196.50748                  21602675.8974
        47.0004         40.5004
  21025784.0654   -7007353.63449  -5439526.57848                  21025783.0344
        50.7504         43.5004
  20503194.9804   -4051589.30649  -3144756.12348                  20503193.1984
        53.5004         45.0004
  22820279.3944   -9700756.48849  -7547222.28847                  22820277.9294
        46.5004         35.5004
  22499623.8624    6563155.87849   5080064.87947                  22499623.5464
        47.7504         35.5004
  23195518.7534   -8102707.23649  -6304568.22447                  23195518.9134
        44.0004         31.5004
 02  7  1 15 46 59.9990000  0  8G 6G10G15G17G23G18G30G29
  20033121.6124   -3918381.03049  -3042960.29448                  20033119.9444
        52.5004         43.7504
  22254116.0734    4462033.73649   3456079.12847                  22254115.5694
        47.0004         39.0004
  21594090.1444   -8982840.33249  -6972357.02048                  21594088.8354
        48.2504         40.7504
  21019159.9014   -7042164.89749  -5466652.23048                  21019158.7884
        50.0004         43.5004
  20500905.6904   -4063618.93349  -3154129.84048                  20500904.1324
        53.5004         45.0004
  22807832.2454   -9766164.03049  -7598189.16647                  22807831.5774
        45.0004         34.7504
  22506708.4094    6600386.61649   5109075.81847                  22506708.3514
        47.5004         36.2504
  23187596.9954   -8144336.15049  -6337006.29647                  23187596.4174
        43.7504         31.2504
 02  7  1 15 47 14.9990000  0  8G 6G10G15G17G23G18G30G29
  20030259.8154   -3933419.82949  -3054678.83148                  20030258.3474
        52.2504         43.7504
  22259758.1284    4491680.43149   3479180.42947                  22259757.5774
        46.5004         39.0004
  21585512.0114   -9027918.18249  -7007482.60748                  21585511.0304
        48.0004         40.2504
  21012543.9174   -7076931.96249  -5493743.44048                  21012542.7614
        50.7504         43.0004
  20498639.0424   -4075529.33049  -3163410.66048                  20498637.5504
        52.2504         44.7504
  22795393.5974   -9831529.33449  -7649123.11147                  22795392.5624
        45.7504         34.7504
  22513798.4404    6637649.51749   5138111.80447                  22513799.4914
        47.2504         35.7504
  23179689.9954   -8185889.22849  -6369385.30247                  23179689.7654
        41.2504         30.7504
 02  7  1 15 47 29.9990000  0  8G 6G10G15G17G23G18G30G29
  20027414.7304   -3948370.68849  -3066328.85648                  20027412.8314
        51.0004         43.7504
  22265412.3154    4521393.89549   3502333.74947                  22265411.6444
        46.5004         39.0004
  21576941.7224   -9072954.21849  -7042575.61148                  21576940.8124
        47.5004         40.2504
  21005935.5974   -7111657.84349  -5520802.56448                  21005934.3904
        51.2504         43.7504
  20496394.9094   -4087323.52349  -3172600.93448                  20496392.9564
        53.5004         45.0004
  22782962.7924   -9896855.03049  -7700026.22347                  22782961.2064
        46.0004         35.5004
  22520895.5894    6674941.20049   5167170.21047                  22520895.6514
        48.0004         35.7504
  23171795.9644   -8227369.16449  -6401707.29447                  23171796.3314
        43.7504         31.5004
 02  7  1 15 47 44.9990000  0  8G 6G10G15G17G23G18G30G29
  20024586.5654   -3963231.51949  -3077908.72448                  20024584.8554
        51.5004         43.5004
  22271079.2144    4551175.64349   3525540.28647                  22271078.7964
        46.5004         39.0004
  21568380.4014   -9117946.33749  -7077634.40048                  21568379.3554
        49.0004         40.2504
  20999335.9254   -7146340.52149  -5547828.01748                  20999334.9564
        51.0004         43.5004
  20494173.0264   -4098999.71349  -3181699.25548                  20494171.4254
        52.5004         45.0004
  22770539.4094   -9962139.07749  -7750896.87947                  22770538.5424
        46.2504         35.2504
  22527997.7144    6712263.29749   5196252.32047                  22527998.0114
        48.0004         35.5004
  23163917.3314   -8268773.76249  -6433970.59347                  23163917.1084
        43.2504         30.5004
 02  7  1 15 47 59.9990000  0  8G 6G10G15G17G23G18G30G29
  20021776.3704   -3978001.11249  -3089417.49748                  20021774.4914
        51.7504         43.5004
  22276759.7224    4581026.43449   3548800.62647                  22276759.3584
        45.2504         38.2504
  21559826.7454   -9162893.49349  -7112658.13448                  21559826.1284
        47.0004         39.5004
  20992744.3314   -7180978.98549  -5574819.03248                  20992742.8744
        51.0004         43.5004
  20491973.4954   -4110556.78849  -3190704.77048                  20491971.8234
        52.7504         45.0004
  22758124.4954  -10027379.87749  -7801733.82947                  22758123.5504
        46.5004         35.0004
  22535105.9804    6749616.61649   5225358.76447                  22535105.5854
        47.5004         35.2504
  23156052.5264   -8310101.45549  -6466173.96547                  23156052.3824
        42.0004         31.7504
 02  7  1 15 48 14.9990000  0  8G 6G10G15G17G23G18G30G29
  20018981.7144   -3992684.93849  -3100859.44848                  20018980.0424
        52.2504         43.5004
  22282452.2924    4610940.35749   3572110.15147                  22282452.4994
        46.7504         38.5004
  21551281.0734   -9207801.27249  -7147651.19948                  21551280.4954
        46.7504         40.0004
  20986159.9644   -7215578.83249  -5601779.93448                  20986158.5304
        50.2504         43.5004
  20489795.7614   -4122000.48349  -3199621.93248                  20489794.4294
        53.2504         45.2504
  22745716.9334  -10092582.91049  -7852541.33947                  22745715.7334
        46.5004         34.5004
  22542218.9254    6786995.09249   5254484.81747                  22542218.5774
        47.2504         36.2504
  23148201.5344   -8351357.55449  -6498321.54947                  23148201.7884
        43.5004         30.2504
 02  7  1 15 48 29.9990000  0  8G 6G10G15G17G23G18G30G29
  20016205.8624   -4007274.61849  -3112228.03148                  20016204.0424
        51.7504         44.0004
  22288158.2374    4640925.20549   3595474.95047                  22288157.9444
        46.5004         38.2504
  21542744.4014   -9252661.28149  -7182607.03748                  21542743.8514
        47.2504         40.2504
  20979584.9564   -7250131.75949  -5628704.29048                  20979583.6474
        50.5004         44.0004
  20487641.6124   -4133322.64749  -3208444.39648                  20487639.7924
        52.7504         45.0004
  22733317.6984  -10157739.57249  -7903312.72447                  22733316.9764
        46.0004         35.2504
  22549337.9874    6824406.55349   5283636.57347                  22549338.4604
        47.7504         37.0004
  23140366.4484   -8392533.41849  -6530406.61347                  23140366.5544
        42.0004         31.5004
 02  7  1 15 48 44.9990000  0  8G 6G10G15G17G23G18G30G29
  20013446.0424   -4021777.19849  -3123528.74848                  20013444.2724
        52.7504         43.7504
  22293876.6904    4670973.53749   3618889.19447                  22293875.5544
        46.0004         38.7504
  21534215.8624   -9297480.67449  -7217531.22848                  21534215.3354
        48.0004         40.5004
  20973017.4094   -7284645.04149  -5655597.75548                  20973016.1904
        50.7504         44.0004
  20485508.4804   -4144530.53049  -3217177.80148                  20485506.7224
        53.0004         45.2504
  22720926.5194  -10222856.75049  -7954053.35147                  22720925.4174
        46.7504         34.7504
  22556462.0114    6861843.61949   5312808.25447                  22556462.3154
        46.7504         36.2504
  23132545.2694   -8433636.03149  -6562434.58147                  23132545.0114
        42.0004         31.7504
 02  7  1 15 48 59.9990000  0  8G 6G10G15G17G23G18G30G29
  20010703.2694   -4036190.03249  -3134759.52448                  20010701.3784
        51.7504         43.7504
  22299606.5814    4701087.47249   3642354.59547                  22299606.7064
        45.0004         37.5004
  21525694.9564   -9342257.05449  -7252421.89348                  21525694.6874
        48.2504         41.0004
  20966457.7614   -7319116.13749  -5682458.33748                  20966456.1404
        50.7504         43.5004
  20483398.1984   -4155621.76549  -3225820.31548                  20483396.4994
        53.2504         45.0004
  22708543.3004  -10287931.70449  -8004761.07947                  22708541.8234
        45.7504         35.0004
  22563591.5504    6899308.30149   5342001.46947                  22563591.8434
        47.2504         36.2504
  23124737.7064   -8474662.51649  -6594403.25047                  23124738.1204
        42.7504         31.0004
 02  7  1 15 49 14.9990000  0  8G 6G10G15G17G23G18G30G29
  20007977.2924   -4050515.08249  -3145921.89648                  20007975.7654
        51.7504         44.0004
  22305349.5034    4731264.59049   3665869.20547                  22305348.6284
        46.0004         38.0004
  21517182.5584   -9386992.40649  -7287280.59848                  21517181.5974
        48.0004         40.7504
  20959905.7844   -7353547.14849  -5709287.68048                  20959904.7924
        50.2504         43.5004
  20481308.9874   -4166598.52049  -3234373.62248                  20481307.7724
        52.5004         45.0004
  22696167.4724  -10352966.22949  -8055437.28447                  22696166.3784
        45.7504         35.0004
  22570725.3154    6936798.26749   5371214.39447                  22570725.2224
        47.5004         36.0004
  23116945.0264   -8515614.59949  -6626313.90947                  23116944.4724
        41.2504         31.0004
 02  7  1 15 49 29.9990000  0  8G 6G10G15G17G23G18G30G29
  20005268.9014   -4064747.87749  -3157012.39648                  20005267.3664
        51.0004         44.0004
  22311104.7064    4761508.80849   3689436.10147                  22311104.2184
        45.7504         38.2504
  21508677.8154   -9431682.44549  -7322103.99448                  21508677.3514
        46.7504         40.5004
  20953362.1594   -7387933.89549  -5736082.55048                  20953360.6944
        50.5004         43.7504
  20479242.8554   -4177456.59249  -3242834.45348                  20479241.8124
        52.5004         45.0004
  22683800.1754  -10417955.79749  -8106078.47547                  22683799.2064
        46.5004         35.2504
  22577864.9254    6974317.20249   5400449.88247                  22577865.5734
        48.2504         36.7504
  23109166.6284   -8556487.77849  -6658163.14247                  23109166.1404
        43.2504         30.7504
 02  7  1 15 49 44.9990000  0  8G 6G10G15G17G23G18G30G29
  20002577.6284   -4078891.66949  -3168033.53248                  20002575.7574
        52.2504         43.7504
  22316871.7534    4791816.51849   3713052.48247                  22316871.8514
        46.7504         37.5004
  21500181.7534   -9476330.53849  -7356894.70448                  21500181.1754
        49.0004         40.7504
  20946826.5264   -7422279.70849  -5762845.51448                  20946825.0504
        50.7504         44.0004
  20477198.6514   -4188199.42049  -3251205.49048                  20477196.6714
        53.0004         45.0004
  22671440.9724  -10482903.50749  -8156687.05447                  22671439.4134
        47.0004         35.2504
  22585008.9094    7011861.61249   5429705.22447                  22585010.2334
        47.2504         36.5004
  23101403.1754   -8597285.05449  -6689953.21647                  23101403.6944
        41.7504         32.0004
 02  7  1 15 49 59.9990000  0  8G 6G10G15G17G23G18G30G29
  19999903.3154   -4092944.85849  -3178984.07648                  19999901.6404
        51.5004         44.0004
  22322651.6364    4822188.79449   3736719.16147                  22322651.6634
        45.7504         38.0004
  21491693.6904   -9520935.16549  -7391651.54848                  21491693.0734
        48.2504         41.0004
  20940298.8394   -7456583.13049  -5789575.45848                  20940297.4684
        51.0004         44.0004
  20475176.6754   -4198825.72749  -3259485.72748                  20475175.2304
        52.7504         45.0004
  22659090.5734  -10547807.59849  -8207261.64247                  22659089.1754
        46.7504         36.0004
  22592159.3554    7049432.46149   5458981.16747                  22592159.5694
        48.0004         35.5004
  23093655.1984   -8638004.59649  -6721682.69147                  23093654.9054
        43.5004         31.5004
 02  7  1 15 50 14.9990000  0  8G 6G10G15G17G23G18G30G29
  19997247.5654   -4106900.91649  -3189858.93648                  19997245.7884
        52.2504         43.7504
  22328444.7454    4852631.74749   3760440.90447                  22328444.1554
        46.5004         38.0004
  21483215.5194   -9565489.85349  -7426369.48548                  21483214.4404
        47.5004         41.0004
  20933780.1754   -7490837.66749  -5816267.30148                  20933778.7024
        51.0004         44.2504
  20473177.7764   -4209329.14749  -3267670.20848                  20473176.2614
        52.7504         45.0004
  22646749.0814  -10612661.40249  -8257797.04947                  22646747.9564
        47.0004         35.7504
  22599315.0974    7087035.95349   5488282.53647                  22599315.2104
        48.7504         35.5004
  23085921.9254   -8678639.66049  -6753346.36347                  23085921.8474
        42.2504         31.7504
 02  7  1 15 50 29.9990000  0  8G 6G10G15G17G23G18G30G29
  19994609.5734   -4120762.78849  -3200660.37048                  19994607.9444
        52.2504         43.7504
  22334250.7614    4883141.88649   3784215.04047                  22334250.2494
        46.2504         38.2504
  21474745.7764   -9609997.67749  -7461050.87148                  21474745.0974
        48.2504         41.0004
  20927270.5194   -7525046.48549  -5842923.50848                  20927269.2534
        49.2504         44.0004
  20471201.9804   -4219712.81549  -3275761.35748                  20471200.4994
        52.5004         45.0004
  22634416.6054  -10677467.54149  -8308295.29147                  22634415.3314
        45.2504         35.0004
  22606476.2924    7124668.60149   5517606.65247                  22606476.6444
        48.5004         35.5004
  23078205.1514   -8719192.98549  -6784946.31147                  23078205.8154
        42.5004         31.5004
 02  7  1 15 50 44.9990000  0  8G 6G10G15G17G23G18G30G29
  19991989.4874   -4134533.05949  -3211390.46848                  19991987.5544
        51.0004         43.5004
  22340069.2764    4913716.16949   3808039.12347                  22340068.6794
        46.0004         37.7504
  21466284.4724   -9654461.36549  -7495697.89948                  21466284.0894
        48.0004         41.2504
  20920769.0814   -7559212.25749  -5869546.17748                  20920767.7184
        49.7504         44.0004
  20469248.0584   -4229979.54149  -3283761.40048                  20469246.5034
        53.0004         45.0004
  22622093.0264  -10742228.51749  -8358758.35947                  22622091.8354
        46.2504         36.0004
  22613642.4254    7162327.30249   5546951.04047                  22613642.5624
        47.7504         35.5004
  23070503.1754   -8759666.98749  -6816484.48447                  23070503.2574
        43.7504         31.5004
 02  7  1 15 50 59.9990000  0  8G 6G10G15G17G23G18G30G29
  19989386.7614   -4148208.94549  -3222047.00148                  19989385.2534
        50.5004         43.7504
  22345899.5194    4944356.92849   3831915.01747                  22345898.9684
        46.7504         38.7504
  21457832.4174   -9698878.23049  -7530308.42648                  21457831.6084
        47.7504         41.7504
  20914275.9724   -7593332.37749  -5896133.28148                  20914274.9374
        50.7504         44.0004
  20467317.2064   -4240126.77849  -3291668.34448                  20467315.5854
        53.5004         45.0004
  22609778.8004  -10806941.41749  -8409183.96647                  22609777.2224
        46.2504         36.0004
  22620814.5504    7200014.44449   5576317.60347                  22620815.0544
        47.5004         36.7504
  23062816.9874   -8800058.55949  -6847958.40847                  23062816.7064
        44.5004         32.2504
 02  7  1 15 51 14.9990000  0  8G 6G10G15G17G23G18G30G29
  19986801.0814   -4161795.86249  -3232634.20448                  19986799.6164
        52.0004         44.0004
  22351741.5654    4975058.26049   3855838.11047                  22351741.6404
        46.7504         38.2504
  21449387.9874   -9743253.79249  -7564886.78448                  21449387.2024
        48.5004         41.2504
  20907790.7454   -7627412.35249  -5922689.10548                  20907789.6014
        50.7504         43.5004
  20465407.7454   -4250160.22649  -3299486.60448                  20465406.1244
        53.5004         45.2504
  22597472.1364  -10871611.62949  -8459576.30847                  22597470.9994
        47.2504         35.7504
  22627989.7534    7237723.99649   5605701.62847                  22627990.2414
        48.7504         35.5004
  23055145.0424   -8840373.19249  -6879372.38847                  23055145.4054
        44.7504         31.0004
 02  7  1 15 51 29.9990000  0  8G 6G10G15G17G23G18G30G29
  19984234.5504   -4175285.38349  -3243145.52048                  19984232.7104
        50.2504         43.7504
  22357597.1124    5005828.02949   3879814.53747                  22357596.7454
        46.0004         38.0004
  21440953.3394   -9787579.73249  -7599426.46648                  21440952.8904
        47.2504         41.0004
  20901314.8314   -7661444.04149  -5949207.30448                  20901313.6054
        50.2504         43.5004
  20463521.9334   -4260071.68849  -3307209.81948                  20463520.5774
        53.2504         45.0004
  22585175.8004  -10936230.54449  -8509928.68247                  22585174.9994
        46.5004         36.2504
  22635171.9954    7275463.89949   5635109.29047                  22635172.4524
        48.0004         35.5004
  23047489.5654   -8880602.17449  -6910719.64647                  23047490.0854
        44.0004         31.5004
 02  7  1 15 51 44.9990000  0  8G 6G10G15G17G23G18G30G29
  19981684.9254   -4188683.26049  -3253585.43448                  19981683.2024
        51.7504         44.0004
  22363464.2534    5036660.00549   3903839.42947                  22363463.7844
        46.5004         38.0004
  21432526.3004   -9831861.95449  -7633932.08548                  21432525.6164
        47.7504         41.0004
  20894846.8864   -7695433.27649  -5975692.41548                  20894845.7374
        50.0004         44.0004
  20461657.5814   -4269867.23849  -3314842.71548                  20461656.3194
        53.5004         45.0004
  22572887.5424  -11000803.76949  -8560245.44847                  22572886.8194
        46.5004         36.5004
  22642357.7844    7313227.88649   5664535.72247                  22642358.1834
        47.5004         35.5004
  23039849.7304   -8920751.21149  -6942004.58947                  23039850.1754
        44.0004         32.0004
 02  7  1 15 51 59.9990000  0  8G 6G10G15G17G23G18G30G29
  19979152.6124   -4201989.75249  -3263954.13648                  19979151.0464
        52.0004         44.0004
  22369343.1674    5067553.50649   3927912.26847                  22369342.6514
        47.5004         38.5004
  21424107.9724   -9876100.90249  -7668403.98248                  21424107.2454
        47.5004         40.7504
  20888387.0264   -7729380.44949  -6002144.74648                  20888386.2414
        51.5004         44.0004
  20459815.6674   -4279547.35549  -3322385.66148                  20459814.1984
        53.2504         44.7504
  22560608.6594  -11065331.51549  -8610526.78047                  22560607.4524
        48.0004         36.2504
  22649548.5194    7351015.20349   5693980.34547                  22649548.9374
        47.7504         36.0004
  23032224.7844   -8960820.09849  -6973227.07847                  23032225.5224
        44.0004         32.5004
 02  7  1 15 52 14.9990000  0  8G 6G10G15G17G23G18G30G29
  19976638.7844   -4215200.10849  -3274247.92248                  19976637.1594
        52.7504         44.0004
  22375234.3944    5098512.85549   3952036.40947                  22375233.7884
        47.5004         38.2504
  21415698.7144   -9920291.83849  -7702838.46648                  21415698.1594
        49.0004         41.0004
  20881936.0814   -7763281.00149  -6028560.76248                  20881934.8624
        50.0004         43.5004
  20457996.1834   -4289107.48649  -3329835.11048                  20457994.7694
        52.2504         45.0004
  22548339.2614  -11129808.67049  -8660768.69247                  22548337.8704
        46.0004         36.2504
  22656744.7224    7388830.15849   5723446.49647                  22656744.6364
        47.5004         35.5004
  23024615.6904   -9000803.98749  -7004383.32547                  23024615.8354
        42.7504         32.0004
 02  7  1 15 52 29.9990000  0  8G 6G10G15G17G23G18G30G29
  19974142.9094   -4228315.64449  -3284467.81848                  19974141.3274
        52.5004         44.2504
  22381137.9404    5129536.27849   3976210.48647                  22381137.4444
        47.7504         37.7504
  21407298.4724   -9964436.14149  -7737236.61448                  21407298.2184
        49.0004         40.7504
  20875493.4334   -7797136.34249  -6054941.53148                  20875492.2694
        50.5004         43.5004
  20456199.7374   -4298549.15849  -3337192.25048                  20456198.2024
        53.7504         45.0004
  22536078.7304  -11194236.41149  -8710972.09847                  22536077.8194
        47.2504         36.7504
  22663945.4724    7426670.95849   5752932.79447                  22663945.9094
        47.5004         35.2504
  23017023.7374   -9040704.11749  -7035474.31547                  23017023.6054
        43.2504         32.5004
 02  7  1 15 52 44.9990000  0  8G 6G10G15G17G23G18G30G29
  19971664.6754   -4241339.26949  -3294616.11348                  19971662.8974
        53.0004         44.0004
  22387053.4484    5160620.31349   4000431.79347                  22387052.5694
        48.5004         37.7504
  21398906.3154  -10008536.91549  -7771600.84748                  21398905.3194
        49.5004         41.2504
  20869059.1754   -7830949.55949  -6081289.49648                  20869057.5304
        51.0004         44.0004
  20454425.1834   -4307875.63849  -3344459.64148                  20454423.3624
        52.7504         44.7504
  22523827.5654  -11258617.67549  -8761139.29847                  22523825.9014
        48.7504         36.5004
  22671150.4954    7464534.20549   5782436.55347                  22671151.5584
        47.0004         35.5004
  23009446.0654   -9080523.08049  -7066502.07647                  23009445.8004
        44.2504         32.7504
 02  7  1 15 52 59.9990000  0  8G 6G10G15G17G23G18G30G29
  19969204.0194   -4254270.05449  -3304692.04548                  19969202.7694
        52.2504         44.0004
  22392980.1204    5191765.46449   4024700.72247                  22392979.8004
        46.2504         37.5004
  21390522.7534  -10052593.25449  -7805930.44848                  21390521.9214
        48.0004         40.5004
  20862632.6284   -7864719.79849  -6107603.95548                  20862632.0194
        50.0004         43.5004
  20452672.0504   -4317086.14249  -3351636.65848                  20452670.6944
        52.7504         45.2504
  22511585.1124  -11322951.31349  -8811269.36447                  22511584.0074
        45.7504         37.2504
  22678360.0974    7502420.19949   5811958.08147                  22678360.9644
        47.0004         34.7504
  23001884.4564   -9120259.92849  -7097465.82147                  23001884.5304
        43.5004         32.2504
 02  7  1 15 53 14.9990000  0  8G 6G10G15G17G23G18G30G29
  19966761.6204   -4267105.30549  -3314693.54248                  19966760.0154
        52.5004         44.0004
  22398918.7374    5222973.91649   4049018.96647                  22398918.3904
        46.5004         37.5004
  21382147.9564  -10096602.49349  -7840223.35748                  21382146.9294
        49.2504         40.7504
  20856215.4954   -7898444.55949  -6133882.99448                  20856214.0154
        51.2504         43.5004
  20450941.9954   -4326178.20749  -3358721.38348                  20450940.8554
        53.0004         45.0004
  22499352.0194  -11387234.55049  -8861360.17547                  22499351.7264
        48.2504         37.5004
  22685574.5654    7540331.33149   5841499.16247                  22685574.5154
        47.5004         34.5004
  22994338.8944   -9159911.72549  -7128363.31247                  22994338.7884
        44.5004         32.5004
 02  7  1 15 53 29.9990000  0  8G 6G10G15G17G23G18G30G29
  19964338.5584   -4279838.57449  -3324615.57748                  19964336.6404
        52.0004         43.7504
  22404870.5814    5254251.70749   4073391.24447                  22404869.9444
        46.2504         37.7504
  21373783.4804  -10140558.32649  -7874474.64248                  21373782.6984
        47.7504         41.0004
  20849807.3004   -7932117.37849  -6160121.54648                  20849806.0814
        51.5004         44.0004
  20449235.8004   -4335145.62049  -3365708.98148                  20449234.3514
        53.5004         45.0004
  22487131.1124  -11451460.64849  -8911406.46647                  22487129.1834
        48.7504         37.2504
  22692795.2144    7578273.54649   5871064.48147                  22692795.2414
        47.2504         35.2504
  22986811.0814   -9199471.78549  -7159189.31247                  22986811.0114
        45.2504         33.0004
 02  7  1 15 53 44.9990000  0  8G 6G10G15G17G23G18G30G29
  19961934.4094   -4292473.95649  -3334461.33648                  19961932.8944
        53.5004         44.0004
  22410835.1984    5285594.30749   4097814.02247                  22410834.9444
        47.0004         37.2504
  21365428.1284  -10184464.94949  -7908687.58248                  21365427.2264
        48.5004         41.0004
  20843409.1984   -7965742.71849  -6186323.09848                  20843407.8274
        50.0004         44.0004
  20447552.1984   -4343992.69049  -3372602.79948                  20447550.5654
        53.0004         45.5004
  22474918.7064  -11515633.40249  -8961411.18847                  22474917.3004
        46.2504         36.7504
  22700020.0114    7616242.26449   5900650.43347                  22700019.9604
        47.5004         34.5004
  22979300.2224   -9238943.96949  -7189946.82847                  22979299.7304
        44.7504         33.2504
 02  7  1 15 53 59.9990000  0  8G 6G10G15G17G23G18G30G29
  19959547.7454   -4305014.86149  -3344233.45648                  19959546.3274
        52.5004         44.0004
  22416810.8004    5316997.72349   4122284.19347                  22416810.2614
        47.2504         37.7504
  21357081.4724  -10228325.84749  -7942864.89648                  21357080.9404
        49.2504         40.7504
  20837018.4954   -7999323.93949  -6212490.28748                  20837017.2224
        51.0004         44.0004
  20445890.8474   -4352723.10249  -3379405.71248                  20445889.0934
        53.7504         45.2504
  22462716.1444  -11579756.25549  -9011377.01047                  22462715.7064
        47.2504         37.7504
  22707249.8864    7654233.56249   5930254.01247                  22707249.6834
        47.7504         34.5004
  22971804.2374   -9278331.46549  -7220638.38247                  22971804.7104
        44.2504         32.7504
 02  7  1 15 54 14.9990000  0  8G 6G10G15G17G23G18G30G29
  19957179.3474   -4317460.36449  -3353931.26048                  19957177.8584
        52.7504         44.2504
  22422798.3944    5348462.52449   4146802.19047                  22422798.2024
        46.2504         37.0004
  21348744.2454  -10272140.30849  -7977006.03448                  21348743.2694
        48.7504         41.0004
  20830636.5264   -8032860.36949  -6238622.56948                  20830635.2334
        51.0004         44.2504
  20444251.7454   -4361336.22949  -3386117.24748                  20444250.6984
        53.0004         45.2504
  22450524.2304  -11643828.26149  -9061303.24247                  22450522.7414
        47.5004         37.5004
  22714483.4174    7692247.81149   5959875.43547                  22714484.1284
        47.2504         35.0004
  22964325.6984   -9317633.28549  -7251263.16347                  22964325.9054
        43.0004         33.2504
 02  7  1 15 54 29.9990000  0  8G 6G10G15G17G23G18G30G29
  19954829.1594   -4329811.23749  -3363555.33348                  19954827.5114
        52.5004         44.0004
  22428797.8624    5379987.39349   4171366.98447                  22428797.0814
        47.0004         37.0004
  21340415.3864  -10315909.16649  -8011111.63548                  21340414.8904
        49.2504         40.7504
  20824263.5654   -8066352.84049  -6264720.59748                  20824262.0584
        50.5004         44.0004
  20442634.8944   -4369833.09649  -3392738.18248                  20442633.4294
        53.5004         45.0004
  22438341.3394  -11707849.93449  -9111190.23247                  22438339.5654
        46.5004         37.2504
  22721721.9564    7730283.90449   5989513.90647                  22721722.2184
        46.7504         34.2504
  22956862.9254   -9356849.96849  -7281821.59947                  22956862.8194
        45.2504         33.0004
 02  7  1 15 54 44.9990000  0  8G 6G10G15G17G23G18G30G29
  19952496.9804   -4342066.95549  -3373105.23548                  19952495.0734
        53.2504         44.2504
  22434808.0974    5411572.44949   4195978.70047                  22434807.6204
        47.0004         37.2504
  21332094.9014  -10359631.93549  -8045181.30248                  21332094.5654
        49.2504         40.7504
  20817898.3474   -8099801.10549  -6290784.16648                  20817897.7144
        50.5004         44.2504
  20441039.9724   -4378213.34449  -3399268.24348                  20441038.8234
        52.7504         45.2504
  22426167.8624  -11771820.56649  -9161037.45947                  22426166.6124
        47.0004         37.0004
  22728964.2144    7768341.78149   6019169.34347                  22728964.2374
        45.7504         33.5004
  22949416.7224   -9395980.80049  -7312313.15747                  22949416.4214
        43.0004         33.0004
 02  7  1 15 54 59.9990000  0  8G 6G10G15G17G23G18G30G29
  19950183.4014   -4354224.75449  -3382578.85848                  19950182.0154
        53.2504         44.2504
  22440830.1444    5443220.03049   4220639.13047                  22440830.2064
        47.5004         37.2504
  21323783.9644  -10403305.93549  -8079212.98048                  21323783.7694
        49.5004         41.2504
  20811542.2064   -8133202.36549  -6316811.11248                  20811541.0504
        51.0004         44.0004
  20439467.9174   -4386474.45049  -3405705.45948                  20439466.7924
        53.0004         45.0004
  22414005.0504  -11835737.27749  -9210842.65347                  22414003.9174
        47.7504         37.5004
  22736210.3704    7806423.74949   6048843.56447                  22736210.8744
        46.5004         33.7504
  22941987.1284   -9435022.80649  -7342735.44947                  22941987.3274
        45.5004         33.0004
 02  7  1 15 55 14.9990000  0  8G 6G10G15G17G23G18G30G29
  19947888.3004   -4366285.70049  -3391976.98948                  19947886.4684
        53.5004         44.0004
  22446864.0344    5474928.57849   4245347.04747                  22446863.7374
        45.7504         37.5004
  21315482.3624  -10446932.30349  -8113207.55248                  21315481.7024
        48.7504         40.7504
  20805194.8234   -8166557.92149  -6342802.46748                  20805193.5464
        50.7504         43.7504
  20437918.3944   -4394617.71749  -3412050.87048                  20437917.0854
        53.0004         45.0004
  22401852.1054  -11899600.91549  -9260606.52747                  22401850.6944
        48.2504         37.5004
  22743461.5974    7844528.27749   6078535.35147                  22743462.3274
        46.0004         34.2504
  22934574.2534   -9473976.86149  -7373089.25847                  22934574.6014
        43.5004         33.2504
 02  7  1 15 55 29.9990000  0  8G 6G10G15G17G23G18G30G29
  19945611.2224   -4378250.22449  -3401299.99548                  19945609.7614
        53.2504         44.0004
  22452909.9254    5506697.15449   4270101.78147                  22452909.9914
        47.0004         36.5004
  21307189.2144  -10490511.68249  -8147165.48548                  21307188.2224
        49.5004         41.0004
  20798856.1444   -8199868.24749  -6368758.54648                  20798855.0974
        51.2504         44.0004
  20436391.1054   -4402643.85049  -3418304.98748                  20436389.7224
        53.0004         45.0004
  22389709.2374  -11963411.78749  -9310329.25647                  22389707.9954
        48.2504         37.2504
  22750716.5584    7882654.43249   6108243.98847                  22750717.2574
        45.2504         34.0004
  22927177.9954   -9512843.23049  -7403374.71147                  22927178.3744
        45.0004         32.5004
 02  7  1 15 55 44.9990000  0  8G 6G10G15G17G23G18G30G29
  19943353.6364   -4390115.47049  -3410545.65048                  19943352.3084
        54.0004         44.2504
  22458966.9254    5538528.18049   4294905.14547                  22458966.3194
        47.0004         36.7504
  21298905.9254  -10534041.35449  -8181084.70348                  21298905.3474
        49.0004         41.0004
  20792526.6514   -8233130.58549  -6394677.25548                  20792525.2304
        51.0004         44.0004
  20434886.6364   -4410550.17749  -3424465.76348                  20434885.0854
        53.5004         45.0004
  22377577.0504  -12027166.97149  -9360008.60047                  22377575.8624
        47.7504         37.5004
  22757977.0584    7920804.63749   6137971.37347                  22757977.0894
        45.2504         34.2504
  22919799.2764   -9551618.78149  -7433589.40347                  22919799.2844
        46.0004         32.7504
 02  7  1 15 55 59.9990000  0  8G 6G10G15G17G23G18G30G29
  19941114.0504   -4401884.70349  -3419716.47648                  19941112.4994
        53.5004         44.0004
  22465035.2144    5570417.82349   4319754.20047                  22465035.0774
        48.0004         37.0004
  21290631.1984  -10577524.62149  -8214967.75248                  21290630.8514
        49.5004         41.0004
  20786205.3154   -8266348.52149  -6420561.34748                  20786204.1594
        50.0004         44.0004
  20433404.0424   -4418340.29049  -3430535.97448                  20433402.8944
        53.7504         45.2504
  22365454.6204  -12090869.55349  -9409646.96447                  22365453.3944
        47.0004         37.5004
  22765240.7694    7958975.13549   6167714.56847                  22765240.3904
        45.5004         34.5004
  22912437.5654   -9590306.85249  -7463735.94347                  22912437.5934
        46.0004         32.7504
 02  7  1 15 56 14.9990000  0  8G 6G10G15G17G23G18G30G29
  19938892.9174   -4413556.57749  -3428811.46248                  19938891.4994
        53.7504         44.2504
  22471114.8554    5602367.07149   4344649.67447                  22471114.6944
        47.7504         37.0004
  21282365.8474  -10620960.21349  -8248813.67148                  21282364.4404
        49.5004         41.2504
  20779892.5584   -8299520.69749  -6446409.80548                  20779891.5974
        50.2504         44.5004
  20431944.4254   -4426013.10949  -3436514.80748                  20431942.5624
        53.2504         45.0004
  22353342.9404  -12154517.97649  -9459243.14047                  22353341.4604
        47.0004         37.5004
  22772508.1514    7997166.75449   6197474.20447                  22772508.2494
        43.7504         33.5004
  22905092.6594   -9628905.68349  -7493812.96647                  22905092.1634
        46.5004         33.2504
 02  7  1 15 56 29.9990000  0  8G 6G10G15G17G23G18G30G29
  19936690.5424   -4425129.69449  -3437829.46848                  19936689.3514
        52.5004         44.5004
  22477206.6284    5634376.87049   4369592.35547                  22477206.2494
        47.0004         37.0004
  21274109.7224  -10664346.80649  -8282621.38648                  21274109.2534
        49.0004         41.2504
  20773588.9484   -8332645.88349  -6472221.62948                  20773588.0934
        50.5004         44.5004
  20430506.8084   -4433567.44649  -3442401.30248                  20430505.1634
        52.0004         45.2504
  22341241.8624  -12218110.72849  -9508795.89447                  22341240.6324
        46.7504         38.0004
  22779779.5654    8035380.38249   6227251.03347                  22779779.5544
        42.5004         32.5004
  22897764.3004   -9667413.79349  -7523819.25947                  22897763.9134
        46.0004         33.5004
 02  7  1 15 56 44.9990000  0  8G 6G10G15G17G23G18G30G29
  19934507.1674   -4436604.81649  -3446771.14448                  19934505.1944
        53.0004         44.7504
  22483308.5894    5666445.93149   4394581.19747                  22483308.7924
        46.2504         37.0004
  21265862.6284  -10707685.19549  -8316391.55948                  21265861.8274
        48.5004         41.0004
  20767294.5734   -8365724.90449  -6497997.49748                  20767293.5624
        50.7504         44.7504
  20429091.1364   -4441004.35249  -3448196.30048                  20429089.8944
        53.0004         45.2504
  22329151.2534  -12281648.44749  -9558305.79447                  22329149.4564
        48.2504         37.5004
  22787055.8084    8073614.90649   6257044.09447                  22787055.9604
        42.5004         33.2504
  22890453.7064   -9705831.65249  -7553755.22847                  22890453.4914
        44.7504         33.5004
 02  7  1 15 56 59.9990000  0  8G 6G10G15G17G23G18G30G29
  19932341.2144   -4447986.26349  -3455639.78848                  19932339.7304
        53.7504         44.5004
  22489422.1054    5698569.55649   4419612.56547                  22489421.9764
        47.5004         37.0004
  21257623.8474  -10750979.90349  -8350127.67248                  21257623.0224
        49.2504         41.5004
  20761007.7304   -8398762.27749  -6523740.89348                  20761006.9094
        51.0004         44.5004
  20427697.6984   -4448328.35849  -3453903.30848                  20427696.3124
        53.0004         45.0004
  22317069.8554  -12345135.23849  -9607776.01247                  22317068.5584
        48.2504         37.2504
  22794334.0424    8111865.51549   6286849.72147                  22794334.8474
        45.0004         33.0004
  22883159.4804   -9744163.57249  -7583624.23447                  22883159.3124
        44.5004         33.5004
 02  7  1 15 57 14.9990000  0  8G 6G10G15G17G23G18G30G29
  19930195.2374   -4459263.11349  -3464426.95348                  19930193.4604
        53.5004         44.0004
  22495547.1754    5730758.19049   4444694.58547                  22495547.0464
        46.5004         37.2504
  21249395.6284  -10794220.09849  -8383821.33748                  21249394.8084
        49.2504         41.2504
  20754731.1514   -8431747.12349  -6549443.37248                  20754729.9994
        50.7504         44.0004
  20426327.4254   -4455528.76549  -3459514.01648                  20426325.9134
        53.2504         45.0004
  22305000.4094  -12408560.00049  -9657197.87147                  22304999.2764
        48.2504         37.5004
  22801618.4644    8150142.68449   6316676.01647                  22801619.0424
        44.5004         33.2504
  22875883.2064   -9782398.26749  -7613417.49147                  22875883.7764
        44.5004         33.0004
 02  7  1 15 57 29.9990000  0  8G 6G10G15G17G23G18G30G29
  19928068.1444   -4470441.51749  -3473137.40748                  19928066.2454
        53.5004         44.2504
  22501683.6054    5763005.28449   4469822.17547                  22501683.3744
        47.2504         37.0004
  21241176.3624  -10837411.97249  -8417477.32848                  21241175.8744
        49.0004         41.2504
  20748462.7304   -8464685.73949  -6575109.82448                  20748462.1834
        49.7504         44.0004
  20424979.6904   -4462611.94649  -3465033.37648                  20424978.4444
        52.7504         45.5004
  22292941.8004  -12471928.74049  -9706576.09747                  22292940.0774
        46.7504         37.7504
  22808905.9644    8188439.68849   6346517.79047                  22808906.6164
        44.5004         33.5004
  22868624.8394   -9820541.59549  -7643139.55647                  22868624.7764
        45.5004         32.7504
 02  7  1 15 57 44.9990000  0  8G 6G10G15G17G23G18G30G29
  19925960.4804   -4481515.87749  -3481766.78948                  19925959.3394
        53.2504         44.0004
  22507832.5114    5795315.85849   4494999.20447                  22507831.7494
        47.7504         37.2504
  21232967.6514  -10880550.18649  -8451091.52848                  21232967.1014
        49.2504         41.5004
  20742205.0424   -8497572.73749  -6600736.05848                  20742203.9444
        50.0004         44.0004
  20423654.9724   -4469572.60049  -3470457.27548                  20423653.4294
        53.0004         45.2504
  22280895.0194  -12535235.72349  -9755906.21047                  22280893.6444
        47.5004         37.7504
  22816198.6514    8226761.72549   6376379.06447                  22816199.2374
        45.0004         32.7504
  22861385.7144   -9858588.18449  -7672786.24947                  22861385.1014
        47.0004         33.5004
 02  7  1 15 57 59.9990000  0  8G 6G10G15G17G23G18G30G29
  19923872.0814   -4492491.70049  -3490319.38348                  19923870.3194
        54.0004         44.5004
  22513991.5264    5827684.04049   4520221.14947                  22513991.4174
        47.5004         36.7504
  21224767.4874  -10923640.24149  -8484668.17448                  21224766.9564
        49.5004         41.5004
  20735955.4094   -8530413.68449  -6626326.39748                  20735954.1324
        50.5004         44.0004
  20422352.5894   -4476416.45649  -3475790.14348                  20422351.2614
        52.0004         45.0004
  22268858.6054  -12598486.35149  -9805192.39347                  22268857.3314
        47.7504         37.2504
  22823494.3314    8265102.78949   6406255.17247                  22823494.3234
        43.5004         32.5004
  22854162.2844   -9896543.05849  -7702361.45747                  22854162.4604
        45.7504         32.5004
 02  7  1 15 58 14.9990000  0  8G 6G10G15G17G23G18G30G29
  19921801.6904   -4503371.19549  -3498796.92748                  19921799.9054
        53.2504         44.0004
  22520161.5344    5860107.14449   4545485.87347                  22520160.7064
        47.2504         36.2504
  21216576.7694  -10966684.40849  -8518209.08148                  21216575.9524
        49.2504         41.0004
  20729714.0814   -8563210.99749  -6651882.74748                  20729713.2454
        49.7504         44.0004
  20421072.0264   -4483145.96049  -3481033.92748                  20421070.5034
        53.5004         44.7504
  22256832.3784  -12661682.72849  -9854436.30347                  22256831.2064
        47.0004         38.0004
  22830793.6364    8303460.10549   6436143.94447                  22830793.9214
        45.0004         32.7504
  22846956.5894   -9934408.26349  -7731866.79447                  22846956.6474
        45.2504         33.7504
 02  7  1 15 58 29.9990000  0  8G 6G10G15G17G23G18G30G29
  19919749.8704   -4514153.94849  -3507199.06448                  19919748.6834
        53.7504         44.0004
  22526342.1204    5892585.17549   4570793.41547                  22526342.2334
        46.0004         36.7504
  21208394.1054  -11009682.30449  -8551713.92148                  21208393.6084
        48.0004         41.0004
  20723481.4174   -8595964.33449  -6677404.81948                  20723480.4214
        49.5004         44.2504
  20419813.3784   -4489760.95449  -3486188.44948                  20419811.9444
        52.7504         45.0004
  22244817.3864  -12724824.18949  -9903637.41747                  22244816.2964
        46.7504         37.7504
  22838096.0814    8341833.82449   6466045.50047                  22838096.6944
        44.5004         33.7504
  22839768.8314   -9972183.19449  -7761301.79547                  22839768.3474
        47.0004         33.5004
 02  7  1 15 58 44.9990000  0  8G 6G10G15G17G23G18G30G29
  19917716.9804   -4524835.83549  -3515522.62248                  19917715.5934
        53.5004         44.2504
  22532533.7374    5925121.84849   4596146.63847                  22532533.4484
        46.5004         37.2504
  21200222.0034  -11052629.97549  -8585179.63548                  21200220.8154
        48.2504         40.7504
  20717257.8864   -8628669.67949  -6702889.50348                  20717256.9874
        50.0004         44.0004
  20418576.9954   -4496257.61849  -3491250.79348                  20418575.5114
        52.2504         45.0004
  22232812.2694  -12787906.46549  -9952792.41847                  22232811.7334
        48.0004         37.7504
  22845402.7844    8380227.43949   6495962.53847                  22845403.2924
        43.0004         34.0004
  22832598.1904  -10009863.62849  -7790663.14447                  22832598.9294
        45.0004         33.2504
 02  7  1 15 58 59.9990000  0  8G 6G10G15G17G23G18G30G29
  19915703.1124   -4535419.04249  -3523769.27948                  19915701.6244
        53.5004         44.2504
  22538735.9724    5957714.39449   4621543.39147                  22538735.3434
        47.2504         37.5004
  21192057.8554  -11095529.57949  -8618607.88848                  21192057.3084
        48.7504         41.5004
  20711042.7144   -8661329.31149  -6728338.56848                  20711041.8704
        49.7504         44.0004
  20417362.9954   -4502638.34549  -3496222.78548                  20417361.8624
        52.7504         45.0004
  22220819.4954  -12850931.55649 -10001902.86947                  22220817.6674
        46.5004         38.0004
  22852711.4174    8418638.34349   6525893.05147                  22852712.2694
        44.0004         33.0004
  22825445.1444  -10047451.57949  -7819952.44347                  22825445.5224
        45.2504         33.7504
 02  7  1 15 59 14.9990000  0  8G 6G10G15G17G23G18G30G29
  19913709.1204   -4545900.10249  -3531936.33748                  19913707.0304
        53.0004         44.2504
  22544949.4404    5990365.94549   4646986.13047                  22544949.1324
        46.7504         37.0004
  21183904.4334  -11138377.73549  -8651996.05048                  21183903.8234
        48.7504         41.2504
  20704837.2694   -8693939.86349  -6753749.37648                  20704836.4564
        50.5004         44.0004
  20416171.3314   -4508899.81649  -3501101.85848                  20416169.4994
        52.2504         45.0004
  22208838.1674  -12913895.80849 -10050965.91447                  22208837.0224
        47.5004         37.7504
  22860025.3004    8457069.57549   6555839.42847                  22860025.4054
        43.7504         33.2504
  22818310.9954  -10084943.25349  -7849166.72347                  22818310.9834
        46.2504         33.5004
 02  7  1 15 59 29.9990000  0  8G 6G10G15G17G23G18G30G29
  19911733.1444   -4556282.21149  -3540026.30748                  19911731.5974
        53.5004         44.0004
  22551173.1674    6023072.82049   4672471.98447                  22551173.5194
        46.5004         37.0004
  21175759.5814  -11181177.76249  -8685346.71348                  21175759.1944
        48.5004         41.0004
  20698640.2144   -8726504.71249  -6779124.58548                  20698639.4564
        50.7504         43.5004
  20415001.8784   -4515045.63749  -3505890.81248                  20415000.2454
        52.0004         45.5004
  22196866.7374  -12976802.26449 -10099983.91147                  22196865.8124
        48.0004         37.5004
  22867341.8394    8495517.51649   6585798.80147                  22867341.8124
        43.5004         33.2504
  22811194.1124  -10122341.79749  -7878308.42647                  22811194.0154
        46.0004         33.2504
 02  7  1 15 59 44.9990000  0  8G 6G10G15G17G23G18G30G29
  19909776.1834   -4566566.27049  -3548039.86748                  19909774.9524
        53.2504         44.0004
  22557407.1284    6055833.51149   4697999.77147                  22557407.1874
        47.2504         37.2504
  21167623.9874  -11223930.79949  -8718660.75348                  21167623.2224
        50.0004         40.7504
  20692452.0344   -8759024.85349  -6804464.95548                  20692450.7534
        50.7504         44.0004
  20413854.0344   -4521076.93149  -3510590.51948                  20413852.4524
        52.0004         44.7504
  22184906.8154  -13039651.83449 -10148957.57947                  22184905.9214
        47.0004         37.7504
  22874660.7454    8533980.68149   6615770.04947                  22874661.2924
        44.0004         33.2504
  22804095.5814  -10159647.85749  -7907378.07547                  22804095.0074
        46.5004         33.7504
 02  7  1 15 59 59.9990000  0  8G 6G10G15G17G23G18G30G29
  19907838.1054   -4576750.86149  -3555975.91748                  19907836.4764
        53.7504         44.0004
  22563652.6054    6088649.19549   4723570.40347                  22563651.7924
        46.5004         36.7504
  21159497.7454  -11266635.45649  -8751937.11148                  21159497.0934
        49.5004         41.0004
  20686272.4094   -8791499.18349  -6829769.63048                  20686270.9294
        50.0004         43.7504
  20412728.4014   -4526992.58449  -3515200.12748                  20412726.6084
        52.5004         45.2504
  22172958.4724  -13102442.98849 -10197885.74947                  22172957.0384
        46.5004         38.0004
  22881982.7614    8572460.08949   6645753.93347                  22881983.4954
        42.7504         32.7504
  22797013.6904  -10196859.97049  -7936374.50847                  22797014.4014
        45.5004         33.2504
 02  7  1 16  0 14.9990000  0  8G 6G10G15G17G23G18G30G29
  19905919.3624   -4586833.78349  -3563832.74348                  19905917.2534
        53.7504         44.0004
  22569907.4954    6121521.63049   4749185.24847                  22569907.3664
        47.0004         37.2504
  21151380.8314  -11309289.65549  -8785174.14048                  21151379.7494
        49.5004         41.5004
  20680101.8004   -8823925.41449  -6855036.82248                  20680100.3664
        50.5004         43.5004
  20411624.9724   -4532790.62449  -3519718.08148                  20411623.3554
        53.5004         45.0004
  22161021.4564  -13165173.23349 -10246766.43847                  22161020.2694
        47.2504         37.7504
  22889309.2064    8610957.35749   6675751.76147                  22889309.5544
        44.5004         33.2504
  22789951.1124  -10233975.70549  -7965295.84447                  22789951.3394
        46.2504         33.5004
 02  7  1 16  0 29.9990000  0  8G 6G10G15G17G23G18G30G29
  19904019.0424   -4596818.88649  -3571613.34948                  19904017.4174
        53.7504         44.0004
  22576173.3704    6154446.48949   4774840.97147                  22576173.2574
        46.2504         36.5004
  21143272.7224  -11351897.21549  -8818374.82848                  21143271.9804
        48.7504         41.5004
  20673939.5654   -8856307.46349  -6880269.57848                  20673938.6014
        49.2504         43.5004
  20410543.4404   -4538475.00449  -3524147.46348                  20410542.0304
        52.7504         45.0004
  22149095.3394  -13227846.20949 -10295602.49847                  22149093.9374
        46.0004         37.2504
  22896637.2304    8649468.30349   6705760.23547                  22896638.0424
        44.5004         33.0004
  22782905.9254  -10270998.48449  -7994144.74647                  22782905.8474
        46.0004         33.7504
 02  7  1 16  0 44.9990000  0  8G 6G10G15G17G23G18G30G29
  19902138.7454   -4606701.07049  -3579313.75948                  19902137.1904
        53.7504         44.0004
  22582449.2534    6187428.41349   4800541.13647                  22582448.7764
        45.7504         36.2504
  21135174.7304  -11394453.13549  -8851535.27648                  21135174.4444
        48.7504         42.0004
  20667787.0654   -8888640.45449  -6905464.11548                  20667785.6164
        50.5004         43.5004
  20409484.2454   -4544040.93749  -3528484.56748                  20409483.0464
        53.2504         45.0004
  22137180.7224  -13290456.68849 -10344389.87647                  22137179.5114
        48.2504         37.5004
  22903969.6124    8687997.65649   6735783.04847                  22903970.3314
        44.5004         33.0004
  22775879.3624  -10307923.28849  -8022917.31047                  22775879.1754
        46.0004         34.2504
 02  7  1 16  0 59.9990000  0  8G 6G10G15G17G23G18G30G29
  19900277.8394   -4616482.33549  -3586935.53348                  19900275.8824
        53.2504         44.0004
  22588735.7224    6220464.91049   4826283.83247                  22588735.4834
        47.7504         36.7504
  21127086.2374  -11436959.51649  -8884657.12548                  21127085.5934
        49.5004         41.0004
  20661643.2694   -8920926.49349  -6930622.06448                  20661641.5774
        50.0004         43.7504
  20408447.0034   -4549490.70549  -3532731.13848                  20408445.6124
        53.2504         44.7504
  22125277.9174  -13353006.50149 -10393129.97147                  22125276.8274
        47.2504         37.7504
  22911303.7694    8726542.75149   6765818.14547                  22911305.4444
        44.5004         32.7504
  22768871.3084  -10344751.84049  -8051614.87947                  22768871.1874
        46.7504         34.2504
 02  7  1 16  1 14.9990000  0  8G 6G10G15G17G23G18G30G29
  19898435.1514   -4626163.34849  -3594479.18248                  19898433.7694
        52.7504         44.0004
  22595032.4564    6253554.88549   4852068.19747                  22595032.5264
        46.7504         36.0004
  21119006.4484  -11479417.10949  -8917740.95548                  21119005.8004
        49.7504         41.0004
  20655508.0264   -8953166.30349  -6955743.99648                  20655506.8084
        50.0004         43.7504
  20407431.8394   -4554825.24749  -3536887.92948                  20407430.2694
        53.5004         45.0004
  22113386.8554  -13415496.12649 -10441823.16347                  22113385.2764
        47.0004         37.5004
  22918642.1514    8765102.56349   6795864.68047                  22918642.6594
        45.0004         33.5004
  22761881.1834  -10381484.59649  -8080237.78747                  22761880.6794
        46.5004         34.5004
 02  7  1 16  1 29.9990000  0  8G 6G10G15G17G23G18G30G29
  19896612.2534   -4635743.37349  -3601944.14248                  19896610.6054
        53.0004         44.2504
  22601339.5034    6286698.63549   4877894.46647                  22601339.6084
        47.7504         36.0004
  21110936.5264  -11521825.18949  -8950786.20448                  21110935.5934
        50.0004         41.5004
  20649382.1594   -8985359.28949  -6980829.43448                  20649380.9404
        51.0004         43.7504
  20406438.8234   -4560044.04749  -3540954.53048                  20406437.6054
        53.0004         45.0004
  22101506.5194  -13477924.62949 -10490468.73047                  22101505.7144
        48.0004         37.7504
  22925982.7694    8803677.50149   6825923.00547                  22925983.7844
        45.7504         33.5004
  22754909.3154  -10418120.72449  -8108785.39647                  22754909.2764
        46.7504         33.2504
 02  7  1 16  1 44.9990000  0  8G 6G10G15G17G23G18G30G29
  19894808.0894   -4645224.27749  -3609331.86748                  19894806.2064
        53.5004         44.0004
  22607656.4254    6319893.86749   4903760.85147                  22607655.9174
        47.0004         35.7504
  21102875.7144  -11564185.73149  -8983794.41048                  21102874.9094
        50.2504         41.5004
  20643264.5344   -9017507.44549  -7005879.94848                  20643263.3124
        51.5004         43.7504
  20405467.5424   -4565149.26449  -3544932.61848                  20405466.2844
        53.7504         45.0004
  22089638.3944  -13540293.82349 -10539068.07547                  22089637.1444
        49.0004         38.0004
  22933325.7534    8842265.07649   6855991.18247                  22933326.3124
        46.2504         33.0004
  22747955.8784  -10454661.86849  -8137258.99347                  22747955.9334
        47.0004         33.2504
 02  7  1 16  1 59.9990000  0  8G 6G10G15G17G23G18G30G29
  19893024.3084   -4654598.67949  -3616636.59548                  19893022.6944
        53.7504         44.5004
  22613984.4874    6353147.58749   4929672.82847                  22613984.1404
        46.2504         35.5004
  21094825.2064  -11606491.40249  -9016759.84948                  21094824.6014
        49.7504         42.2504
  20637156.8704   -9049603.50949  -7030889.86248                  20637155.4444
        51.2504         43.7504
  20404518.6754   -4570133.74949  -3548816.64048                  20404517.2184
        53.7504         44.7504
  22077782.0734  -13602596.06649 -10587615.25247                  22077780.9684
        48.5004         38.0004
  22940672.4724    8880872.23049   6886074.63047                  22940672.6554
        46.0004         33.0004
  22741021.8084  -10491100.42049  -8165652.66347                  22741021.7884
        47.2504         34.0004
 02  7  1 16  2 14.9990000  0  8G 6G10G15G17G23G18G30G29
  19891259.4404   -4663871.96749  -3623862.54748                  19891258.0854
        53.0004         44.2504
  22620322.5034    6386453.86449   4955625.74047                  22620322.6674
        45.5004         35.5004
  21086784.0114  -11648747.76449  -9049686.87748                  21086783.1244
        49.5004         41.7504
  20631058.2844   -9081652.86749  -7055863.38448                  20631056.4564
        51.2504         44.7504
  20403592.3154   -4575003.15149  -3552610.98148                  20403590.3784
        53.7504         45.0004
  22065938.3154  -13664836.64549 -10636114.38947                  22065936.9134
        48.0004         38.2504
  22948020.9954    8919493.19049   6916168.83447                  22948022.2224
        45.7504         32.2504
  22734106.2614  -10527441.54749  -8193970.40547                  22734106.1324
        47.5004         34.0004
 02  7  1 16  2 29.9990000  0  8G 6G10G15G17G23G18G30G29
  19889514.8624   -4673040.95749  -3631007.21448                  19889513.1084
        53.5004         44.0004
  22626671.0654    6419815.45549   4981621.75947                  22626670.8704
        46.0004         35.0004
  21078753.1754  -11690951.66949  -9082573.02248                  21078752.3194
        50.2504         41.5004
  20624968.8624   -9113652.55249  -7080798.20848                  20624967.7224
        51.0004         44.5004
  20402688.2374   -4579754.47349  -3556313.31248                  20402686.9054
        54.0004         45.0004
  22054106.9404  -13727012.27949 -10684562.90547                  22054105.9294
        48.0004         38.5004
  22955374.0424    8958130.64949   6946275.88847                  22955374.7374
        45.5004         33.0004
  22727209.7924  -10563681.96749  -8222209.67247                  22727210.3584
        46.7504         33.5004
 02  7  1 16  2 44.9990000  0  8G 6G10G15G17G23G18G30G29
  19887788.6054   -4682112.95749  -3638076.30848                  19887786.4214
        53.5004         44.0004
  22633028.4014    6453224.57349   5007654.80647                  22633028.5624
        46.2504         35.2504
  21070730.1444  -11733110.57049  -9115424.10448                  21070730.0344
        50.2504         41.5004
  20618886.9564   -9145609.97549  -7105700.09048                  20618886.2574
        51.2504         44.2504
  20401805.2614   -4584395.35049  -3559929.58248                  20401803.6204
        53.5004         44.7504
  22042286.0894  -13789130.14249 -10732966.40847                  22042284.3664
        48.5004         38.0004
  22962728.6754    8996776.85049   6976389.73447                  22962729.5504
        44.5004         32.0004
  22720331.5034  -10599828.72349  -8250375.97647                  22720331.1554
        47.0004         33.5004
 02  7  1 16  2 59.9990000  0  8G 6G10G15G17G23G18G30G29
  19886081.1054   -4691085.28249  -3645067.73548                  19886079.5544
        53.7504         44.0004
  22639395.2224    6486683.48649   5033726.66347                  22639395.7964
        45.2504         34.2504
  21062716.7694  -11775221.87949  -9148238.10948                  21062715.7694
        50.2504         41.2504
  20612814.5504   -9177522.52449  -7130567.00948                  20612813.5934
        50.5004         43.5004
  20400943.2224   -4588923.32449  -3563457.87348                  20400941.6244
        53.5004         44.7504
  22030477.2224  -13851187.39149 -10781322.68847                  22030475.1444
        47.7504         38.2504
  22970084.4094    9035434.00449   7006512.12247                  22970085.2064
        44.0004         31.5004
  22713471.2694  -10635879.14749  -8278467.18847                  22713471.2574
        47.2504         33.7504
 02  7  1 16  3 14.9990000  0  8G 6G10G15G17G23G18G30G29
  19884393.0974   -4699955.90949  -3651979.91748                  19884391.2334
        53.5004         44.0004
  22645772.5114    6520193.82349   5059838.58147                  22645772.3314
        45.5004         34.5004
  21054712.6364  -11817283.52449  -9181013.40148                  21054711.9604
        50.2504         42.0004
  20606750.7534   -9209388.42049  -7155397.57548                  20606749.3354
        50.7504         43.7504
  20400103.4644   -4593336.64049  -3566896.81948                  20400101.8824
        53.0004         44.7504
  22018680.1904  -13913181.74249 -10829629.94147                  22018678.6874
        48.7504         38.5004
  22977443.5344    9074103.59249   7036644.22247                  22977444.6944
        44.5004         31.5004
  22706629.9804  -10671830.87049  -8306481.50447                  22706629.8044
        47.0004         34.2504
 02  7  1 16  3 29.9990000  0  8G 6G10G15G17G23G18G30G29
  19882723.7924   -4708727.90349  -3658815.24448                  19882722.0384
        53.0004         44.0004
  22652157.9564    6553752.12949   5085987.87947                  22652158.2104
        45.5004         35.0004
  21046717.5504  -11859298.65649  -9213752.45348                  21046716.5344
        50.5004         42.0004
  20600695.0424   -9241210.65349  -7180194.11448                  20600694.0934
        51.5004         44.0004
  20399284.9954   -4597638.58349  -3570248.99048                  20399282.9874
        53.0004         45.0004
  22006894.0424  -13975116.07849 -10877890.44547                  22006892.5224
        48.7504         38.2504
  22984803.9404    9112782.19949   7066783.33347                  22984804.3084
        43.5004         31.0004
  22699806.9724  -10707686.82749  -8334421.20547                  22699806.6284
        47.2504         33.5004
 02  7  1 16  3 44.9990000  0  8G 6G10G15G17G23G18G30G29
  19881074.1124   -4717396.99249  -3665570.38648                  19881072.5504
        53.0004         44.2504
  22658554.2144    6587362.14649   5112177.47847                  22658553.9054
        46.5004         35.0004
  21038731.9804  -11901263.19349  -9246452.07948                  21038731.3124
        50.0004         41.0004
  20594648.8554   -9272985.12449  -7204953.44148                  20594647.4914
        50.5004         44.0004
  20398488.2304   -4601825.15449  -3573511.25748                  20398486.6984
        53.0004         45.0004
  21995120.3084  -14036986.10649 -10926100.83347                  21995119.0504
        49.0004         38.5004
  22992166.8004    9151473.77249   7096932.53247                  22992167.6904
        43.7504         31.5004
  22693002.9874  -10743442.54949  -8362282.77847                  22693002.4214
        46.0004         33.7504
 02  7  1 16  3 59.9990000  0  8G 6G10G15G17G23G18G30G29
  19879443.7454   -4725964.46149  -3672246.33048                  19879442.4254
        53.2504         44.2504
  22664959.5974    6621022.36949   5138406.20547                  22664959.5854
        46.0004         34.5004
  21030756.1204  -11943178.35949  -9279113.22648                  21030754.8974
        50.0004         42.2504
  20588610.8554   -9304713.27549  -7229676.67448                  20588609.9484
        50.7504         43.7504
  20397713.3234   -4605897.89249  -3576684.82148                  20397711.5544
        53.2504         45.0004
  21983359.2694  -14098792.77449 -10974261.84847                  21983357.7184
        48.2504         39.0004
  22999531.5814    9190176.44349   7127090.39947                  22999532.0424
        43.7504         32.2504
  22686217.6514  -10779099.23649  -8390067.19647                  22686217.1754
        45.5004         33.7504
 02  7  1 16  4 14.9990000  0  8G 6G10G15G17G23G18G30G29
  19877833.7844   -4734426.53749  -3678840.16048                  19877831.8784
        53.5004         44.0004
  22671375.1754    6654735.98049   5164676.51647                  22671374.6634
        45.5004         34.2504
  21022789.8394  -11985040.61049  -9311733.16448                  21022788.9054
        50.5004         42.2504
  20582582.9094   -9336391.46549  -7254360.97148                  20582582.3154
        51.0004         44.0004
  20396960.3234   -4609853.38449  -3579767.01848                  20396959.1874
        52.5004         44.7504
  21971610.6594  -14160532.26249 -11022370.51047                  21971609.0154
        48.5004         38.7504
  23006898.8474    9228893.59149   7157259.55347                  23006899.8154
        44.2504         31.2504
  22679451.9804  -10814652.80449  -8417771.26947                  22679451.7414
        45.7504         34.2504
 02  7  1 16  4 29.9990000  0  8G 6G10G15G17G23G18G30G29
  19876242.9094   -4742785.08049  -3685353.31448                  19876241.3704
        53.0004         44.5004
  22677800.4954    6688500.74849   5190986.70447                  22677799.8124
        46.5004         34.2504
  21014833.5114  -12026851.74949  -9344313.25148                  21014832.5774
        51.0004         42.2504
  20576563.9564   -9368021.48249  -7279007.73048                  20576562.6054
        51.0004         44.0004
  20396229.7224   -4613693.64749  -3582759.44248                  20396228.0624
        53.0004         45.0004
  21959874.8154  -14222206.29549 -11070428.17847                  21959873.2694
        49.2504         38.7504
  23014268.8474    9267622.79649   7187438.09547                  23014269.5344
        44.5004         32.0004
  22672705.3084  -10850104.97549  -8445396.32147                  22672705.5224
        45.5004         33.5004
 02  7  1 16  4 44.9990000  0  8G 6G10G15G17G23G18G30G29
  19874671.6364   -4751042.89949  -3691787.98648                  19874669.9874
        54.0004         44.2504
  22684234.2064    6722313.45149   5217334.24247                  22684234.2144
        45.0004         34.5004
  21006886.4014  -12068614.69849  -9376855.82048                  21006885.0854
        49.5004         42.0004
  20570553.5814   -9399606.40049  -7303619.36048                  20570552.4134
        51.0004         44.2504
  20395520.7064   -4617421.76049  -3585664.47648                  20395518.9914
        53.2504         44.7504
  21948150.1204  -14283817.48049 -11118436.86447                  21948148.5814
        48.7504         39.2504
  23021640.9174    9306360.91149   7217623.55147                  23021641.5074
        44.5004         31.2504
  22665977.7454  -10885458.33649  -8472944.39147                  22665977.6084
        47.5004         34.0004
 02  7  1 16  4 59.9990000  0  8G 6G10G15G17G23G18G30G29
  19873118.9174   -4759201.93349  -3698145.67748                  19873117.4134
        54.2504         44.5004
  22690677.5114    6756171.65249   5243717.23147                  22690677.7884
        47.0004         34.2504
  20998947.8784  -12110331.45049  -9409362.36548                  20998946.7884
        51.2504         42.2504
  20564550.9724   -9431148.17949  -7328197.35948                  20564550.4014
        51.2504         43.7504
  20394831.5814   -4621039.91449  -3588483.81048                  20394829.5774
        53.5004         45.0004
  21936438.1054  -14345367.52949 -11166397.92048                  21936435.9404
        49.5004         39.5004
  23029014.3314    9345105.47649   7247814.08247                  23029014.6874
        45.7504         31.7504
  22659268.5344  -10920714.67749  -8500416.85247                  22659268.2724
        46.0004         33.5004
 02  7  1 16  5 14.9990000  0  8G 6G10G15G17G23G18G30G29
  19871586.5114   -4767255.80049  -3704421.43048                  19871584.5384
        53.5004         44.5004
  22697130.5504    6790081.39249   5270140.36647                  22697130.1754
        46.2504         34.7504
  20991019.2614  -12151995.63149  -9441827.95048                  20991018.3584
        50.7504         41.7504
  20558558.2454   -9462640.62349  -7352736.92548                  20558557.0624
        50.5004         43.7504
  20394165.4094   -4624541.92249  -3591212.65848                  20394163.6594
        53.2504         44.7504
  21924738.3314  -14406849.94249 -11214306.27247                  21924736.6014
        48.0004         38.5004
  23036389.2454    9383862.63049   7278014.40847                  23036389.9374
        46.2504         32.7504
  22652579.5114  -10955867.34449  -8527808.51847                  22652579.7224
        44.5004         33.7504
 02  7  1 16  5 29.9990000  0  7G 6G10G15G17G23G18G29
  19870073.6204   -4775205.12249  -3710615.70348                  19870071.9604
        53.5004         44.5004
  22703592.6834    6824041.67149   5296602.90047                  22703593.3904
        46.5004         35.0004
  20983100.7764  -12193607.99349  -9474253.15048                  20983099.8514
        50.7504         41.5004
  20552574.8944   -9494084.27049  -7377238.45548                  20552573.7454
        52.0004         43.7504
  20393520.9874   -4627928.73949  -3593851.73048                  20393519.3624
        53.0004         44.5004
  21913051.2534  -14468265.06249 -11262162.18047                  21913049.5814
        49.2504         38.5004
  22645910.1754  -10990917.00049  -8555119.92747                  22645909.5894
        47.2504         33.7504
 02  7  1 16  5 44.9980000  0  7G 6G10G15G17G23G18G29
  19868579.9284   -4783053.33349  -3716731.20048                  19868578.2294
        53.0004         44.2504
  22710063.7724    6858045.79949   5323099.57447                  22710063.7254
        45.5004         34.7504
  20975191.7404  -12235169.70849  -9506638.89448                  20975190.7174
        50.2504         41.7504
  20546600.2174   -9525481.23149  -7401703.61848                  20546599.3654
        51.2504         43.7504
  20392897.6784   -4631204.34849  -3596404.16448                  20392895.9944
        53.0004         44.7504
  21901376.9904  -14529612.57349 -11309965.41847                  21901374.9794
        49.5004         38.5004
  22639259.3424  -11025864.79149  -8582351.97847                  22639258.9944
        46.5004         33.5004
 02  7  1 16  5 59.9980000  0  8G 6G10G15G17G23G18G22G29
  19867106.3034   -4790799.48149  -3722767.16548                  19867105.2684
        53.5004         44.5004
  22716544.0924    6892099.85549   5349635.20347                  22716543.8544
        47.5004         35.5004
  20967291.6154  -12276684.51649  -9538988.09148                  20967290.5614
        50.7504         41.2504
  20540634.3504   -9556833.70149  -7426134.10948                  20540633.0964
        50.5004         43.5004
  20392295.7404   -4634367.50449  -3598868.96148                  20392293.9674
        53.0004         44.5004
  21889714.6474  -14590898.61349 -11357720.73547                  21889713.1544
        47.2504         38.7504
  22859256.4124     -79473.30259    -51476.74457                  22859256.6504
        43.5004         30.7504
  22632627.7564  -11060713.50849  -8609506.78647                  22632628.0534
        46.5004         34.0004
 02  7  1 16  6 14.9980000  0  8G 6G10G15G17G23G18G22G29
  19865651.9044   -4798441.89549  -3728722.30548                  19865650.0254
        54.2504         44.5004
  22723033.9284    6926202.25849   5376208.45847                  22723033.7404
        45.0004         35.0004
  20959401.1934  -12318148.55649  -9571297.71948                  20959400.2404
        49.7504         41.7504
  20534676.7324   -9588138.65249  -7450527.56648                  20534675.4044
        51.2504         43.7504
  20391715.4674   -4637417.03049  -3601245.22248                  20391713.6624
        53.5004         44.7504
  21878064.9284  -14652117.81549 -11405423.98847                  21878063.2324
        48.5004         39.2504
  22852499.8504    -114980.14849    -79144.39147                  22852499.9634
        44.5004         31.0004
  22626016.1544  -11095459.29849  -8636581.41347                  22626016.3614
        47.0004         34.2504
 02  7  1 16  6 29.9980000  0  8G 6G10G15G17G23G18G22G29
  19864216.7014   -4805983.95749  -3734599.23548                  19864214.9164
        53.0004         44.5004
  22729531.6624    6960349.34549   5402816.56347                  22729531.6354
        47.0004         35.0004
  20951519.8344  -12359565.33649  -9603570.51848                  20951519.0614
        50.2504         41.7504
  20528727.9514   -9619399.50349  -7474886.67248                  20528726.7564
        50.7504         43.7504
  20391156.1784   -4640356.59749  -3603535.79448                  20391154.2254
        53.5004         45.0004
  21866427.7794  -14713273.39749 -11453077.65547                  21866426.0614
        49.5004         39.2504
  22845766.1234    -150365.12249   -106717.10647                  22845766.2484
        44.5004         31.5004
  22619422.4754  -11130105.42249  -8663578.39047                  22619422.7324
        47.5004         34.2504
 02  7  1 16  6 44.9980000  0  8G 6G10G15G17G23G18G22G29
  19862800.0454   -4813427.89649  -3740399.71248                  19862797.9754
        53.7504         44.5004
  22736037.2484    6994538.29549   5429457.26847                  22736037.4244
        46.5004         35.2504
  20943647.2484  -12400936.97549  -9635808.15548                  20943646.2214
        50.5004         42.0004
  20522787.3654   -9650618.58049  -7499213.21448                  20522786.1274
        50.2504         43.7504
  20390617.0844   -4643188.60649  -3605742.55948                  20390615.7724
        53.2504         44.7504
  21854801.3734  -14774367.33249 -11500683.29848                  21854800.2874
        46.2504         39.5004
  22839055.1074    -185630.26049   -134196.39547                  22839055.8734
        45.2504         31.2504
  22612848.5764  -11164653.86849  -8690499.24047                  22612848.6474
        47.5004         35.0004
 02  7  1 16  6 59.9980000  0  8G 6G10G15G17G23G18G22G29
  19861403.6234   -4820766.96249  -3746118.47748                  19861401.9594
        53.5004         44.5004
  22742553.0374    7028775.51449   5456135.59847                  22742552.3504
        46.7504         35.0004
  20935784.1624  -12442256.87049  -9668005.47448                  20935783.6974
        50.2504         41.7504
  20516855.6394   -9681789.21249  -7523502.02248                  20516854.6004
        50.5004         43.7504
  20390099.8034   -4645906.65849  -3607860.53548                  20390098.4244
        52.5004         44.5004
  21843188.8264  -14835392.70649 -11548235.50547                  21843187.2404
        47.2504         38.7504
  22832368.8894    -220768.80649   -161577.06547                  22832368.8934
        45.0004         30.5004
  22606293.8264  -11199097.74349  -8717338.61247                  22606293.6894
        46.7504         34.0004
 02  7  1 16  7 14.9980000  0  8G 6G10G15G17G23G18G22G29
  19860025.8734   -4828006.94249  -3751760.02648                  19860023.9514
        53.0004         44.5004
  22749075.7094    7063054.84449   5482846.72347                  22749075.7794
        46.5004         35.0004
  20927929.9594  -12483530.88049  -9700167.01948                  20927929.1784
        50.5004         42.0004
  20510932.4284   -9712917.33749  -7547757.68748                  20510931.5184
        50.2504         44.0004
  20389603.2564   -4648516.73949  -3609894.37648                  20389601.6664
        53.5004         45.0004
  21831587.8814  -14896355.23649 -11595738.75447                  21831585.8574
        48.2504         38.5004
  22825705.1394    -255786.43849   -188863.52847                  22825705.4284
        45.0004         30.5004
  22599758.5064  -11233442.66249  -8744100.88247                  22599758.0374
        46.2504         33.2504
 02  7  1 16  7 29.9980000  0  8G 6G10G15G17G23G18G22G29
  19858667.6474   -4835143.76949  -3757321.18248                  19858666.1074
        53.2504         44.5004
  22755607.5224    7097379.82949   5509593.45147                  22755607.3854
        47.2504         34.7504
  20920085.4124  -12524755.13249  -9732289.80448                  20920084.7834
        51.5004         42.0004
  20505017.7254   -9743998.89749  -7571977.08248                  20505016.3034
        51.0004         44.5004
  20389127.9514   -4651015.06149  -3611841.11248                  20389126.6154
        52.7504         44.7504
  21819999.7094  -14957250.54749 -11643189.61447                  21819998.3614
        48.2504         39.0004
  22819065.0684    -290679.03249   -216052.53047                  22819066.2014
        44.2504         30.5004
  22593242.4984  -11267684.46949  -8770782.76747                  22593242.7214
        47.0004         33.5004
 02  7  1 16  7 44.9980000  0  8G 6G10G15G17G23G18G22G29
  19857329.5374   -4842175.20449  -3762800.23148                  19857327.7604
        53.5004         44.5004
  22762148.4674    7131752.38849   5536377.22647                  22762148.1934
        46.2504         34.7504
  20912250.1074  -12565927.33349  -9764372.03448                  20912249.4284
        50.7504         42.2504
  20499112.1004   -9775031.81849  -7596158.57448                  20499110.7014
        50.2504         44.2504
  20388673.9044   -4653399.58249  -3613699.19648                  20388672.3344
        53.0004         44.7504
  21808425.1154  -15018076.32649 -11690586.28947                  21808423.8464
        47.5004         39.2504
  22812449.1704    -325444.30449   -243142.36847                  22812450.1274
        45.0004         29.7504
  22586746.5294  -11301820.64349  -8797382.39147                  22586746.5494
        47.2504         33.7504
 02  7  1 16  7 59.9980000  0  8G 6G10G15G17G23G18G22G29
  19856011.4514   -4849102.13349  -3768197.85248                  19856009.6474
        53.2504         44.5004
  22768698.4284    7166171.11249   5563196.98647                  22768698.0884
        47.7504         35.0004
  20904425.3504  -12607048.55349  -9796414.54048                  20904424.5844
        51.2504         42.7504
  20493215.8504   -9806017.02549  -7620302.89048                  20493215.0104
        50.0004         44.5004
  20388241.5764   -4655671.58549  -3615469.58948                  20388240.3114
        53.5004         44.7504
  21796863.2724  -15078833.31249 -11737929.38147                  21796861.6434
        48.5004         39.2504
  22805858.1074    -360083.07049   -270133.58347                  22805858.1314
        44.7504         30.0004
  22580270.9284  -11335852.00249  -8823900.30947                  22580270.0844
        47.2504         33.7504
 02  7  1 16  8 14.9980000  0  8G 6G10G15G17G23G18G22G29
  19854713.5844   -4855922.46749  -3773512.40048                  19854712.0964
        53.2504         44.5004
  22775257.2174    7200637.79549   5590054.10647                  22775256.9244
        46.0004         34.7504
  20896610.9824  -12648116.52449  -9828415.53748                  20896610.1394
        51.0004         42.7504
  20487329.1934   -9836952.59349  -7644408.52348                  20487328.1044
        50.2504         44.0004
  20387831.2014   -4657829.07049  -3617150.75748                  20387829.5024
        53.5004         45.0004
  21785315.6154  -15139519.30249 -11785217.13048                  21785313.6004
        47.2504         39.7504
  22799290.4434    -394593.16549   -297024.56547                  22799291.1784
        43.7504         30.5004
  22573815.0064  -11369776.15249  -8850334.70747                  22573815.0534
        47.0004         33.5004
 02  7  1 16  8 29.9980000  0  8G 6G10G15G17G23G18G22G29
  19853436.5534   -4862633.66149  -3778741.88948                  19853435.2834
        53.5004         44.5004
  22781825.1624    7235154.56649   5616950.27247                  22781825.0184
        45.5004         34.7504
  20888805.9594  -12689128.84849  -9860373.18148                  20888804.9004
        50.7504         42.0004
  20481452.3814   -9867835.99249  -7668473.49948                  20481451.1824
        50.5004         44.0004
  20387442.7874   -4659869.81749  -3618740.94548                  20387441.4864
        52.5004         45.2504
  21773781.1544  -15200131.46049 -11832447.36047                  21773779.2954
        49.0004         39.0004
  22792748.6784    -428972.00249   -323813.21947                  22792749.4394
        43.7504         30.7504
  22567380.7644  -11403590.36249  -8876683.43347                  22567380.5614
        47.2504         34.0004
 02  7  1 16  8 44.9980000  0  8G 6G10G15G17G23G18G22G29
  19852179.4044   -4869241.38049  -3783890.77448                  19852177.7254
        52.5004         44.2504
  22788402.2644    7269715.43549   5643880.79047                  22788402.0374
        45.2504         35.2504
  20881011.1234  -12730091.25249  -9892291.93048                  20881010.4754
        51.0004         42.5004
  20475583.9434   -9898672.99649  -7692502.32548                  20475583.0724
        49.5004         44.2504
  20387075.5294   -4661799.71649  -3620244.78248                  20387073.9434
        52.5004         44.7504
  21762260.0764  -15260675.26349 -11879624.31047                  21762258.6194
        48.5004         39.2504
  22786230.3114    -463225.09549   -350503.97047                  22786231.3504
        44.0004         30.0004
  22560965.7174  -11437300.24849  -8902950.86747                  22560965.8774
        46.5004         35.0004
 02  7  1 16  8 59.9980000  0  8G 6G10G15G17G23G18G22G29
  19850941.8894   -4875741.92149  -3788956.13848                  19850940.5414
        52.7504         44.5004
  22794987.5224    7304323.49749   5670848.07347                  22794987.5964
        45.5004         34.0004
  20873226.4284  -12771000.14549  -9924168.98248                  20873225.7834
        50.5004         42.5004
  20469725.3344   -9929459.96049  -7716492.16348                  20469723.9754
        48.5004         44.0004
  20386729.8894   -4663615.35249  -3621659.56548                  20386728.4864
        52.2504         44.7504
  21750752.5534  -15321146.88649 -11926745.03447                  21750751.2874
        47.5004         39.2504
  22779737.2404    -497348.78749   -377093.83247                  22779737.3814
        44.5004         30.2504
  22554571.3424  -11470901.84149  -8929133.89447                  22554571.2914
        47.2504         34.5004
 02  7  1 16  9 14.9980000  0  8G 6G10G15G17G23G18G22G29
  19849724.3894   -4882140.71449  -3793942.21548                  19849722.8114
        52.5004         44.2504
  22801581.6154    7338972.96749   5697847.62547                  22801581.7684
        45.5004         34.2504
  20865450.9904  -12811861.03549  -9956008.62148                  20865449.8814
        51.0004         42.0004
  20463875.7014   -9960202.43349  -7740447.33348                  20463874.2794
        48.5004         44.0004
  20386405.1784   -4665322.45949  -3622989.78148                  20386403.7324
        51.7504         45.0004
  21739258.1314  -15381551.67149 -11973813.66348                  21739256.5374
        47.5004         39.7504
  22773266.3344    -531348.44749   -403587.06047                  22773268.0294
        44.5004         29.5004
  22548196.7874  -11504400.35349  -8955236.61647                  22548196.8034
        46.5004         34.0004
 02  7  1 16  9 29.9980000  0  8G 6G10G15G17G23G18G22G29
  19848526.1624   -4888437.79949  -3798849.03548                  19848524.7794
        52.2504         44.5004
  22808182.6394    7373663.45349   5724879.14647                  22808182.6044
        46.0004         34.0004
  20857684.5224  -12852673.94049  -9987810.88148                  20857683.6074
        51.5004         42.0004
  20458033.7564   -9990900.65349  -7764368.02248                  20458032.4004
        48.7504         44.0004
  20386101.2404   -4666921.30149  -3624235.64348                  20386099.4044
        51.7504         45.0004
  21727776.2174  -15441889.42049 -12020830.06548                  21727774.6234
        48.0004         39.7504
  22766820.0224    -565224.05549   -429983.61747                  22766821.2524
        43.5004         30.0004
  22541841.8504  -11537795.74949  -8981258.99547                  22541841.9244
        47.0004         34.2504
 02  7  1 16  9 44.9980000  0  8G 6G10G15G17G23G18G22G29
  19847347.2174   -4894632.49249  -3803676.08548                  19847346.0024
        53.2504         44.2504
  22814792.2014    7408395.26949   5751942.84747                  22814791.8814
        46.0004         32.5004
  20849927.2014  -12893438.18849 -10019575.22548                  20849925.8264
        51.0004         42.5004
  20452200.5224  -10021553.87449  -7788253.65348                  20452199.7294
        47.5004         44.5004
  20385817.4904   -4668411.45949  -3625396.81048                  20385816.1074
        51.2504         45.0004
  21716307.3184  -15502159.27149 -12067793.56348                  21716305.5964
        47.5004         39.7504
  22760397.9044    -598974.78849   -456282.91047                  22760398.5644
        44.5004         29.5004
  22535507.1074  -11571087.23749  -9007200.39047                  22535506.8574
        47.5004         34.5004
 02  7  1 16  9 59.9980000  0  8G 6G10G15G17G23G18G22G29
  19846187.8734   -4900726.17249  -3808424.42148                  19846186.2254
        53.2504         44.5004
  22821408.7254    7443166.59049   5779037.35847                  22821408.5254
        45.5004         32.7504
  20842178.9984  -12934155.33549 -10051302.85948                  20842178.1044
        50.5004         42.2504
  20446376.0374  -10052163.61549  -7812105.39048                  20446374.7724
        48.0004         44.5004
  20385554.5144   -4669794.54549  -3626474.54248                  20385553.1824
        52.2504         45.0004
  21704850.6004  -15562362.52649 -12114705.16148                  21704849.2914
        48.5004         39.5004
  22753998.8264    -632602.05849   -482485.94647                  22753999.7364
        44.0004         30.2504
  22529191.2794  -11604275.83349  -9033061.62847                  22529190.9904
        47.5004         34.0004
 02  7  1 16 10 14.9980000  0  8G 6G10G15G17G23G18G22G29
  19845047.6004   -4906716.68749  -3813092.35948                  19845045.9864
        53.0004         44.2504
  22828033.2404    7477979.21049   5806164.04947                  22828033.4364
        45.0004         33.2504
  20834440.0684  -12974823.23549 -10082992.11648                  20834439.3654
        50.5004         42.0004
  20440559.6624  -10082727.81849  -7835921.64448                  20440558.5104
        48.5004         44.5004
  20385311.7484   -4671068.67749  -3627467.38548                  20385309.7994
        50.7504         45.0004
  21693407.1544  -15622496.82549 -12161563.03348                  21693405.8544
        47.2504         40.0004
  22747624.0924    -666103.58549   -508591.02447                  22747624.2994
        44.5004         30.0004
  22522895.6154  -11637359.38649  -9058841.00647                  22522895.3774
        46.5004         34.7504
 02  7  1 16 10 29.9980000  0  8G 6G10G15G17G23G18G22G29
  19843927.5534   -4912603.96749  -3817679.85148                  19843925.9474
        53.2504         44.2504
  22834665.9594    7512832.75049   5833322.61647                  22834666.1544
        45.7504         33.0004
  20826710.4824  -13015441.89149 -10114642.99948                  20826709.7214
        51.5004         42.2504
  20434752.1004  -10113246.48749  -7859702.41448                  20434751.2324
        48.5004         44.0004
  20385090.2254   -4672234.08849  -3628375.49148                  20385088.5374
        50.7504         45.2504
  21681977.3114  -15682561.84749 -12208366.92048                  21681975.9984
        47.5004         39.5004
  22741273.1154    -699479.42149   -534598.14847                  22741273.0574
        45.2504         30.0004
  22516620.0374  -11670337.57149  -9084538.26647                  22516620.1314
        47.2504         35.0004
 02  7  1 16 10 44.9980000  0  8G 6G10G15G17G23G18G22G29
  19842826.2644   -4918388.85449  -3822187.56348                  19842824.7324
        52.7504         44.2504
  22841306.5144    7547726.01149   5860512.14847                  22841305.7754
        43.2504         32.5004
  20818990.2564  -13056012.24449 -10146256.24548                  20818989.5334
        50.7504         42.5004
  20428953.0684  -10143720.51849  -7883448.40348                  20428952.1114
        47.7504         44.0004
  20384888.7874   -4673291.86249  -3629199.72848                  20384887.4474
        51.0004         45.0004
  21670560.1934  -15742558.37249 -12255117.41748                  21670558.6474
        47.7504         39.5004
  22734945.2564    -732730.09549   -560507.73147                  22734945.5684
        44.7504         30.5004
  22510364.3504  -11703211.03149  -9110153.92647                  22510364.2524
        47.5004         34.5004
 02  7  1 16 10 59.9980000  0  8G 6G10G15G17G23G18G22G29
  19841744.3654   -4924075.36449  -3826618.61648                  19841742.7754
        53.0004         44.2504
  22847952.7404    7582654.49449   5887729.11147                  22847952.6474
        45.5004         33.0004
  20811278.3974  -13096538.24449 -10177834.94248                  20811277.4864
        51.5004         42.7504
  20423161.6624  -10174154.02149  -7907162.81648                  20423160.4864
        47.5004         44.2504
  20384707.2404   -4674246.30349  -3629943.46548                  20384705.8424
        50.0004         45.2504
  21659155.6704  -15802490.15949 -12301817.49148                  21659154.5924
        48.5004         40.0004
  22728641.1864    -765859.62449   -586322.94847                  22728641.8384
        45.2504         30.2504
  22504127.8264  -11735983.54649  -9135690.93747                  22504127.7684
        47.5004         34.5004
 02  7  1 16 11 14.9980000  0  8G 6G10G15G17G23G18G22G29
  19840680.7794   -4929665.65149  -3830974.68748                  19840679.2754
        53.0004         44.2504
  22854606.2324    7617615.53349   5914971.44847                  22854605.5924
        45.0004         33.0004
  20803574.5224  -13137022.22449 -10209380.89548                  20803573.5804
        50.7504         42.2504
  20417377.7254  -10204549.22549  -7930847.39248                  20417376.5224
        47.5004         44.0004
  20384544.8574   -4675099.84549  -3630608.56248                  20384542.8894
        50.0004         45.0004
  21647763.1004  -15862359.19849 -12348468.66748                  21647761.5884
        47.0004         39.5004
  22722359.5454    -798870.25749   -612045.49047                  22722360.1044
        45.0004         30.5004
  22497910.6624  -11768657.23849  -9161150.95747                  22497910.3344
        47.5004         34.5004
 02  7  1 16 11 29.9980000  0  8G 6G10G15G17G23G18G22G29
  19839636.7014   -4935153.09749  -3835250.62348                  19839635.0764
        53.5004         44.5004
  22861265.3344    7652615.51249   5942244.13747                  22861265.7094
        44.5004         32.7504
  20795879.8894  -13177457.49049 -10240888.87548                  20795879.4004
        50.5004         42.5004
  20411602.1004  -10234899.55849  -7954496.99548                  20411601.2364
        49.0004         43.7504
  20384402.9754   -4675846.01449  -3631189.99848                  20384401.1314
        52.0004         45.0004
  21636383.5924  -15922158.77149 -12395065.70148                  21636382.1744
        48.0004         39.7504
  22716101.9284    -831755.15449   -637670.07047                  22716101.9204
        45.7504         31.0004
  22491713.0144  -11801225.20049  -9186528.56947                  22491712.9004
        47.0004         35.0004
 02  7  1 16 11 44.9980000  0  8G 6G10G15G17G23G18G22G29
  19838610.7874   -4940543.98549  -3839451.32548                  19838609.2054
        52.2504         44.0004
  22867932.7794    7687647.81849   5969541.99547                  22867932.1354
        45.0004         33.0004
  20788193.6004  -13217850.38249 -10272363.84248                  20788192.7644
        51.2504         42.2504
  20405834.1154  -10265211.42549  -7978116.63148                  20405832.8814
        48.2504         44.0004
  20384280.0614   -4676491.31649  -3631692.83648                  20384278.3854
        52.0004         45.0004
  21625016.6074  -15981894.88049 -12441613.29948                  21625015.0804
        46.5004         40.5004
  22709866.3974    -864520.49049   -663201.51247                  22709866.4244
        45.5004         31.5004
  22485534.4904  -11833693.52349  -9211828.54447                  22485534.2524
        47.7504         34.7504
 02  7  1 16 11 59.9980000  0  8G 6G10G15G17G23G18G22G29
  19837603.1474   -4945837.94849  -3843576.50248                  19837601.8854
        52.5004         44.5004
  22874604.8034    7722712.44449   5996865.06747                  22874604.9794
        45.5004         32.7504
  20780515.1704  -13258200.58649 -10303805.54748                  20780514.3974
        51.2504         42.7504
  20400073.1154  -10295484.42249  -8001705.97248                  20400072.0494
        47.5004         44.0004
  20384176.1624   -4677035.68649  -3632117.02148                  20384174.3854
        50.5004         45.0004
  21613661.0924  -16041566.98649 -12488111.01548                  21613659.0374
        46.7504         40.2504
  22703654.0294    -897165.85149   -688639.42147                  22703654.8774
        43.7504         30.7504
  22479374.6394  -11866061.75149  -9237050.52047                  22479375.1624
        47.5004         35.0004
 02  7  1 16 12 14.9980000  0  8G 6G10G15G17G23G18G22G29
  19836614.3034   -4951034.55849  -3847625.80748                  19836612.5024
        53.0004         44.2504
  22881283.7484    7757809.29949   6024213.23247                  22881283.3734
        45.0004         32.7504
  20772845.3504  -13298507.68849 -10335213.67548                  20772844.1864
        51.0004         42.5004
  20394319.9124  -10325718.33949  -8025264.86648                  20394318.8974
        47.7504         44.5004
  20384091.8734   -4677478.98149  -3632462.45348                  20384090.4434
        52.2504         45.0004
  21602317.8814  -16101174.51949 -12534558.41848                  21602316.5724
        46.2504         40.0004
  22697464.3574    -929690.84049   -713983.54947                  22697465.4904
        45.0004         30.7504
  22473234.8264  -11898329.20949  -9262193.98947                  22473234.7754
        48.0004         34.0004
 02  7  1 16 12 29.9980000  0  8G 6G10G15G17G23G18G22G29
  19835643.4204   -4956136.68949  -3851601.50348                  19835641.5574
        52.2504         44.5004
  22887968.1394    7792935.17349   6051583.99747                  22887968.1234
        45.5004         33.0004
  20765182.4594  -13338774.67149 -10366590.53648                  20765181.6784
        50.0004         42.5004
  20388573.3344  -10355915.98549  -8048795.49448                  20388572.4164
        48.2504         44.5004
  20384026.1474   -4677824.38549  -3632731.59548                  20384024.6744
        51.2504         45.0004
  21590987.1934  -16160720.15849 -12580957.59748                  21590985.3224
        46.7504         40.2504
  22691298.4754    -962098.31049   -739236.13447                  22691298.2914
        46.0004         31.0004
  22467113.2564  -11930498.70549  -9287261.12147                  22467113.1044
        47.2504         34.2504
 02  7  1 16 12 44.9980000  0  8G 6G10G15G17G23G18G22G29
  19834691.5374   -4961138.77249  -3855499.23648                  19834690.1394
        52.7504         44.2504
  22894658.8034    7828095.26949   6078981.46047                  22894658.4244
        45.5004         32.5004
  20757528.6394  -13378996.05349 -10397931.85448                  20757527.6114
        50.7504         42.7504
  20382834.8504  -10386072.07549  -8072293.74248                  20382833.8114
        49.5004         44.5004
  20383979.9754   -4678066.56049  -3632920.31148                  20383978.5294
        51.7504         45.2504
  21579668.9434  -16220198.14649 -12627304.05348                  21579667.0224
        46.5004         40.2504
  22685154.6234    -994382.61149   -764392.71647                  22685154.8934
        44.7504         29.7504
  22461011.0144  -11962564.47649  -9312247.42147                  22461011.4434
        47.5004         34.5004
 02  7  1 16 12 59.9980000  0  8G 6G10G15G17G23G18G22G29
  19833757.8184   -4966045.52049  -3859322.68648                  19833756.1744
        52.0004         44.0004
  22901355.4284    7863284.38849   6106401.51847                  22901355.3814
        46.5004         33.5004
  20749882.4124  -13419176.63249 -10429241.39248                  20749881.5494
        51.2504         42.5004
  20377103.6074  -10416191.26549  -8095763.23148                  20377102.3344
        48.0004         44.0004
  20383952.8574   -4678210.47849  -3633032.46548                  20383951.8464
        51.5004         45.0004
  21568362.4204  -16279613.06349 -12673601.35948                  21568360.7054
        46.7504         40.5004
  22679033.2954   -1026548.33849   -789456.89747                  22679033.9474
        45.5004         30.7504
  22454927.8734  -11994530.98249  -9337156.36547                  22454927.9434
        46.7504         35.0004
 02  7  1 16 13 14.9980000  0  8G 6G10G15G17G23G18G22G29
  19832843.2404   -4970852.37549  -3863068.29848                  19832841.7174
        51.7504         44.0004
  22908057.9434    7898506.67849   6133847.44247                  22908057.5614
        46.2504         33.0004
  20742245.2644  -13459311.88049 -10460515.60248                  20742244.0454
        50.7504         42.5004
  20371380.0844  -10446269.15549  -8119200.55148                  20371378.3424
        49.7504         44.2504
  20383944.6704   -4678251.86549  -3633064.71148                  20383943.8344
        51.7504         45.0004
  21557068.7564  -16338960.36449 -12719845.98948                  21557067.1314
        47.0004         39.7504
  22672936.0844   -1058591.01149   -814425.21347                  22672935.9594
        45.0004         31.0004
  22448864.5064  -12026393.61949  -9361984.38447                  22448864.8574
        47.7504         34.7504
 02  7  1 16 13 29.9980000  0  8G 6G10G15G17G23G18G22G29
  19831947.0064   -4975561.86049  -3866738.02748                  19831945.5104
        52.0004         44.2504
  22914766.1864    7933759.43349   6161317.08547                  22914765.9714
        46.5004         33.5004
  20734615.4044  -13499404.20149 -10491756.36348                  20734614.7874
        51.0004         42.5004
  20365663.7644  -10476308.13349  -8142607.53648                  20365662.7914
        48.2504         44.5004
  20383955.9904   -4678193.38249  -3633019.14048                  20383954.2994
        52.0004         45.2504
  21545787.6394  -16398242.11549 -12766039.54848                  21545785.8304
        46.5004         40.0004
  22666861.4754   -1090512.96349   -839299.42847                  22666861.1624
        46.0004         31.0004
  22442820.7564  -12058154.61449  -9386733.18947                  22442821.0684
        47.5004         35.2504
 02  7  1 16 13 44.9980000  0  8G 6G10G15G17G23G18G22G29
  19831068.6544   -4980177.11449  -3870334.34448                  19831067.2754
        52.2504         44.0004
  22921479.2724    7969039.03049   6188807.64147                  22921479.6114
        45.5004         33.0004
  20726993.7874  -13539456.94949 -10522966.28448                  20726992.6544
        51.2504         42.2504
  20359954.5844  -10506311.61549  -8165986.87248                  20359952.9904
        48.0004         44.2504
  20383985.5294   -4678038.47549  -3632898.43948                  20383984.4364
        51.0004         45.5004
  21534519.0844  -16457461.40549 -12812184.41848                  21534517.4044
        47.0004         40.5004
  22660809.4124   -1122317.26149   -864082.02147                  22660809.6744
        45.5004         30.5004
  22436795.7014  -12089816.96749  -9411405.12947                  22436795.5534
        47.2504         35.2504
 02  7  1 16 13 59.9980000  0  8G 6G10G15G17G23G18G22G29
  19830208.7484   -4984696.71249  -3873856.11148                  19830206.6864
        53.2504         44.2504
  22928198.4434    8004346.56849   6216319.98847                  22928198.4514
        45.7504         33.5004
  20719379.9984  -13579468.69449 -10554144.25948                  20719379.0844
        50.7504         42.2504
  20354251.8814  -10536278.16849  -8189337.43848                  20354250.5024
        49.2504         44.2504
  20384033.6234   -4677786.00749  -3632701.71148                  20384032.1544
        51.2504         45.0004
  21523261.7094  -16516616.61749 -12858279.35948                  21523260.2444
        47.5004         40.5004
  22654780.0684   -1154002.55049   -888771.82547                  22654780.4794
        45.7504         30.7504
  22430789.4204  -12121379.03649  -9435998.94247                  22430789.0684
        47.5004         34.5004
 02  7  1 16 14 14.9980000  0  8G 6G10G15G17G23G18G22G29
  19829366.9434   -4989120.47149  -3877303.20848                  19829365.4324
        52.2504         44.2504
  22934922.4204    8039681.85849   6243853.96047                  22934922.5224
        44.5004         32.7504
  20711773.7724  -13619439.28349 -10585290.16548                  20711772.9284
        50.5004         42.2504
  20348556.2254  -10566207.57449  -8212659.03848                  20348555.3144
        48.2504         44.5004
  20384100.1704   -4677435.93849  -3632428.93348                  20384098.7214
        51.7504         45.0004
  21512017.1394  -16575707.27849 -12904324.00648                  21512015.6314
        46.7504         40.5004
  22648772.9674   -1185568.38749   -913368.55547                  22648773.6784
        46.2504         31.5004
  22424802.6784  -12152840.43749  -9460514.31947                  22424802.0884
        46.0004         35.0004
